GFSSGP_925_rhum_000.txt.gz
RH
26 20 17 22 50 44 45 36 23 25 20 15 15 16 17 24 24 48 49 52 53 65 77 83 93 97 90 84 79 81 76 78 71 71 76 86 80 78 77 75 75 79 83 78 80 83 74 74 79
25 22 18 38 45 50 40 26 26 23 18 15 15 14 15 23 27 45 52 53 52 61 70 83 86 91 90 84 81 80 75 75 71 74 81 86 82 77 81 82 77 73 75 78 79 85 75 74 73
25 17 32 37 43 44 37 31 23 20 15 14 14 13 15 22 22 41 48 52 50 60 62 76 68 82 91 82 79 78 72 78 72 78 73 79 78 76 78 78 73 74 76 76 79 84 78 78 77
22 20 24 38 36 30 29 44 24 19 16 13 12 19 24 22 22 40 51 51 50 54 63 69 64 76 83 74 83 79 75 76 72 73 75 72 78 73 76 72 73 75 79 82 79 82 84 82 87
20 24 31 29 30 24 21 49 18 19 18 16 13 18 32 32 42 46 50 48 49 51 67 70 71 77 77 79 85 79 76 76 70 78 86 83 76 72 78 77 74 84 85 87 85 85 86 89 86
32 22 29 32 24 19 17 18 20 18 17 15 14 16 35 34 41 47 49 48 47 49 65 76 85 85 82 84 84 79 74 74 71 83 84 80 72 80 80 78 75 87 92 87 83 82 87 89 88
35 33 30 22 19 20 18 17 20 20 19 16 12 17 35 36 39 47 48 47 47 49 55 71 80 81 78 82 79 79 76 75 71 81 83 78 76 76 80 73 81 96 90 81 68 69 76 88 88
31 31 27 24 21 23 18 18 17 19 17 12 12 20 31 36 44 47 46 47 50 48 51 60 70 78 78 68 80 76 72 77 72 80 81 79 75 81 79 70 77 88 82 72 57 54 68 81 88
27 37 32 28 24 22 19 20 16 15 16 13 14 21 37 44 45 47 47 48 50 48 48 48 57 66 69 65 77 76 71 80 74 76 78 76 73 75 79 78 84 82 74 64 52 58 72 71 66
37 44 29 19 19 26 24 23 21 18 20 17 17 27 42 47 46 50 50 50 48 49 48 48 49 55 56 53 66 67 68 78 75 78 78 74 70 70 76 79 79 81 74 64 53 51 53 49 45
34 41 29 20 22 25 25 24 22 20 25 19 19 31 40 48 47 46 46 45 48 49 51 51 51 53 55 47 55 66 69 72 74 73 68 72 65 65 66 72 78 76 68 64 63 43 36 35 44
38 28 23 21 22 22 25 22 24 22 22 16 17 24 37 48 51 46 42 38 41 46 50 51 52 54 56 53 46 57 60 65 64 65 62 63 63 60 66 70 70 72 70 71 73 60 57 48 45
32 26 21 20 21 24 22 24 25 24 19 16 16 18 34 39 41 38 36 34 31 37 43 47 51 54 58 53 49 48 53 56 58 58 58 58 61 61 60 62 63 64 62 65 61 60 53 51 51
25 26 24 22 21 22 23 24 20 20 18 17 19 20 21 29 33 31 32 32 29 29 34 40 48 52 57 60 56 51 48 52 54 55 58 58 60 62 60 56 58 59 60 60 58 56 53 50 52
24 29 29 25 23 22 20 26 24 20 17 18 18 18 19 21 20 24 27 30 30 30 30 34 40 51 54 59 61 59 53 52 54 54 56 59 61 62 63 58 55 58 60 63 62 60 57 53 52
29 31 39 25 23 21 23 32 19 17 16 18 18 18 19 19 18 17 18 21 28 30 30 31 33 42 53 55 59 60 61 58 57 57 57 58 62 63 64 65 58 57 61 63 64 64 62 60 56
32 36 32 26 22 22 25 30 20 17 18 19 18 17 16 16 16 16 16 18 21 25 30 31 31 34 42 53 57 60 62 63 61 62 62 60 60 64 66 67 67 61 61 64 65 65 64 64 63
34 32 26 26 26 24 27 27 20 16 17 19 16 15 15 16 16 13 14 15 16 19 22 27 32 34 34 42 55 61 63 63 64 65 66 65 64 64 66 68 70 70 63 63 66 66 65 64 63
28 26 24 18 24 23 26 24 18 15 18 17 16 21 20 19 20 18 20 23 22 18 19 22 25 30 35 40 50 61 67 68 68 69 68 70 69 66 66 69 72 74 72 65 66 69 68 66 64
27 27 26 22 21 26 26 25 16 15 15 16 22 24 26 24 24 24 24 29 32 31 29 24 23 26 31 39 48 55 64 66 66 66 67 69 71 72 70 69 74 76 78 76 69 69 73 73 72
30 31 31 31 25 28 27 30 22 17 20 22 23 26 27 29 30 31 32 33 38 41 38 34 31 28 30 34 43 50 55 58 59 61 67 71 73 74 75 74 75 79 80 80 79 73 71 76 74
34 27 28 31 34 40 27 39 25 23 26 26 30 31 31 30 31 33 36 36 39 39 36 36 33 31 32 34 40 46 51 59 60 62 60 61 64 69 74 76 77 77 80 83 81 80 76 75 76
37 29 28 29 34 34 28 37 27 26 31 30 30 31 32 31 32 35 39 36 39 38 32 30 32 34 35 33 34 38 45 52 54 56 57 55 53 58 69 75 78 80 83 82 84 83 78 77 78
27 28 30 30 35 45 26 28 31 28 30 33 30 31 31 32 32 34 34 36 39 37 34 34 33 33 33 36 43 46 45 44 45 48 51 52 52 51 54 64 76 80 84 86 85 86 85 84 81
29 36 48 53 52 45 23 31 30 21 26 29 33 34 32 33 33 36 41 43 40 39 38 37 37 38 36 36 35 34 36 42 53 57 58 58 58 56 56 57 62 76 81 84 87 89 88 89 88
31 33 51 57 52 39 25 39 28 20 22 25 29 33 34 34 34 39 42 41 40 40 40 38 38 39 39 38 38 37 36 36 36 37 38 41 47 51 55 58 63 65 72 77 81 86 88 89 90
32 43 28 40 32 44 35 25 22 20 23 24 29 34 36 34 34 37 40 39 40 40 39 38 38 38 39 38 38 39 39 40 38 38 38 37 38 39 40 42 45 53 58 66 72 74 76 82 86
23 23 37 40 45 44 36 28 32 26 25 25 31 34 36 34 36 38 40 40 39 38 37 36 36 38 39 40 40 40 40 41 41 40 40 41 42 41 40 40 41 42 45 48 54 64 70 73 77
32 32 28 30 32 43 42 36 24 26 23 23 33 35 37 38 40 40 39 37 36 36 36 36 36 36 39 41 44 45 45 48 49 49 50 50 49 49 48 46 44 42 43 44 47 51 58 66 73
31 31 30 42 39 38 41 43 25 28 33 34 35 36 37 39 42 41 38 36 37 37 37 39 42 43 47 50 52 53 52 53 54 56 57 58 58 57 56 55 54 52 50 48 48 50 55 62 67

GFSSGP_925_rhum_003.txt.gz
RH
30 20 19 23 49 57 54 47 30 40 24 17 16 18 23 23 25 29 51 54 56 67 62 69 88 97 92 90 87 80 74 77 70 75 77 83 86 82 79 80 80 86 82 82 83 77 77 77 88
26 22 21 41 51 60 56 36 38 32 21 17 16 17 18 24 41 55 56 52 60 64 61 75 88 95 92 87 86 83 81 77 76 78 85 82 86 81 85 82 79 76 81 82 87 80 74 72 74
25 22 34 44 55 55 51 39 37 28 18 15 16 15 21 23 42 52 46 50 63 66 57 68 86 92 94 88 86 83 77 82 75 73 70 77 82 81 81 80 75 82 81 80 84 85 76 77 73
25 23 29 43 45 39 34 36 35 27 17 14 14 23 28 37 33 47 49 51 58 66 66 65 68 87 89 84 85 84 77 77 73 71 73 67 72 77 80 75 73 79 82 83 81 83 84 77 83
24 32 37 33 32 30 25 30 25 28 20 16 14 23 35 44 47 48 48 52 53 64 63 73 67 75 82 83 82 84 81 80 76 75 76 77 73 73 81 72 74 83 78 80 79 79 85 88 86
37 32 35 38 31 24 21 26 23 26 19 16 15 31 39 44 48 50 50 51 54 61 65 70 73 86 82 77 85 82 80 76 70 79 88 78 78 73 78 72 78 80 94 93 87 84 87 92 89
37 44 37 32 29 25 18 24 32 26 21 18 15 31 41 44 46 50 48 48 51 60 67 69 72 85 79 79 83 77 75 72 72 82 87 82 76 73 78 72 75 90 97 89 83 76 79 90 89
38 39 32 30 29 28 20 23 19 20 18 13 14 31 43 39 47 50 49 48 48 60 61 63 66 75 78 81 84 72 74 76 72 75 78 78 76 76 74 72 74 88 90 83 75 59 67 75 88
29 47 40 31 29 26 28 29 23 17 17 15 23 28 38 39 47 49 48 50 50 50 55 60 63 65 68 68 72 73 71 76 74 72 79 75 75 74 69 78 76 80 82 76 68 54 64 78 85
43 55 40 26 28 27 28 27 26 22 22 20 33 51 47 46 50 53 53 55 54 51 50 57 63 64 65 69 64 70 70 72 78 75 77 78 74 70 75 81 80 80 82 81 70 61 62 54 56
41 50 39 34 30 26 27 25 24 27 24 23 22 46 58 54 55 58 55 53 52 52 51 50 57 60 63 70 68 74 66 63 77 78 75 71 72 72 77 84 84 81 82 82 69 66 54 41 41
47 38 34 32 28 25 28 24 26 24 24 20 18 35 59 63 62 59 58 53 52 53 53 52 53 56 60 61 56 65 66 66 72 69 74 77 71 69 76 74 72 75 74 68 73 72 68 39 33
45 40 33 27 27 26 26 28 25 26 23 22 25 38 50 61 62 51 47 45 44 49 51 55 56 57 59 60 56 55 64 64 70 67 70 73 68 68 68 66 68 68 72 68 68 69 69 58 55
32 33 30 27 27 27 28 26 24 22 21 20 21 31 42 48 52 49 48 46 42 39 44 46 55 58 60 62 60 55 53 60 64 65 65 67 65 66 66 65 63 64 68 66 60 66 65 62 56
34 37 34 32 30 28 20 26 26 21 20 20 21 24 25 36 37 41 35 40 37 36 34 39 44 54 60 63 62 59 55 52 58 58 58 61 62 62 64 65 64 60 60 63 62 60 62 60 54
34 34 45 36 29 28 23 36 26 23 24 22 21 21 23 23 25 27 29 32 32 34 32 34 39 44 52 59 65 64 62 57 52 53 54 55 59 61 64 64 64 62 58 60 62 63 64 63 60
41 50 43 36 28 27 26 32 25 22 20 21 22 22 20 21 22 22 22 21 23 32 32 33 35 37 40 47 56 65 65 65 60 57 56 56 56 58 63 65 64 66 62 60 62 64 66 67 66
52 44 38 35 25 27 29 32 28 23 18 21 23 24 26 28 28 30 30 28 26 24 28 36 34 36 36 40 53 58 64 65 66 65 62 61 61 61 62 67 69 70 70 64 63 66 68 68 69
37 36 35 25 25 26 30 32 28 20 19 27 28 31 31 30 29 31 34 36 32 29 26 27 30 40 38 45 56 61 63 65 66 67 68 67 68 69 67 66 69 73 73 71 70 65 70 72 70
35 35 34 26 26 27 29 31 20 17 21 29 34 36 35 36 37 38 38 38 39 38 34 32 31 30 40 45 45 50 57 63 64 66 68 69 73 74 75 74 71 72 78 79 76 73 75 77 76
33 32 36 36 32 29 31 37 21 24 27 32 33 33 35 38 38 43 45 43 35 34 35 36 34 32 36 44 49 52 58 63 63 66 68 70 70 72 75 76 78 77 79 82 84 82 79 78 79
35 30 30 33 39 47 33 47 28 30 31 35 38 38 37 36 39 44 47 46 41 36 32 32 35 38 38 38 40 50 57 61 58 59 60 61 63 65 66 71 77 79 80 82 86 87 86 82 80
38 31 30 30 36 38 34 41 36 35 38 39 40 41 38 37 41 46 50 46 42 37 36 34 34 34 34 39 43 46 50 52 53 53 54 55 56 57 58 65 73 76 80 82 85 88 90 93 86
31 30 32 36 42 54 41 39 37 39 40 39 38 41 38 37 42 47 45 42 42 39 39 38 37 38 36 35 35 36 36 36 38 41 42 43 46 52 56 62 70 70 71 78 81 85 85 87 93
30 43 58 57 60 59 30 36 36 28 35 34 42 43 42 40 45 49 52 48 45 42 39 39 38 38 38 38 38 39 39 38 38 38 39 39 38 38 38 40 41 56 76 81 86 89 85 82 88
35 42 64 64 63 50 29 40 31 25 33 38 40 43 42 42 48 48 48 46 45 42 40 38 39 39 39 39 39 40 41 41 42 43 43 44 44 44 43 41 39 39 39 50 69 82 82 81 83
35 45 37 45 43 52 47 34 23 32 38 42 44 45 43 42 47 48 47 44 43 40 39 39 38 39 40 44 44 45 46 49 50 50 49 50 47 46 44 42 44 43 43 42 41 43 55 66 73
26 27 41 49 48 48 47 33 39 32 34 36 46 48 46 44 48 49 49 43 40 40 39 40 43 47 49 49 50 52 53 55 54 55 56 56 51 47 47 46 47 47 47 47 49 48 46 47 52
40 36 30 38 47 52 53 43 30 27 29 35 43 46 46 47 49 49 46 41 41 44 47 50 53 57 59 59 59 59 60 61 59 58 55 51 48 48 48 49 49 50 53 56 57 56 57 56 55
35 36 36 48 45 49 49 45 28 39 36 43 46 44 45 49 51 49 44 44 48 54 57 61 62 63 61 57 58 57 59 60 56 53 51 51 55 54 55 54 54 55 55 56 58 60 59 61 62

GFSSGP_925_rhum_006.txt.gz
RH
29 22 21 27 46 59 56 50 36 38 28 18 17 18 21 24 21 20 55 59 56 65 71 75 91 94 90 93 90 87 81 76 70 77 75 89 86 83 80 80 76 75 75 78 81 73 72 76 87
27 23 23 49 53 64 56 40 40 38 29 19 18 22 19 24 44 61 60 55 53 63 67 70 84 97 94 94 90 86 80 79 74 74 86 86 84 84 85 78 80 78 79 86 85 74 73 77 73
27 22 35 48 60 58 54 40 39 30 22 18 17 20 23 23 43 58 50 60 63 65 65 64 86 95 95 90 91 85 83 79 78 75 74 81 80 76 84 82 77 83 84 84 90 78 75 75 72
26 26 33 45 45 41 38 35 31 33 22 16 17 23 27 39 41 41 48 59 64 66 59 67 87 93 92 92 89 84 77 82 76 82 74 78 73 70 80 76 78 82 82 84 83 83 80 78 75
26 34 38 36 33 31 26 25 29 30 24 18 16 25 31 45 44 47 50 56 63 67 62 64 77 82 92 90 91 86 80 81 77 73 76 69 86 72 79 80 78 83 85 88 83 84 83 79 86
39 35 37 37 32 26 23 21 24 28 27 18 19 33 35 44 51 49 51 56 61 66 69 67 70 75 85 88 88 84 82 84 78 78 76 75 80 78 75 79 82 86 93 93 89 83 84 90 90
40 46 42 33 34 26 20 24 31 29 25 20 19 34 41 54 50 47 51 54 58 63 69 77 78 83 88 81 86 79 79 77 76 72 86 84 82 76 89 80 79 91 95 95 90 84 82 86 89
42 43 36 33 31 27 23 31 26 22 21 15 21 31 34 45 48 49 50 52 59 63 66 73 74 81 86 79 84 77 70 68 76 74 82 81 77 75 76 78 73 83 91 92 87 82 76 76 88
35 50 47 33 29 27 27 31 25 23 21 18 33 30 34 36 50 52 51 52 58 70 69 71 71 75 81 81 78 79 67 66 77 74 78 75 75 74 71 72 75 73 76 83 79 79 71 64 68
45 58 49 34 28 35 30 31 28 28 30 22 34 50 52 46 56 58 58 58 59 74 75 69 66 67 72 71 70 76 72 67 75 75 74 75 77 73 72 68 80 77 70 74 77 79 66 58 64
44 52 42 37 36 36 31 30 25 27 28 24 23 44 57 59 61 59 57 56 54 54 61 69 66 64 66 68 64 62 64 64 72 80 76 75 75 74 70 74 81 82 81 80 80 78 69 62 50
50 43 39 38 36 33 29 26 29 27 26 23 24 29 61 62 67 63 60 55 56 55 53 53 61 64 66 65 63 64 68 70 67 67 76 74 71 70 67 74 75 82 81 80 75 70 67 67 55
49 46 41 38 38 33 28 31 31 27 24 24 25 46 60 62 62 56 53 52 50 53 53 53 53 56 62 64 64 62 65 72 65 58 67 68 69 71 68 67 72 75 71 70 69 68 69 70 69
42 38 35 33 31 31 31 31 26 25 23 23 24 40 54 61 59 57 53 51 50 48 47 50 54 54 57 62 63 62 57 59 62 61 66 66 67 71 69 69 68 69 66 64 66 69 65 65 67
37 44 40 35 32 31 26 31 27 24 23 24 24 27 32 46 48 56 51 52 49 44 41 42 48 54 56 58 61 62 59 55 57 56 59 64 65 67 69 67 67 66 67 65 67 72 70 68 69
34 37 45 35 33 32 28 44 30 25 28 28 25 26 25 26 25 26 25 28 34 40 41 38 39 47 52 57 60 62 62 58 55 52 53 58 62 64 67 67 68 67 68 66 65 65 67 65 64
46 51 47 41 32 29 30 36 28 24 22 24 25 23 28 32 35 36 34 30 27 27 34 39 37 41 43 51 54 59 63 62 60 59 55 54 57 58 61 64 63 65 67 68 69 64 66 70 70
54 51 44 41 27 36 34 34 30 26 19 22 28 32 35 38 37 41 40 38 34 31 33 37 41 43 48 50 57 61 65 66 65 65 64 61 59 59 59 60 61 63 67 70 71 71 69 69 74
42 40 41 36 30 32 36 33 31 27 28 32 34 37 38 38 36 41 40 40 38 36 32 31 32 39 45 57 62 66 65 66 66 65 66 66 66 66 66 66 67 67 68 70 74 75 77 76 80
41 43 44 36 29 26 28 30 31 21 28 35 39 40 40 41 45 46 43 40 40 40 39 37 36 38 42 51 58 64 65 68 64 63 66 68 70 72 74 75 76 76 76 78 80 82 82 83 82
46 46 42 40 35 32 32 40 24 27 32 36 36 39 40 44 46 51 52 49 41 39 38 38 42 42 41 51 56 60 65 70 68 67 69 68 71 71 72 74 77 80 82 82 84 86 90 85 82
48 37 35 34 39 45 35 53 31 34 36 37 41 42 42 44 49 54 56 51 45 41 37 36 35 36 38 42 45 50 56 58 59 60 62 60 61 62 65 71 77 82 85 87 84 86 90 92 91
39 34 32 32 40 40 39 45 41 37 41 43 45 43 42 46 53 56 56 50 46 42 40 38 37 37 37 36 36 37 38 40 39 39 39 39 39 40 42 42 47 75 89 92 92 91 93 95 97
36 33 44 47 48 57 45 45 42 44 37 42 44 44 43 48 54 54 50 46 44 41 40 39 39 39 40 41 42 43 44 44 44 44 45 46 46 45 45 44 44 44 51 72 88 93 99 98 96
36 46 61 59 62 61 39 43 38 32 38 34 45 48 45 49 54 56 54 52 46 42 40 40 41 45 44 45 47 49 50 51 53 54 54 53 49 46 43 38 37 38 40 44 48 55 75 91 95
41 45 64 64 70 55 33 42 32 30 35 40 43 47 47 50 53 53 53 50 46 43 43 44 46 49 48 48 50 53 55 56 58 59 58 57 50 46 41 38 36 34 34 36 40 49 53 63 70
37 48 40 50 49 55 49 40 26 45 51 49 52 48 48 50 53 54 51 47 44 47 46 48 51 56 58 59 59 61 62 60 59 56 52 47 44 44 41 40 43 44 47 46 45 54 54 56 61
35 34 46 55 54 53 50 41 41 42 53 53 54 51 49 47 53 55 53 47 49 50 56 58 60 60 59 58 57 57 61 59 56 53 52 51 48 47 49 52 54 57 58 58 57 62 61 63 62
39 39 35 46 53 55 55 47 36 36 45 49 50 50 50 51 55 55 53 52 54 61 63 62 58 55 53 53 53 52 55 55 55 55 54 53 53 55 58 61 63 64 64 59 60 61 60 60 64
38 40 38 48 45 54 52 46 30 37 34 40 47 48 49 52 56 56 58 63 67 68 65 62 60 57 55 55 54 53 55 52 49 43 42 42 48 48 51 59 60 57 52 58 64 62 61 65 58

GFSSGP_925_rhum_009.txt.gz
RH
31 27 22 31 45 59 56 48 41 41 35 22 20 20 20 24 19 21 55 59 56 59 75 76 86 95 95 98 97 91 86 78 71 72 67 81 70 80 84 80 76 73 74 74 78 73 74 71 78
31 25 24 51 55 62 54 43 40 40 35 25 20 21 19 20 44 57 62 60 60 62 70 71 80 92 98 82 94 91 84 79 73 73 80 90 78 78 74 74 78 75 77 81 86 74 72 74 79
29 22 36 53 64 62 54 41 42 34 33 20 19 22 22 21 39 51 50 54 62 66 67 67 79 91 98 95 94 90 84 82 77 75 80 90 88 75 84 82 79 81 81 86 89 79 76 75 74
27 26 36 43 45 42 42 36 28 29 29 21 18 22 28 35 39 42 49 56 62 64 65 66 79 95 98 97 95 89 84 81 78 78 64 91 89 75 80 81 80 85 84 84 85 82 81 81 78
27 33 36 38 35 31 30 26 24 29 31 23 18 21 30 37 42 43 48 61 62 66 66 65 85 93 98 95 94 88 79 81 78 70 75 70 82 75 76 80 80 84 84 87 83 84 89 84 79
40 36 37 37 33 28 26 22 27 26 30 23 18 30 29 41 48 49 51 57 62 64 66 69 88 89 94 96 94 89 83 82 77 76 74 72 73 84 79 86 85 84 89 90 89 84 82 88 89
40 46 41 36 36 28 22 27 33 35 29 24 25 28 35 54 49 48 50 58 63 68 68 72 84 90 90 90 88 90 87 81 82 79 80 76 76 86 86 88 88 89 91 96 96 92 86 84 86
46 46 41 39 33 28 23 30 27 28 24 18 26 27 26 41 47 49 55 58 66 71 71 72 76 82 91 89 86 86 80 74 79 76 75 79 75 80 77 87 78 85 90 96 97 95 91 83 83
39 51 54 41 31 28 29 36 28 25 26 25 29 33 41 40 48 53 56 59 66 76 73 72 77 80 86 88 84 87 82 71 68 77 74 77 74 68 69 70 72 73 79 94 96 97 93 82 72
46 60 52 39 27 34 37 36 31 29 30 26 25 46 51 52 59 60 62 63 62 76 77 78 78 79 82 88 84 84 83 73 63 74 75 76 78 76 71 69 67 71 76 83 92 96 95 87 72
48 54 44 39 34 39 39 37 28 28 30 26 26 26 54 61 65 65 60 57 59 60 70 78 76 75 77 82 80 81 80 73 66 66 74 74 75 74 75 72 69 67 78 81 81 83 85 85 76
50 46 42 40 37 39 40 30 32 30 28 24 26 27 54 63 70 68 61 56 57 58 58 68 72 72 72 73 73 66 65 64 65 62 73 79 76 74 74 72 66 71 75 81 83 84 84 83 78
53 48 44 43 45 43 38 37 34 32 27 26 26 28 51 64 65 58 56 50 51 54 54 56 59 64 67 70 71 66 67 64 63 64 63 64 73 75 71 72 73 72 75 77 83 82 78 75 68
48 48 45 38 38 34 34 35 31 29 27 26 24 25 42 63 61 57 58 58 55 52 49 51 54 55 56 62 68 67 65 63 61 59 59 59 63 69 68 71 73 73 73 71 76 77 75 72 74
41 42 40 39 38 37 31 36 34 28 26 28 28 26 30 39 46 51 52 49 48 45 43 46 49 54 55 54 58 64 64 62 60 55 54 58 61 67 68 68 70 71 72 72 71 71 71 71 71
36 40 47 37 33 34 32 46 35 30 25 28 29 26 31 34 36 35 35 32 31 31 44 46 47 47 52 55 55 57 60 62 61 59 56 55 56 60 65 66 64 64 68 69 71 70 70 70 69
45 54 50 42 33 31 33 40 32 26 25 27 27 31 36 39 44 47 45 42 39 36 33 29 42 47 47 55 59 60 60 62 62 61 59 58 58 58 60 61 59 60 64 68 70 71 74 76 76
58 51 50 48 34 36 35 40 32 28 21 26 33 39 42 45 49 48 45 44 42 38 36 37 42 45 46 55 61 64 66 65 64 64 63 62 62 62 61 60 60 62 64 66 70 73 76 77 79
50 44 43 42 34 34 41 39 33 31 25 32 39 42 44 46 45 47 45 41 40 42 41 42 43 44 47 56 66 70 67 66 66 69 70 70 70 70 69 69 70 70 70 72 77 81 84 85 85
44 46 51 40 35 36 35 39 35 27 28 34 41 44 45 47 52 54 50 43 41 40 40 42 44 47 53 58 66 69 71 71 73 74 75 77 78 79 82 84 84 85 85 85 85 88 91 91 88
50 50 50 43 40 34 38 44 38 28 33 38 38 42 46 51 55 59 57 52 45 44 42 39 38 41 45 59 66 70 70 67 58 58 57 57 59 63 66 69 77 85 95 95 93 92 95 95 91
74 45 43 44 44 51 38 59 42 34 40 42 45 49 51 56 56 58 58 56 49 45 41 41 41 40 40 39 40 42 47 51 51 48 46 44 46 46 46 46 47 49 68 95 99 99 100 100 98
55 37 41 42 42 43 42 52 46 37 44 46 48 49 53 57 57 59 60 53 48 44 43 43 43 44 44 43 44 45 48 50 51 50 49 48 46 44 39 36 35 36 38 42 49 70 98 95 97
36 37 45 51 52 62 50 48 46 46 36 44 46 49 54 60 61 60 54 48 47 45 45 44 44 48 48 49 52 54 55 56 56 57 56 53 46 42 39 36 35 36 40 45 46 45 48 60 83
39 47 65 64 67 67 45 52 37 31 35 37 47 50 53 59 61 59 59 55 50 48 47 49 49 55 54 53 56 58 60 60 60 58 53 49 46 44 42 38 37 38 42 46 51 50 47 53 59
47 47 65 64 72 58 46 49 35 35 38 38 43 48 52 58 61 60 59 54 53 50 52 56 56 58 56 58 61 60 59 57 54 53 52 51 50 48 47 44 46 50 52 56 59 57 58 63 62
41 51 44 53 55 64 54 45 33 48 52 52 52 52 54 56 61 60 57 55 54 57 61 59 56 57 56 56 56 58 56 56 56 54 50 46 44 46 43 44 52 54 57 57 55 62 65 65 66
37 39 50 60 62 60 54 49 46 42 52 57 58 54 53 54 60 61 60 59 61 64 64 57 54 54 54 52 53 57 56 52 47 42 38 36 37 39 42 46 54 56 57 52 56 64 64 64 66
38 39 44 50 58 57 60 50 37 33 51 56 54 51 52 55 61 62 65 62 67 67 63 58 55 53 54 55 52 53 46 40 34 28 24 24 25 30 38 44 48 47 45 52 63 54 56 66 63
39 40 40 53 48 57 58 50 36 44 45 53 53 50 52 53 60 64 68 72 73 70 61 57 54 52 52 48 48 43 37 26 17 16 18 19 24 23 30 32 38 36 42 48 57 45 61 55 54

GFSSGP_925_rhum_012.txt.gz
RH
33 27 22 32 44 60 55 48 43 41 38 26 23 22 22 23 18 23 49 55 55 59 67 75 89 91 92 88 95 95 89 78 74 73 70 73 67 71 82 75 74 80 76 71 73 70 69 69 68
32 24 25 52 56 59 52 45 42 35 35 38 23 22 21 20 42 48 56 55 57 60 69 73 85 90 95 82 88 94 89 83 75 75 74 83 80 68 72 74 74 77 75 78 85 76 71 73 73
30 22 36 57 67 59 51 42 44 36 31 30 19 21 21 21 33 45 46 51 58 64 68 69 80 87 90 85 84 94 88 83 78 75 78 86 88 74 68 71 81 80 80 82 87 82 77 78 76
27 25 34 40 44 44 45 37 27 28 28 28 18 21 26 27 35 40 45 52 56 64 66 65 71 85 96 90 90 94 87 85 78 78 84 76 85 81 71 80 82 84 86 86 85 89 86 82 82
26 33 34 37 36 32 32 27 23 31 32 30 19 19 27 33 44 41 47 52 52 63 66 66 69 86 96 97 98 95 88 83 78 75 78 77 78 70 76 82 79 82 86 85 86 82 87 89 84
42 35 38 34 31 29 28 24 29 33 32 32 20 25 26 37 49 48 50 52 59 59 65 66 71 86 91 97 98 95 85 83 80 78 76 71 70 80 75 83 85 85 86 88 89 87 83 83 88
41 45 44 36 38 33 24 30 28 33 34 26 22 24 25 40 45 51 52 59 63 66 68 66 77 86 89 91 93 90 88 84 82 78 78 73 73 76 86 88 90 91 88 87 97 95 93 88 85
46 48 45 43 37 30 22 35 28 30 31 25 27 26 23 35 47 51 54 60 66 71 72 70 77 86 88 90 90 89 87 83 76 79 80 78 75 75 79 80 84 89 91 86 85 96 96 94 90
39 53 58 44 36 29 29 39 32 27 30 28 26 31 35 44 49 56 61 63 70 74 75 76 77 84 90 91 92 88 88 85 80 75 77 78 76 72 64 66 72 75 77 92 92 90 95 93 90
48 62 54 41 30 30 36 40 36 32 32 28 25 33 44 44 58 63 66 66 65 70 72 76 79 82 88 89 91 90 88 90 83 69 77 77 75 76 76 75 72 74 76 80 89 94 91 89 93
50 57 47 41 36 34 43 44 35 30 34 29 26 26 35 54 62 68 61 57 56 57 67 70 72 81 87 85 85 86 86 89 84 75 68 77 77 74 76 78 79 75 74 73 81 85 84 86 86
51 47 43 41 38 40 45 38 38 34 32 27 28 28 32 54 65 68 66 61 58 56 55 62 67 77 80 80 81 76 79 78 74 71 64 64 70 74 74 75 73 72 70 70 75 78 81 83 81
57 51 46 45 48 48 44 44 39 35 31 28 30 29 30 47 61 60 58 57 54 54 50 54 57 69 73 75 74 74 70 68 62 64 62 62 62 62 64 67 69 68 70 70 69 70 71 74 74
54 53 52 47 45 41 38 40 34 32 29 29 28 29 29 40 58 57 54 51 52 50 48 49 52 57 61 65 69 68 67 65 66 63 61 65 66 64 57 63 67 68 68 71 72 72 72 73 75
46 49 45 39 38 41 40 40 40 32 27 29 30 33 29 30 38 45 46 46 41 37 36 48 51 53 56 56 58 62 64 66 63 62 63 61 62 61 62 63 67 66 66 68 71 73 75 75 74
45 41 52 41 34 34 34 36 33 32 31 30 30 34 39 46 52 51 47 43 38 36 35 30 36 50 52 53 55 56 58 61 64 63 63 64 63 62 62 63 63 62 65 69 71 72 74 75 77
47 61 53 47 34 36 38 46 30 28 28 28 28 35 42 49 53 51 49 47 43 40 40 37 38 45 51 53 56 60 60 60 60 64 66 67 67 65 64 64 64 65 67 70 72 75 80 81 84
72 55 50 53 36 37 40 44 33 31 24 27 29 39 48 54 57 53 47 46 47 44 43 45 45 46 51 57 62 65 68 69 69 70 70 70 71 72 71 71 72 73 75 78 80 82 84 87 86
57 50 56 43 36 36 42 44 36 32 30 29 36 43 50 54 52 52 46 42 42 42 44 46 48 54 52 66 74 74 74 72 77 81 83 84 85 87 89 89 90 91 92 92 92 92 93 94 93
47 50 52 50 38 38 42 43 37 37 31 30 40 48 50 54 58 58 51 46 45 44 41 42 44 51 62 67 76 77 79 80 60 56 55 59 60 60 61 62 64 68 78 87 97 98 100 98 93
56 60 58 60 47 41 45 47 41 32 34 41 43 46 50 56 60 61 60 54 48 47 44 41 40 40 43 53 59 61 49 47 47 50 51 50 47 43 41 40 39 40 41 52 63 87 100 99 96
87 55 48 47 50 59 42 62 48 36 40 45 51 56 59 61 58 60 60 58 53 50 47 45 45 45 45 43 43 46 54 59 60 56 52 47 44 41 38 36 36 37 41 45 50 50 56 75 94
73 47 50 47 51 48 46 55 49 38 45 48 54 56 60 63 63 64 63 58 55 50 50 49 49 50 51 51 52 54 58 59 56 52 48 45 42 41 39 37 36 36 40 45 52 53 52 54 72
47 42 45 55 54 68 52 50 52 44 42 45 48 54 59 65 65 64 58 54 54 52 51 50 50 57 55 54 56 57 58 56 53 52 50 49 46 43 41 38 38 41 45 49 53 52 47 56 63
47 49 64 68 70 72 49 57 49 36 36 39 47 54 61 67 68 66 64 62 57 57 56 55 54 62 60 58 58 58 58 58 58 54 51 46 43 42 41 36 38 43 45 49 47 49 53 58 66
55 54 68 68 74 61 52 57 39 36 50 42 44 49 61 68 67 65 66 62 60 63 61 57 55 57 56 56 56 55 53 51 47 43 39 34 34 36 27 22 22 29 32 37 46 55 59 62 64
49 56 46 60 59 70 61 47 39 44 53 53 55 54 63 67 68 66 67 62 65 67 64 58 55 56 56 55 55 51 46 41 35 28 21 16 15 18 17 21 24 24 24 27 37 61 56 49 64
44 43 53 62 64 68 61 51 50 35 42 54 59 58 61 64 66 68 70 69 72 68 61 56 55 56 54 52 50 44 37 28 20 14 12 14 16 18 21 21 23 23 22 25 32 62 40 51 70
40 46 51 54 62 61 63 50 41 38 39 55 59 54 60 64 67 70 72 75 76 67 60 57 54 52 48 49 43 36 25 15 12 12 14 15 16 19 21 22 23 23 25 26 34 46 40 52 58
38 42 44 60 56 63 62 54 35 48 54 56 58 55 56 58 66 73 78 82 75 67 59 53 51 47 45 45 35 22 14 12 11 13 16 19 20 18 21 20 22 24 28 32 38 36 40 55 50

GFSSGP_925_rhum_015.txt.gz
RH
34 27 22 31 40 49 49 44 42 37 35 29 26 22 20 21 19 23 42 54 51 56 56 82 91 88 92 91 86 86 90 84 79 75 69 72 73 72 69 76 71 75 69 71 74 77 67 67 68
36 24 25 49 47 47 42 42 43 35 26 30 27 24 22 20 32 38 49 50 52 56 60 64 87 88 86 78 70 76 87 84 77 76 72 76 83 70 69 72 73 73 73 75 80 79 70 74 69
33 20 37 53 58 46 42 40 36 27 24 28 21 20 20 20 26 38 43 51 55 60 64 65 83 86 79 81 73 80 88 90 80 76 80 83 79 78 72 70 74 75 80 78 81 85 76 80 74
26 24 30 33 41 41 43 36 28 25 26 31 20 20 22 25 33 41 46 53 55 62 65 67 71 82 78 86 80 83 88 87 84 78 81 88 84 75 70 77 74 77 78 87 86 86 87 84 83
25 32 32 32 33 31 30 28 24 30 30 28 20 21 23 32 42 39 48 54 54 61 66 63 65 75 90 83 85 85 89 88 80 81 77 82 86 69 71 77 75 81 87 86 86 85 82 87 88
42 34 39 42 30 27 26 24 28 30 31 30 22 22 22 36 46 43 52 57 57 58 62 62 62 79 84 87 90 89 91 88 83 80 76 77 83 75 83 78 83 88 86 87 86 88 88 85 84
44 45 47 38 38 35 25 30 28 30 31 26 22 25 22 34 48 51 57 64 64 66 64 63 63 86 87 89 88 90 94 88 85 79 82 79 73 72 81 85 89 93 91 82 81 83 83 90 90
42 45 47 44 41 33 22 32 30 29 28 25 24 25 24 33 45 53 57 69 72 72 70 67 66 81 91 96 88 88 87 86 82 78 77 77 74 74 74 79 83 90 94 91 82 78 79 83 82
40 49 53 46 39 34 26 37 33 29 29 28 24 29 30 40 47 58 62 67 76 79 77 73 71 78 85 91 90 90 86 84 84 81 76 80 82 79 74 68 68 72 76 88 94 86 92 82 81
47 58 53 42 34 31 31 40 37 35 32 29 25 25 31 39 54 59 61 61 70 75 74 74 75 76 81 89 89 92 93 95 93 87 76 79 80 77 76 76 75 76 71 71 69 75 82 83 92
51 56 50 42 37 32 39 43 38 34 38 30 26 24 26 38 46 58 60 62 60 55 64 65 69 73 78 84 84 89 92 90 90 88 81 69 73 77 76 74 72 73 72 71 67 67 72 76 85
52 47 44 42 39 42 44 41 41 36 31 28 27 28 29 26 30 43 58 60 55 53 50 53 62 69 74 81 83 79 85 83 82 77 78 74 67 68 72 74 73 73 68 67 67 66 66 69 71
56 50 48 44 46 49 47 47 42 37 31 28 30 31 29 27 30 48 58 56 54 54 50 51 54 60 70 79 76 76 77 75 72 69 69 69 67 67 66 67 64 65 67 67 68 71 74 75 77
55 51 46 49 46 45 43 41 39 33 31 29 29 28 28 29 35 56 58 59 56 54 53 52 53 55 60 70 69 71 71 67 69 68 66 68 68 69 70 67 63 62 66 70 73 76 80 86 90
54 56 49 45 40 39 42 42 44 31 33 29 28 28 33 40 45 48 50 43 39 36 36 33 32 51 56 59 62 68 67 68 68 66 69 71 72 72 72 70 67 67 68 72 75 75 77 78 83
54 47 66 48 37 35 33 45 31 31 34 32 28 32 43 48 52 55 51 47 43 40 41 37 32 37 55 57 58 64 66 69 70 73 76 76 76 75 75 73 70 68 70 73 75 80 85 88 85
52 76 60 53 41 41 39 42 34 29 29 28 26 36 42 46 49 55 52 50 46 45 46 45 45 44 58 62 64 69 72 73 73 74 74 74 73 74 74 74 75 77 81 84 88 91 95 92 91
65 66 54 53 41 41 40 42 34 31 33 30 27 40 46 50 52 56 51 49 48 48 50 54 46 52 57 63 66 70 73 80 84 85 86 86 88 90 91 91 92 92 91 94 97 99 97 96 93
55 58 58 54 38 38 41 42 34 31 33 33 33 44 48 50 53 56 51 45 44 43 45 56 60 64 65 68 72 81 93 85 68 64 61 60 60 60 56 56 56 55 77 86 91 94 93 92 94
56 56 55 50 41 39 43 41 34 35 35 31 34 46 48 51 51 55 57 50 47 45 43 43 49 64 73 76 84 85 67 60 54 52 48 45 42 40 38 37 37 38 48 56 64 73 78 80 80
62 63 62 60 50 43 45 44 40 33 33 40 41 47 49 50 52 55 56 60 53 52 48 45 43 42 46 64 50 47 49 52 54 51 48 46 42 39 37 36 36 36 39 55 62 68 71 68 62
82 56 55 54 62 67 42 56 47 36 36 44 50 52 52 55 56 56 57 59 60 58 52 49 47 47 47 45 47 52 64 66 66 54 48 44 42 40 38 36 36 39 48 58 63 62 68 67 65
74 61 59 56 57 50 49 51 43 40 39 46 51 56 58 57 56 59 61 63 60 56 56 54 52 53 52 51 51 52 57 56 50 46 43 41 39 36 32 28 28 32 46 53 56 59 64 68 73
46 47 48 50 49 62 52 47 46 39 35 47 50 55 58 59 60 60 63 62 62 61 58 56 55 59 55 51 51 50 50 50 49 46 47 49 47 46 25 18 26 41 47 53 54 60 65 69 70
56 66 98 78 65 65 53 55 42 38 35 39 44 50 58 60 62 61 61 64 68 65 62 60 57 60 54 51 51 50 47 43 41 40 40 32 34 38 24 18 24 39 37 41 44 45 65 61 62
81 69 68 70 71 59 56 56 36 34 45 44 42 47 60 62 62 61 62 67 72 68 63 60 59 60 55 51 47 42 37 31 25 19 19 30 36 38 20 16 22 22 22 25 35 42 65 43 58
77 85 48 62 62 66 59 48 37 39 47 51 52 53 61 63 64 63 66 68 76 72 64 59 58 58 56 48 41 33 26 19 14 11 10 13 18 28 14 13 12 13 16 27 36 40 48 42 44
57 49 70 60 65 69 61 53 47 36 38 55 57 55 62 64 64 65 65 76 80 68 62 59 54 54 50 42 33 25 18 12 9 9 10 12 13 14 15 15 18 27 32 34 34 38 40 37 43
56 67 57 53 61 61 58 45 40 38 39 44 55 55 59 62 63 66 69 82 78 65 59 56 50 48 44 35 26 18 13 11 10 10 12 14 15 17 21 25 28 31 30 31 34 34 34 39 46
43 49 47 58 60 62 57 49 37 48 48 51 56 54 56 59 64 67 78 83 73 65 56 51 46 44 38 28 19 14 12 11 11 14 16 17 18 20 21 22 28 31 32 34 33 35 40 46 50

GFSSGP_925_rhum_021.txt.gz
RH
36 29 25 24 24 20 20 17 20 27 26 18 17 19 19 16 17 23 32 38 39 42 52 83 89 92 93 86 84 75 76 77 77 79 69 68 73 76 67 75 78 80 72 76 81 88 84 76 80
38 27 20 21 23 22 16 14 23 22 20 17 17 17 18 17 13 22 27 39 40 41 49 66 83 92 83 79 77 71 77 81 78 76 73 72 80 81 78 72 72 78 81 77 76 80 81 84 83
32 23 21 23 21 20 21 19 18 20 18 19 20 15 14 16 16 20 33 41 42 43 47 66 81 87 81 78 72 75 76 82 82 77 78 83 84 89 72 71 78 72 71 84 82 78 74 81 71
27 20 18 26 25 16 19 22 20 19 18 18 18 20 14 20 20 30 37 39 39 42 46 76 75 85 80 70 79 75 80 91 86 82 77 82 86 91 84 72 64 71 75 86 84 84 77 79 88
26 22 26 27 25 18 10 14 16 20 20 19 19 21 18 24 30 32 38 40 38 42 48 78 73 84 80 79 82 80 85 80 83 81 74 75 86 92 89 84 76 77 79 87 88 84 86 86 82
30 24 30 28 24 21 18 12 15 18 18 18 19 20 22 25 30 37 40 39 40 45 51 62 74 78 80 84 84 81 83 78 80 74 73 77 80 90 84 85 82 81 79 82 79 75 77 84 80
34 30 32 25 22 25 22 13 16 18 19 18 17 20 19 23 30 40 41 39 44 48 52 55 65 75 70 88 78 74 78 77 79 84 69 79 79 77 74 74 78 85 84 76 72 82 91 93 94
29 28 34 28 26 25 21 16 14 20 19 15 15 20 20 24 30 40 43 40 43 50 51 51 55 65 76 81 76 74 78 80 77 78 73 68 71 67 69 69 71 76 72 67 69 65 78 93 91
30 36 36 30 27 23 19 23 18 20 22 18 16 16 17 19 27 33 38 40 40 45 50 50 52 56 61 61 77 76 77 79 82 80 77 73 70 63 67 67 68 63 62 64 66 68 65 66 65
39 39 33 23 21 23 21 25 26 27 23 20 18 14 15 15 17 18 22 28 38 40 46 51 53 54 59 59 65 73 70 77 79 71 63 69 54 54 63 68 66 65 63 66 65 67 66 69 79
39 42 28 24 22 23 24 26 23 28 30 23 20 18 17 17 17 15 16 20 24 33 38 46 50 53 55 59 61 60 61 60 59 58 58 56 53 53 58 61 64 72 66 74 67 68 69 65 62
43 33 30 26 25 29 31 25 28 26 27 22 22 21 20 20 15 14 15 17 23 29 32 39 45 50 53 56 62 57 58 60 59 58 59 59 58 58 57 55 57 62 64 62 64 64 62 63 64
44 34 28 27 26 29 28 30 30 29 23 21 20 20 21 21 17 15 16 24 26 30 34 38 41 46 49 55 56 58 57 61 59 64 63 62 61 59 56 58 60 61 63 63 64 65 64 64 63
43 35 32 28 29 28 32 30 29 26 22 21 20 19 18 18 18 20 23 27 30 33 36 39 42 43 46 50 56 57 59 59 63 63 66 68 68 67 67 68 66 66 66 65 66 66 67 68 66
45 47 36 33 30 31 29 36 34 24 22 20 15 14 15 19 23 24 29 30 31 31 31 32 34 37 45 47 53 58 61 64 63 66 67 71 72 72 73 72 72 69 67 68 68 69 70 71 70
47 58 66 36 31 30 33 45 27 19 20 18 16 15 19 24 24 28 31 32 32 34 36 42 46 39 39 50 54 59 61 64 66 67 68 70 70 71 73 72 69 71 73 75 76 73 67 63 62
60 65 63 51 29 30 34 40 25 20 20 19 17 15 19 24 25 30 32 34 34 37 39 48 47 48 48 56 60 62 65 64 66 67 68 73 74 77 77 75 70 64 63 59 58 53 53 52 50
66 61 55 53 31 33 36 35 27 23 20 20 18 14 19 23 26 31 34 36 40 44 47 54 57 59 61 62 61 63 67 68 64 60 58 53 50 51 52 48 44 44 44 42 42 41 42 42 39
46 49 50 36 26 30 32 33 26 21 21 21 19 16 19 24 29 32 35 36 39 45 51 54 54 56 56 58 60 58 57 55 52 48 45 44 44 44 44 43 41 42 41 41 44 44 47 45 44
52 48 43 30 28 33 33 31 26 23 23 23 20 17 19 28 29 31 32 32 33 37 44 54 58 61 62 56 55 52 51 50 51 50 47 43 41 42 41 44 43 43 43 43 44 42 43 42 39
61 53 37 35 32 34 35 38 33 27 24 21 18 16 20 28 29 31 32 37 38 40 42 47 48 48 52 52 52 50 50 48 46 44 45 44 41 37 36 38 37 37 37 36 36 34 35 37 35
71 38 37 35 46 49 36 42 25 22 24 23 20 19 23 27 27 29 34 40 44 47 47 46 46 46 46 45 45 44 44 43 43 42 42 41 42 37 31 31 32 32 30 30 31 28 31 31 36
50 38 38 39 43 50 52 51 30 22 24 23 21 22 26 28 28 33 37 42 48 51 51 48 47 46 44 42 41 41 41 42 40 38 36 34 32 32 30 27 27 27 28 29 30 30 31 35 39
49 43 44 44 48 70 45 42 29 26 22 19 22 26 28 29 31 36 42 47 54 55 52 48 46 45 44 44 43 42 39 38 37 35 31 28 26 28 28 25 23 24 27 28 27 29 33 41 47
55 62 92 83 76 51 30 38 27 22 22 21 25 28 30 31 35 41 44 46 51 53 51 46 44 43 42 40 39 39 38 36 33 29 27 25 24 24 25 24 22 23 25 24 24 28 33 36 39
73 61 49 64 54 40 34 41 27 21 22 20 23 28 30 33 36 40 41 45 50 52 47 45 44 42 39 37 35 35 34 31 27 25 25 23 23 22 22 23 21 21 22 22 23 26 28 26 27
69 54 38 39 34 35 37 30 23 23 28 26 24 30 33 34 37 38 41 45 50 49 48 48 45 42 38 34 31 29 27 26 25 23 23 24 22 19 20 21 20 20 21 21 22 23 24 23 25
56 38 56 41 48 44 34 29 29 26 24 28 26 31 34 34 36 37 41 45 47 48 48 47 43 40 36 33 30 27 24 22 21 22 22 21 20 19 20 20 20 20 20 21 22 23 23 24 25
71 58 54 39 38 37 37 29 21 23 24 25 27 29 33 35 37 39 40 46 48 49 48 45 42 38 34 32 29 27 24 22 22 21 20 20 19 19 20 20 21 21 22 22 23 24 24 24 28
57 54 48 47 49 35 33 32 21 23 27 26 26 29 32 35 36 38 41 48 48 48 44 43 42 37 34 30 27 26 25 24 22 21 20 20 20 20 21 22 23 23 24 25 26 26 25 27 31

GFSSGP_925_rhum_024.txt.gz
RH
30 34 27 26 44 36 34 25 16 26 25 20 19 21 24 21 21 42 34 36 41 53 80 88 88 87 84 76 76 70 73 77 79 78 69 67 68 74 74 74 69 70 74 78 82 88 88 91 91
33 32 24 37 38 34 30 17 25 24 22 19 20 20 20 20 24 35 39 38 39 46 69 91 89 90 75 72 77 68 76 81 78 75 73 72 77 76 78 72 76 78 81 82 75 83 85 84 86
34 27 35 41 41 32 26 25 27 21 19 19 21 16 17 26 28 32 39 40 40 42 59 76 78 90 76 76 70 66 80 81 81 73 74 81 84 85 70 73 68 65 64 76 83 84 79 86 82
32 30 30 36 38 29 16 17 23 20 20 18 19 24 24 28 30 34 38 38 40 43 59 76 75 81 81 78 73 70 82 87 82 80 67 81 86 84 78 73 67 74 74 74 86 84 78 56 53
28 36 41 39 32 25 14 11 18 19 22 21 20 25 29 28 30 34 37 37 39 44 59 69 75 83 80 83 74 79 80 81 75 70 71 84 87 89 90 80 79 78 76 79 85 82 81 81 75
42 35 44 42 29 21 18 16 12 16 19 20 20 22 33 30 36 38 38 37 39 44 58 62 71 80 73 82 79 79 78 75 71 60 82 82 79 86 91 86 81 79 75 82 83 84 92 94 94
46 44 45 38 31 25 22 14 14 18 21 21 18 22 31 31 36 38 38 38 42 47 52 62 58 72 74 83 81 79 73 73 71 67 67 84 77 77 74 72 70 71 73 82 83 76 86 93 96
40 40 43 37 37 33 21 18 13 17 22 20 16 23 30 28 34 40 41 39 43 48 50 56 62 62 70 80 82 75 73 74 72 73 68 61 69 67 61 67 68 72 72 58 54 58 62 80 87
38 53 52 40 35 31 20 22 18 19 24 22 19 18 21 22 30 36 39 39 40 46 48 49 55 64 73 74 68 71 74 76 79 77 69 70 57 65 67 72 72 69 62 59 59 58 56 53 53
51 59 50 31 27 27 22 24 25 27 28 26 23 19 15 16 18 19 28 39 39 41 46 50 50 54 60 62 75 76 77 75 72 70 74 67 60 60 64 66 64 63 63 64 66 67 68 70 67
51 60 41 31 26 24 25 28 24 29 34 29 28 26 24 22 20 19 17 18 32 38 42 47 51 52 57 59 61 72 68 70 71 69 62 58 55 53 54 60 62 63 66 66 66 67 67 64 65
55 43 38 34 29 28 32 28 31 29 31 26 25 24 25 25 23 21 17 16 19 32 36 42 46 51 53 58 60 60 60 60 59 58 58 59 59 58 57 56 56 59 62 62 62 64 65 65 64
56 45 35 31 30 29 29 35 34 32 27 25 24 25 27 25 24 19 16 20 23 27 32 36 42 44 52 53 58 59 57 59 60 61 62 61 60 60 59 60 61 62 63 64 65 66 67 66 67
46 48 43 36 30 29 33 34 34 31 26 27 26 26 23 22 22 21 20 24 28 30 34 36 39 42 46 51 55 57 58 59 61 62 66 68 69 69 69 70 69 67 68 66 66 66 71 73 74
40 55 47 45 35 34 31 38 38 30 28 28 27 22 19 19 22 24 29 30 30 31 31 34 36 41 43 45 54 57 59 60 62 65 66 70 72 73 75 75 72 73 71 70 72 72 68 65 62
60 57 74 49 46 33 37 50 36 29 28 28 25 18 20 26 24 27 30 31 33 33 34 39 40 35 40 46 53 58 60 64 64 66 67 68 69 71 75 72 74 68 68 62 59 50 48 49 48
72 82 68 62 43 38 37 46 34 29 27 28 23 21 23 30 28 30 32 32 34 36 42 48 43 40 40 52 58 61 64 65 68 70 70 70 70 70 63 51 48 45 45 42 42 41 43 46 45
78 82 61 66 51 43 44 39 35 29 27 26 25 21 25 32 32 32 33 37 42 45 53 55 56 54 60 63 63 66 66 58 57 55 48 45 46 46 44 42 42 41 42 43 45 44 45 44 45
57 59 62 48 38 45 45 39 35 30 30 30 28 25 25 33 36 33 36 41 48 52 55 59 61 62 61 63 66 58 53 49 46 44 43 42 41 41 40 42 42 41 41 42 41 40 38 37 38
67 75 71 50 38 42 41 37 34 30 29 26 26 26 26 38 39 36 35 37 45 55 59 60 62 58 58 56 56 54 52 51 48 43 42 39 36 36 35 33 35 34 33 34 33 32 34 35 34
60 76 72 79 41 35 39 46 40 30 26 26 26 26 28 37 40 40 41 40 42 49 50 55 58 54 53 51 51 49 50 48 46 45 42 41 36 29 27 28 27 30 29 30 29 29 31 34 33
71 58 63 77 56 67 43 66 42 34 31 29 30 27 34 35 37 40 47 48 47 47 47 48 48 50 50 50 51 49 44 44 43 42 40 37 34 30 24 25 25 26 27 28 27 28 30 35 41
63 56 76 72 73 70 60 63 50 34 32 31 29 27 35 35 37 45 53 50 52 50 49 47 45 44 43 42 42 43 43 40 38 36 33 29 30 28 26 24 23 24 25 24 26 26 30 36 41
61 68 85 86 68 86 56 65 51 36 31 30 28 30 35 35 41 50 51 54 56 51 47 46 45 44 43 42 41 40 39 38 34 30 28 26 25 25 24 23 22 22 23 24 24 25 24 30 32
69 90 99 100 99 89 50 55 46 26 24 25 28 36 36 38 46 55 62 64 58 53 48 45 44 42 41 40 39 38 35 32 29 26 25 24 24 23 21 22 21 21 22 22 22 23 23 27 27
87 95 92 97 91 59 38 58 41 27 25 25 30 35 38 41 49 54 60 59 57 52 45 43 41 39 37 36 35 34 30 27 25 24 24 23 22 20 19 20 20 20 20 20 21 22 23 24 25
87 99 76 52 38 51 49 34 26 32 32 29 35 38 41 43 51 52 58 57 55 49 46 43 40 37 33 31 28 26 25 24 23 23 23 22 20 20 20 20 19 19 20 21 21 22 24 24 24
85 70 71 66 59 63 54 46 42 37 39 32 38 42 42 44 48 50 55 56 51 49 48 43 40 35 33 30 27 24 23 22 22 22 20 20 19 19 19 20 20 21 22 22 23 25 25 25 25
97 85 64 52 50 61 58 45 32 31 34 35 36 39 42 44 46 50 54 52 50 49 48 42 38 34 32 30 27 25 24 23 22 21 21 19 19 20 20 22 22 24 25 25 26 27 27 27 27
68 60 57 55 65 56 46 45 28 32 30 34 33 38 40 43 45 50 54 53 51 50 46 41 37 34 31 28 27 26 25 24 22 21 21 21 21 22 23 24 26 27 28 28 28 28 28 29 37

GFSSGP_925_rhum_027.txt.gz
RH
28 26 32 30 39 45 42 32 19 30 27 22 20 21 24 25 27 44 39 47 50 66 75 90 88 77 72 77 74 65 72 78 80 74 70 68 74 77 79 76 75 73 73 81 82 89 86 92 92
31 31 30 40 39 38 36 24 30 27 22 20 21 20 23 27 35 47 41 47 51 58 69 89 85 72 73 78 76 66 71 78 82 75 71 69 70 74 79 78 80 76 71 82 82 78 84 85 81
36 35 40 46 51 44 30 22 26 21 20 21 23 20 24 34 36 41 39 42 52 61 64 83 84 77 76 71 75 68 73 77 80 70 77 76 78 77 68 80 68 70 66 65 77 77 69 84 79
40 37 40 40 43 34 28 18 22 20 21 22 22 26 34 32 34 39 39 41 46 62 63 69 78 83 77 76 79 68 76 79 74 72 70 78 79 83 75 74 71 75 72 69 69 63 60 53 49
38 48 49 47 43 34 27 13 18 19 21 22 21 25 36 35 37 38 38 41 43 61 67 77 77 78 77 84 77 73 80 84 63 68 76 83 81 90 83 67 75 79 76 75 80 83 80 84 82
52 49 57 57 46 33 26 17 14 16 18 22 22 24 37 39 36 39 38 40 46 57 66 73 82 80 81 82 79 79 80 76 62 72 82 73 78 81 91 85 79 78 75 84 88 85 90 95 93
59 62 62 51 47 39 28 16 17 18 24 24 22 27 35 37 39 40 38 41 48 53 58 56 78 81 79 80 81 80 81 73 66 60 75 78 75 74 76 78 70 69 81 82 87 86 87 90 95
58 60 60 55 49 44 27 18 14 18 22 21 19 28 36 34 38 41 40 39 47 51 54 56 53 73 71 75 80 81 77 73 70 66 54 61 68 67 66 61 64 68 71 64 57 60 64 66 58
56 74 73 61 49 39 29 23 20 21 24 24 22 21 24 29 37 41 41 42 45 50 53 55 56 53 58 66 76 77 74 75 73 71 63 64 55 51 63 71 74 71 63 57 54 57 59 64 66
74 84 68 45 40 36 31 27 25 28 30 29 28 25 23 31 39 44 45 44 44 48 50 54 57 60 64 72 71 70 74 69 68 66 62 68 61 64 67 69 65 62 65 65 66 66 67 68 66
69 79 55 45 38 35 33 30 26 29 33 32 30 29 26 24 25 22 22 39 40 43 48 50 55 56 61 79 76 75 72 72 70 71 69 67 68 60 58 59 60 61 62 63 64 65 66 66 66
80 62 58 49 44 41 37 30 32 32 33 29 31 30 28 29 28 25 23 19 24 41 43 48 50 54 58 62 63 62 69 70 69 68 68 66 60 59 58 57 58 60 63 64 65 66 66 67 66
70 57 52 46 43 40 36 38 37 35 32 29 28 29 31 32 30 24 21 21 23 37 42 45 48 52 54 60 61 63 68 65 62 61 60 60 61 62 65 66 66 67 66 67 67 69 69 68 70
50 52 53 52 48 39 38 39 38 36 31 32 31 32 31 30 28 25 23 24 30 31 38 43 45 48 52 55 60 59 60 57 60 61 63 68 67 69 70 71 71 70 69 72 72 73 69 66 62
58 60 49 46 52 52 44 45 45 36 33 34 32 33 29 23 26 29 31 32 32 34 38 41 42 44 48 53 56 59 57 58 60 63 62 70 72 74 76 74 71 70 68 66 63 54 52 51 47
69 73 76 50 52 50 45 59 42 35 37 39 35 36 30 30 31 32 31 31 32 33 33 34 37 41 44 47 56 58 59 63 67 69 70 72 70 73 72 62 54 48 46 47 46 41 39 42 43
88 90 84 68 51 52 53 58 40 37 36 37 38 35 29 36 39 34 32 32 33 35 40 40 38 36 42 53 64 63 67 67 68 67 65 64 66 52 56 49 42 42 42 41 42 41 41 36 37
77 89 81 84 55 56 60 60 45 38 37 36 38 32 33 39 41 35 34 37 41 46 49 48 43 42 64 63 64 66 65 62 62 56 55 55 48 46 42 38 37 37 40 39 36 32 27 29 32
68 76 80 66 51 56 55 55 49 42 37 43 37 34 36 43 44 39 42 47 52 57 58 59 64 66 65 66 63 59 50 49 48 46 42 38 35 34 34 32 28 27 31 32 27 27 26 23 30
75 84 84 65 57 57 56 58 45 39 38 34 37 36 44 49 49 50 45 52 61 64 63 65 65 66 66 64 60 54 48 45 42 38 35 33 30 27 25 25 25 24 25 24 24 28 28 30 35
74 83 79 70 62 61 64 64 54 42 35 35 34 31 39 46 49 53 55 55 56 61 61 60 62 64 61 59 54 50 46 43 42 41 39 34 29 26 24 23 22 22 22 22 23 26 30 39 35
76 54 54 60 72 86 58 92 60 45 40 36 36 38 41 46 47 51 58 58 52 53 56 56 54 54 54 53 49 48 48 47 45 41 36 32 29 27 22 21 22 22 22 20 24 24 28 25 38
69 52 60 61 76 84 76 83 65 44 46 37 32 45 45 46 47 56 60 60 54 51 50 52 52 51 50 50 48 44 44 43 39 34 32 30 27 25 22 20 21 21 21 22 22 23 23 24 36
55 65 69 69 77 97 81 90 73 53 40 37 35 45 45 47 54 61 64 60 55 48 46 45 45 46 46 45 43 40 38 34 31 28 26 25 24 23 20 19 19 20 20 21 21 22 21 24 24
70 84 90 97 96 85 73 82 72 39 33 33 37 45 45 51 61 68 70 67 59 50 47 45 43 43 42 41 40 38 33 30 28 26 25 24 23 20 19 19 18 19 19 20 20 21 22 22 25
83 81 87 87 73 69 73 99 56 39 32 32 38 42 48 59 64 70 70 68 60 52 47 43 41 40 38 37 34 31 29 27 26 25 24 22 20 20 19 18 18 18 19 20 21 22 23 24 25
75 92 62 94 97 80 71 52 32 35 40 44 45 47 56 63 66 71 70 67 59 51 45 41 38 36 35 33 31 28 26 25 25 23 22 20 18 18 17 18 18 19 21 23 24 25 26 26 27
71 59 91 99 96 98 68 51 48 44 42 47 48 51 58 61 64 68 69 67 57 49 43 39 35 32 29 27 26 25 24 24 24 23 20 18 18 18 18 19 20 22 24 26 28 28 27 28 28
91 91 79 78 72 96 79 58 39 43 38 47 48 49 58 60 61 66 67 62 57 49 42 38 35 32 29 26 25 24 24 24 24 22 20 19 18 19 20 22 24 26 28 29 30 29 29 29 34
71 75 78 86 100 86 60 51 35 39 39 42 48 48 54 55 60 65 65 62 60 52 44 37 34 32 29 27 28 26 25 24 24 23 22 20 20 21 22 25 27 29 30 31 32 31 30 33 38

GFSSGP_925_rhum_030.txt.gz
RH
34 29 34 32 38 45 43 36 24 29 29 24 21 23 24 28 28 38 46 50 56 71 91 87 75 74 74 80 66 67 70 81 81 74 70 73 78 75 77 75 77 72 79 80 86 88 88 95 83
36 37 33 46 44 40 35 28 28 24 23 26 24 24 25 39 43 47 59 55 51 67 86 87 77 74 75 79 77 69 71 85 83 72 70 69 68 76 78 79 78 75 64 82 78 75 82 79 75
36 38 44 49 55 49 35 23 29 22 20 24 24 26 33 37 44 45 44 56 59 67 78 87 78 72 78 76 86 75 70 82 84 75 73 76 76 80 74 83 74 70 68 67 77 77 76 86 82
45 42 44 48 47 42 33 30 23 22 19 22 23 34 36 35 37 39 44 54 57 62 69 79 76 77 81 79 83 80 72 78 83 75 81 74 85 85 70 76 73 76 75 73 78 79 75 68 65
44 53 54 53 50 39 31 27 22 22 21 22 25 29 40 38 40 40 46 53 52 63 64 73 77 81 85 85 85 85 83 77 82 77 81 80 83 80 86 70 72 78 76 76 78 80 83 87 83
61 55 65 62 48 37 34 28 18 17 21 23 24 34 39 40 42 40 42 46 51 58 71 75 83 84 83 87 81 84 84 79 75 82 90 90 85 83 89 80 78 74 70 76 87 89 88 93 88
67 68 67 57 51 48 35 27 18 19 25 24 24 36 36 40 40 39 41 44 52 63 72 80 86 86 83 82 81 81 80 78 69 82 90 74 71 77 91 85 75 70 71 81 74 78 85 85 87
65 68 69 63 58 52 34 24 14 20 21 22 21 39 39 36 40 40 42 48 57 62 64 67 83 86 85 80 81 81 79 76 69 58 70 63 70 70 72 71 69 69 73 67 58 56 57 60 58
61 85 84 66 57 47 35 30 24 20 25 25 24 25 24 27 42 43 45 59 65 64 58 58 63 78 79 74 81 81 78 76 72 66 58 55 56 53 54 68 71 70 66 64 60 65 64 68 68
87 96 80 56 49 46 37 30 31 30 31 30 27 26 31 36 44 48 49 50 60 68 62 56 54 54 66 71 79 80 77 76 73 69 58 67 64 63 66 68 68 66 66 66 66 67 67 68 68
83 88 64 54 46 45 45 36 30 31 36 32 31 30 27 30 41 48 48 46 47 51 60 58 56 56 60 69 73 75 75 74 72 70 66 70 72 65 61 62 63 65 65 65 66 66 67 68 69
82 71 65 61 53 54 53 36 39 34 33 28 30 30 30 32 34 33 31 33 40 46 50 54 57 58 63 70 74 73 74 73 73 71 73 72 68 61 61 61 62 63 65 66 68 69 70 68 71
74 68 59 58 59 55 50 52 46 41 33 33 32 30 32 33 33 27 26 23 20 32 44 52 54 56 60 68 73 75 71 70 68 73 73 70 67 64 65 66 71 73 72 73 76 77 75 72 67
58 58 58 56 56 57 56 52 45 40 36 37 33 33 34 33 33 28 26 26 29 28 37 47 52 54 58 64 64 63 66 69 70 65 63 66 67 70 74 78 77 74 74 75 68 62 57 54 52
62 74 62 56 49 54 54 65 60 40 37 38 36 35 36 34 29 27 25 28 33 34 38 45 49 53 56 61 62 64 63 66 67 69 70 72 76 76 77 70 64 59 57 56 54 50 44 37 36
75 74 85 54 52 52 58 76 53 40 42 41 40 40 41 37 30 30 32 32 33 36 41 47 50 50 55 57 63 66 70 70 69 71 74 74 71 71 74 60 51 47 50 46 42 37 34 30 25
85 95 84 75 50 57 64 64 51 42 45 46 44 44 40 37 37 36 34 32 33 33 35 38 39 44 51 61 68 70 70 69 71 71 69 64 64 65 62 52 43 40 38 36 34 28 23 22 19
78 86 85 81 66 56 63 65 56 49 46 44 38 37 43 39 43 38 36 36 37 38 42 42 42 40 59 67 69 66 68 64 62 60 60 62 57 50 41 34 31 28 26 26 22 20 18 26 24
75 79 88 73 60 69 66 61 51 49 53 51 46 46 41 42 44 41 43 45 51 53 52 47 47 68 67 66 63 60 55 52 53 52 48 45 37 32 28 25 25 24 24 22 20 18 18 24 26
91 92 86 66 56 58 71 73 58 48 44 46 41 44 40 50 52 57 58 61 62 64 65 72 74 69 66 64 60 57 52 48 44 37 33 30 27 26 25 24 23 22 19 17 20 23 24 28 31
80 93 84 82 65 56 53 65 62 51 48 42 38 37 43 47 54 62 72 72 69 69 70 73 74 68 64 61 57 50 45 39 35 33 30 28 27 25 24 22 21 20 18 18 22 24 23 29 31
87 68 70 68 65 90 63 83 64 55 51 47 40 44 47 48 53 61 74 73 70 68 67 68 68 65 62 60 54 48 45 43 40 35 31 29 27 25 22 20 20 19 19 19 21 23 21 25 38
74 55 59 60 61 71 69 85 70 58 55 51 44 40 42 49 53 62 70 67 65 63 63 65 63 61 58 55 50 42 42 43 39 34 30 27 25 23 21 18 18 18 19 20 20 21 22 25 27
60 66 69 70 75 97 66 76 65 64 54 47 42 42 48 51 55 67 69 66 64 60 58 58 57 56 52 47 44 41 41 39 36 32 28 25 25 21 20 18 17 18 18 19 20 22 22 24 25
61 84 96 98 96 82 53 76 58 60 54 41 36 44 51 53 66 74 71 67 62 58 56 56 54 56 50 46 43 40 37 32 28 27 26 25 22 20 19 17 16 17 19 21 22 23 24 25 26
80 78 92 93 99 62 74 86 66 50 38 36 38 42 52 62 66 69 68 64 61 57 51 50 50 49 45 41 38 33 30 29 28 27 25 23 20 19 18 18 17 18 21 23 24 25 26 26 26
84 95 63 88 82 98 82 75 56 52 46 48 52 55 61 66 70 72 69 64 61 55 49 45 42 40 38 35 31 29 28 28 27 25 23 19 18 18 17 18 18 21 24 26 27 28 28 28 29
62 62 89 95 98 98 88 72 41 48 56 59 58 62 67 72 76 74 67 66 61 51 45 42 39 36 33 30 29 27 27 27 26 23 20 18 18 17 17 17 21 24 27 29 30 30 30 30 30
97 89 75 65 78 95 98 78 40 38 47 57 58 63 72 77 77 73 70 65 58 48 42 38 35 31 28 27 26 26 26 25 24 24 21 19 18 18 18 22 25 27 29 30 32 32 31 32 34
72 74 69 76 70 70 98 74 45 41 48 47 53 62 67 70 75 74 70 67 59 50 42 36 32 28 26 26 26 26 25 25 25 24 22 20 18 19 23 25 27 29 31 31 32 32 33 38 42

GFSSGP_925_rhum_033.txt.gz
RH
44 35 36 32 43 47 42 37 27 28 28 24 26 25 27 30 28 36 49 57 58 68 89 82 77 81 75 70 80 72 75 82 80 78 73 73 73 72 73 73 74 72 81 78 89 89 90 96 90
38 37 34 49 49 47 36 31 30 27 23 25 26 25 28 41 45 50 62 60 63 70 87 85 80 84 74 79 94 77 71 87 81 73 73 73 71 74 77 76 79 82 79 82 77 79 84 83 81
39 39 42 51 58 56 39 26 29 27 24 24 25 32 35 41 47 51 44 54 73 77 81 83 77 77 77 88 86 81 83 89 83 73 73 73 70 78 75 82 79 72 71 71 79 75 74 87 81
47 44 47 51 53 48 36 32 29 28 21 23 26 35 37 37 39 41 46 58 69 71 73 81 75 76 76 79 81 91 92 91 84 76 75 80 80 86 80 81 74 77 74 72 76 72 64 59 60
44 56 57 58 56 43 35 30 26 26 23 21 24 30 41 39 42 44 52 59 59 67 68 81 79 75 80 87 87 92 95 92 85 76 84 84 81 82 76 86 76 79 74 71 75 76 83 86 85
64 59 70 63 51 40 37 31 27 22 20 24 26 39 41 40 45 47 54 54 57 59 66 80 82 79 84 83 86 90 85 92 84 80 86 90 76 81 88 84 78 80 74 78 84 88 88 90 88
69 68 72 60 53 47 39 30 28 23 23 26 25 37 36 39 41 46 50 56 57 62 64 74 82 84 85 85 90 83 83 90 74 85 93 79 74 75 85 86 83 71 69 76 79 77 82 86 87
73 72 74 69 59 52 35 28 18 23 24 23 26 39 34 34 38 45 47 51 59 64 69 74 79 88 88 88 88 82 83 82 68 70 84 71 72 73 82 82 73 67 73 78 69 61 60 66 70
64 85 87 66 63 49 35 34 28 24 25 26 25 32 26 32 42 47 57 72 74 74 73 79 82 89 87 87 86 83 82 80 72 63 65 69 67 66 67 69 71 72 72 73 71 71 70 72 71
89 96 77 59 52 48 38 36 36 32 35 31 29 28 40 45 47 50 56 72 81 81 78 79 77 82 86 90 86 85 85 82 77 72 65 64 64 57 58 65 70 71 70 70 70 70 70 70 71
87 86 66 61 52 49 49 44 38 36 39 35 32 30 31 42 50 54 52 52 60 61 74 70 68 67 77 88 80 83 86 81 79 76 70 70 71 68 67 66 66 67 69 68 68 69 70 71 71
80 70 73 65 58 61 60 47 44 38 36 32 34 31 30 32 45 48 51 47 48 54 57 62 62 63 65 75 72 77 80 80 77 74 73 72 74 71 65 65 66 66 68 70 72 72 68 68 71
75 71 65 62 65 65 62 66 61 53 42 37 35 36 37 36 35 30 28 29 30 39 48 55 62 62 62 68 71 74 76 76 74 77 78 79 77 72 66 70 76 76 75 75 76 72 67 64 61
63 64 63 55 60 59 63 62 60 52 41 42 40 39 36 36 37 31 30 27 26 24 24 41 55 60 62 66 70 74 74 73 75 77 78 72 70 76 82 81 78 72 69 66 63 60 54 48 44
69 80 69 64 56 56 50 59 61 55 48 46 42 41 37 36 33 34 27 26 24 25 29 37 50 56 62 64 66 72 75 81 83 79 71 73 80 81 75 65 59 56 55 52 49 44 36 31 27
78 79 88 57 59 55 53 64 54 50 53 52 45 46 43 41 37 31 28 26 26 33 34 37 49 55 59 63 67 79 82 82 74 75 78 79 76 69 72 67 58 49 47 42 35 30 23 21 18
86 91 90 73 54 56 66 64 48 51 53 53 49 48 44 44 40 31 29 33 34 37 42 47 54 57 62 67 77 77 76 76 77 77 75 73 66 65 64 53 46 37 31 26 23 20 17 19 15
78 80 83 81 61 62 64 64 59 54 57 57 53 50 47 45 40 32 34 35 36 36 41 44 51 57 65 73 77 74 73 72 72 67 64 59 59 59 47 32 27 25 24 22 18 16 15 26 16
85 86 87 77 62 71 77 76 66 58 55 53 60 54 49 48 39 38 38 41 43 42 44 46 45 62 67 73 68 66 60 59 64 59 52 53 48 33 27 26 25 23 22 17 16 15 15 20 21
93 93 91 75 63 63 65 65 58 46 47 54 49 50 50 45 48 49 50 58 58 55 56 54 54 64 69 69 65 61 55 50 46 39 34 30 27 26 26 25 24 21 17 16 17 18 17 19 31
84 92 80 81 68 65 71 61 43 38 45 50 48 43 42 45 50 57 72 72 70 70 72 68 64 68 67 65 60 53 47 39 32 29 27 26 27 26 25 24 22 19 17 17 20 20 20 28 26
88 70 71 76 85 94 62 79 53 47 49 51 48 49 46 48 47 53 80 84 78 75 80 75 70 68 64 60 56 53 44 40 32 29 28 27 27 25 23 21 19 18 17 17 20 20 22 25 33
74 60 72 79 87 86 72 88 63 51 48 49 58 50 51 50 51 63 78 80 77 76 79 75 69 63 60 58 57 53 42 36 32 30 28 27 25 23 21 18 17 16 17 18 19 20 22 24 27
63 73 78 94 80 95 67 81 57 45 50 56 53 52 51 46 54 63 79 78 78 76 74 71 66 61 59 58 54 48 38 36 32 30 27 25 24 22 19 16 16 16 17 19 21 22 23 25 26
63 99 97 97 97 85 58 72 58 44 50 52 51 51 49 53 64 81 80 79 75 73 71 68 64 62 57 52 44 39 37 35 32 29 27 26 23 20 17 16 16 17 20 22 23 25 26 27 27
79 86 92 95 89 77 58 79 56 41 34 29 28 46 51 59 68 74 76 74 71 69 67 65 62 57 51 45 42 39 36 31 28 28 26 24 21 18 17 17 18 20 22 25 26 28 28 28 28
95 96 68 88 92 96 79 64 46 40 43 53 51 48 60 66 71 74 72 69 67 64 62 60 57 52 47 43 38 33 30 28 28 26 24 21 19 18 18 19 21 24 26 28 29 29 30 30 30
74 67 94 98 93 93 81 76 48 40 30 21 52 61 66 69 74 74 68 66 63 59 57 55 51 46 39 34 31 29 29 28 26 24 21 19 18 18 18 20 24 26 29 30 30 30 30 31 33
92 98 80 68 86 96 99 66 55 39 31 33 64 69 74 78 79 73 68 64 59 54 50 47 43 37 32 30 28 28 27 26 25 25 22 19 18 19 20 24 26 28 29 30 29 29 32 37 41
69 81 78 77 88 74 95 69 46 56 50 58 72 74 80 80 74 73 69 62 56 52 46 40 35 31 29 28 27 27 26 26 27 25 21 20 19 21 24 26 28 29 30 28 28 32 39 44 46

GFSSGP_925_rhum_036.txt.gz
RH
43 35 35 31 42 48 43 36 31 30 30 26 26 27 29 30 32 39 52 60 58 65 80 77 72 74 77 72 77 76 76 84 83 79 80 82 83 81 74 72 74 76 81 78 87 94 97 95 91
45 37 32 50 48 51 46 32 32 28 25 26 28 30 29 37 46 49 62 62 60 67 85 77 79 77 81 77 77 77 76 82 81 76 72 73 72 75 75 77 79 83 81 82 76 83 87 87 83
45 38 39 49 60 56 45 27 30 28 28 25 28 32 35 39 47 50 47 58 70 75 84 79 79 77 76 74 80 89 89 89 82 74 76 74 73 76 80 79 78 72 70 68 69 66 72 80 77
48 45 50 53 54 49 38 28 31 32 25 24 27 35 39 37 42 43 46 57 68 80 84 81 79 79 85 75 81 94 95 93 85 76 77 74 78 82 81 84 73 76 70 70 70 61 56 52 51
46 58 56 60 55 44 39 34 30 31 26 22 24 30 38 40 44 45 52 58 64 83 86 83 78 83 81 82 86 94 97 95 87 79 78 80 80 89 80 89 79 80 68 69 73 68 76 79 84
67 61 70 65 53 43 39 34 31 25 23 25 27 40 39 40 47 54 56 57 64 71 79 85 85 83 81 88 90 88 94 95 90 78 85 87 74 82 84 88 80 84 77 78 84 89 91 91 91
71 72 72 61 57 47 39 33 32 31 24 24 26 35 36 37 46 50 56 60 62 67 69 80 84 79 82 90 86 87 88 89 80 77 87 92 73 78 78 82 85 83 81 86 92 92 93 94 94
78 70 75 72 58 55 35 32 26 22 23 24 29 37 32 33 44 48 66 67 70 69 69 73 84 82 84 91 87 88 86 85 75 70 86 79 74 76 85 81 80 76 80 85 88 80 78 77 76
67 86 90 72 66 52 37 36 30 28 26 28 27 32 27 35 48 51 57 69 77 78 75 75 82 87 88 89 89 91 86 86 79 68 81 83 71 70 71 74 76 75 77 78 81 78 77 76 74
89 97 78 63 57 48 43 42 40 37 42 35 31 28 41 46 53 55 65 75 78 76 76 80 84 88 94 95 91 91 88 87 81 73 68 71 64 60 58 63 70 74 75 74 74 74 74 73 72
89 89 70 66 59 57 55 51 42 41 48 39 35 35 37 51 56 57 55 62 67 71 74 75 80 85 92 98 92 90 88 86 81 78 74 70 70 69 68 69 70 69 70 72 71 72 73 72 70
80 78 79 71 62 68 67 58 65 48 46 33 38 35 34 33 53 58 56 51 51 59 66 71 76 80 85 90 87 84 85 84 81 79 77 74 75 77 75 69 67 67 69 72 74 73 69 70 63
77 77 67 62 61 68 66 72 73 68 50 47 46 41 41 40 38 35 41 39 40 44 46 54 65 73 75 83 83 79 80 80 78 79 78 75 77 78 69 69 74 77 77 72 73 68 62 64 54
69 71 69 63 58 59 64 63 62 60 55 54 48 46 43 43 39 34 31 28 28 27 26 32 48 63 69 72 74 71 75 77 80 82 81 82 80 70 75 81 80 77 67 61 62 56 48 42 34
73 85 76 71 64 62 55 65 66 50 56 58 56 50 45 42 38 37 29 28 26 25 25 26 29 52 66 68 66 70 78 84 84 86 84 82 74 76 80 74 65 56 53 50 46 38 29 24 21
79 82 95 62 64 58 58 70 53 45 47 57 60 55 50 43 39 34 31 30 26 27 26 30 36 45 65 67 67 72 88 89 88 87 82 79 81 78 65 65 55 50 45 35 27 23 20 19 17
73 94 94 76 57 59 71 70 53 52 55 64 64 60 52 48 44 34 30 29 27 30 34 37 43 56 70 72 74 86 91 88 85 78 80 81 67 65 62 62 51 36 26 24 21 19 17 18 15
86 98 84 86 64 67 73 74 60 53 54 56 60 64 59 52 46 36 33 30 33 37 42 44 54 68 73 79 86 88 84 81 79 79 74 67 62 58 59 46 28 25 24 23 19 16 15 17 14
89 94 94 80 66 79 77 72 62 56 66 70 60 57 59 55 45 39 33 34 38 40 44 47 56 73 76 83 80 74 74 71 68 66 62 62 50 40 30 26 25 24 24 19 16 14 13 18 16
91 90 78 65 68 73 69 67 55 51 52 54 53 54 56 54 50 46 42 47 47 42 45 50 60 75 77 77 74 71 69 60 58 55 47 43 30 27 27 27 26 22 18 17 15 14 16 22 23
88 93 80 73 68 65 75 64 39 34 36 41 39 40 46 50 51 52 59 59 60 58 55 55 60 73 74 73 69 65 63 51 40 32 28 27 27 27 27 26 22 18 16 16 17 18 18 22 22
85 70 76 79 87 90 71 75 44 41 40 35 36 47 52 53 52 52 61 78 73 67 68 63 64 71 72 69 66 62 51 39 34 28 27 26 26 26 24 22 18 16 15 16 18 20 21 23 29
75 66 77 79 91 95 82 92 59 48 44 42 61 60 52 53 50 54 64 66 73 75 79 74 69 70 69 64 62 54 46 38 29 28 26 26 25 23 20 17 15 15 15 17 19 20 22 24 26
64 74 80 87 96 97 70 84 56 41 36 40 49 53 53 56 56 53 62 79 83 86 86 76 71 68 64 61 56 53 45 32 29 27 26 25 24 21 18 15 15 16 17 19 21 23 24 25 26
76 97 97 97 95 84 62 76 58 40 37 43 45 55 60 60 61 81 90 92 92 89 83 74 69 64 60 58 55 51 40 32 30 28 27 25 22 19 17 16 16 17 20 22 24 26 26 26 27
86 80 92 92 93 82 61 82 53 44 36 32 30 38 50 56 72 80 84 87 87 87 81 74 68 63 60 56 54 44 36 32 30 29 27 24 21 18 18 17 18 20 23 26 26 26 27 28 29
94 96 69 91 74 94 72 75 51 40 35 38 54 42 42 62 80 84 87 84 84 84 78 73 67 63 57 51 43 37 34 30 29 27 25 22 19 18 18 19 21 24 26 27 27 26 27 28 31
81 67 97 98 95 93 84 79 62 45 40 31 26 33 56 73 83 89 87 81 78 77 73 68 62 55 48 44 39 33 30 28 27 24 22 20 19 18 19 21 23 26 28 28 27 25 27 32 36
97 98 100 79 87 92 89 54 50 52 57 62 56 29 63 76 83 85 80 73 69 67 64 58 53 47 41 36 31 29 28 26 24 24 21 20 18 19 21 23 26 28 28 28 26 26 31 38 44
62 90 80 97 93 87 88 57 44 66 63 64 67 70 82 85 85 79 73 66 62 59 54 50 44 39 34 31 29 27 26 26 26 23 20 19 18 21 23 26 27 27 27 27 26 28 37 47 49

GFSSGP_925_rhum_042.txt.gz
RH
50 45 35 26 27 25 24 18 19 22 21 20 19 21 22 21 25 28 50 60 62 65 73 85 76 72 70 72 89 90 89 88 84 92 90 90 95 85 72 74 77 81 75 84 90 99 100 100 99
53 37 29 24 27 28 22 18 19 22 20 19 19 20 23 23 26 36 43 63 62 65 74 77 77 72 74 75 82 84 90 85 80 81 82 82 78 74 78 77 81 80 79 71 78 90 97 95 90
50 34 25 26 26 27 24 20 17 21 19 19 22 22 21 24 32 32 47 62 64 68 70 77 78 74 75 73 74 80 82 84 80 76 75 74 73 74 75 78 80 75 68 68 66 72 78 77 75
40 29 26 29 27 24 22 19 21 22 19 18 20 24 24 30 31 38 52 65 64 67 68 87 80 77 73 73 75 83 86 84 78 78 75 75 78 80 82 76 74 66 64 76 69 60 57 54 56
39 30 30 32 25 21 22 20 20 22 20 18 17 22 24 30 40 48 58 66 62 68 68 89 86 82 78 75 77 81 91 89 80 80 80 82 74 81 77 76 75 72 64 71 74 79 81 82 83
36 30 32 31 24 21 23 20 21 20 19 18 17 18 20 34 41 54 62 64 65 74 74 77 88 83 80 82 81 80 90 94 84 80 80 77 82 81 84 80 76 77 76 80 86 92 94 94 91
33 34 28 25 22 22 23 20 23 20 19 18 17 20 20 27 42 60 63 67 73 75 75 75 85 92 87 89 86 84 89 93 81 81 84 81 78 78 88 83 80 75 77 83 88 92 91 87 91
35 32 29 31 27 26 21 23 20 21 19 16 18 17 20 29 48 60 64 67 70 74 72 72 76 83 86 93 88 86 86 86 77 66 81 77 74 78 83 81 82 78 83 86 88 90 87 82 78
46 37 32 31 29 26 27 27 20 21 22 23 19 21 26 36 49 58 60 62 65 70 70 70 76 77 80 87 96 91 90 87 80 67 78 76 72 82 86 85 72 76 78 78 80 81 78 76 76
46 44 33 27 30 31 28 30 26 29 26 24 23 23 29 38 45 47 48 49 58 65 72 72 75 78 82 83 91 94 91 89 81 70 76 68 66 67 72 75 71 73 74 75 74 74 74 75 73
48 49 33 44 38 44 43 42 34 31 31 26 24 23 27 30 39 41 39 37 44 54 64 72 74 89 85 85 84 88 87 83 81 72 68 67 68 62 62 68 69 73 73 75 75 77 76 70 59
57 47 44 45 47 51 50 41 44 35 28 25 30 29 30 29 28 32 39 38 40 47 57 68 71 86 98 96 89 82 84 84 81 78 68 68 68 72 68 66 72 74 72 76 78 67 67 61 51
53 42 44 42 50 45 40 44 42 39 33 31 32 34 33 30 29 29 28 34 40 42 49 58 69 76 90 100 98 89 85 82 81 79 72 70 70 69 69 68 70 74 75 65 62 63 59 44 38
49 53 50 47 45 43 48 41 37 34 29 28 29 31 31 29 27 28 29 29 28 36 38 46 62 70 82 99 99 99 80 78 82 78 73 75 77 74 73 71 72 74 70 64 55 47 42 36 30
54 60 45 43 41 45 42 47 43 31 28 29 29 26 26 25 25 28 29 29 27 26 26 30 44 61 75 87 99 96 76 77 82 78 82 69 77 85 70 75 76 68 57 44 41 39 32 27 26
54 53 53 41 46 41 44 41 27 28 30 33 29 26 25 26 24 24 27 30 30 30 30 30 34 43 62 76 84 80 75 77 80 85 89 88 83 82 77 76 64 56 47 41 33 30 30 28 26
51 45 52 49 46 46 49 45 34 39 35 35 29 29 30 29 25 24 24 25 30 28 28 30 36 40 53 68 72 74 74 76 82 86 91 88 87 80 79 67 56 40 36 30 28 33 29 26 25
44 55 49 49 40 44 46 45 36 35 34 34 32 30 31 31 31 31 30 28 28 30 30 31 36 45 57 66 73 75 76 79 83 85 85 92 77 80 73 58 48 33 30 31 30 29 29 27 26
53 54 58 46 42 45 41 37 33 29 29 29 28 28 27 26 26 29 31 33 35 34 34 35 40 50 63 68 71 77 78 83 88 89 88 82 74 71 61 46 34 32 30 26 25 27 28 28 29
56 58 54 45 41 45 42 40 32 29 29 28 26 22 20 19 19 21 27 29 32 35 36 38 46 56 66 69 70 70 80 92 90 85 78 71 66 64 52 34 33 30 28 26 25 26 27 28 32
60 60 54 53 45 44 48 43 29 22 21 22 22 22 21 20 19 18 17 24 31 35 36 41 48 62 69 70 73 78 85 82 73 66 66 58 54 44 32 32 32 29 28 28 29 30 30 27 32
63 48 56 59 61 65 49 52 31 25 24 22 20 20 20 21 22 21 19 18 27 34 40 44 54 65 71 76 73 74 74 73 64 58 57 48 40 34 31 31 29 27 28 30 28 29 27 28 26
61 51 54 57 66 70 59 83 32 23 28 23 20 19 18 19 19 21 23 22 23 33 43 52 60 67 71 71 70 72 70 67 60 56 44 35 30 29 28 29 28 28 29 30 31 31 29 28 29
55 61 61 60 78 85 45 62 33 17 15 18 18 18 18 17 20 22 22 25 27 33 55 61 64 67 68 70 70 71 68 62 53 45 35 31 30 29 30 28 29 29 31 32 32 33 34 32 33
67 84 77 80 89 64 35 44 39 20 24 24 22 18 18 19 21 25 28 32 34 38 61 67 64 65 68 69 69 68 64 64 54 38 34 32 31 30 30 29 28 30 32 33 35 38 42 40 36
85 66 64 69 54 33 42 53 27 21 25 24 22 19 24 25 24 22 29 37 40 47 62 66 63 63 65 66 64 62 55 45 37 34 31 30 30 30 29 28 29 30 31 32 36 39 38 41 37
64 85 56 73 57 65 38 28 21 19 20 20 21 30 31 30 28 28 25 37 41 52 63 64 63 63 63 62 57 49 43 40 36 30 30 29 29 29 29 30 30 31 32 32 34 33 31 32 34
60 50 80 88 81 65 41 36 33 26 25 24 24 32 31 35 38 30 25 38 48 56 64 65 63 61 59 54 50 46 42 37 31 29 29 29 27 28 30 30 30 32 32 32 31 30 33 32 34
80 89 77 75 75 68 67 42 23 24 22 22 37 35 37 47 47 35 30 43 56 64 69 66 61 59 55 51 46 40 36 33 32 30 29 28 28 28 28 28 30 30 30 30 28 28 32 35 40
44 58 62 92 84 87 81 62 27 28 27 40 36 32 37 53 59 52 48 56 65 69 67 62 58 55 51 45 40 36 32 29 29 28 28 27 27 27 28 29 29 30 30 29 27 28 35 40 43

GFSSGP_925_rhum_045.txt.gz
RH
50 35 28 23 27 24 23 18 12 16 15 13 16 18 20 19 22 30 39 48 46 56 73 86 77 72 73 85 94 98 95 93 94 94 96 98 94 83 74 78 80 79 79 90 96 97 95 98 100
49 32 25 22 29 27 22 14 16 13 15 16 16 18 20 21 20 35 40 48 48 54 70 77 77 72 71 82 97 97 92 86 87 89 94 95 83 76 75 78 82 79 78 78 90 96 96 96 95
47 30 25 26 27 26 20 16 14 15 16 17 17 18 19 22 24 29 39 48 48 54 63 75 79 70 73 76 90 92 88 83 81 82 79 80 73 73 75 81 84 74 68 66 77 82 84 79 72
35 26 22 30 27 20 16 15 13 17 15 17 18 21 19 24 25 30 44 46 47 52 57 76 74 73 74 74 86 89 87 83 78 78 77 75 78 80 80 80 72 64 77 72 62 61 61 56 55
34 25 30 27 23 17 14 15 14 17 16 16 16 20 21 26 33 38 45 45 47 50 63 90 76 76 73 75 82 91 89 82 80 79 80 80 83 87 86 75 77 64 80 85 84 80 76 68 80
30 24 30 28 21 16 13 15 17 17 16 16 17 18 19 30 32 40 47 45 46 49 60 81 87 80 74 78 82 90 93 86 80 82 83 86 83 87 94 80 78 66 74 81 88 94 94 87 82
34 30 28 22 18 16 14 15 18 17 16 16 14 18 17 22 35 42 46 45 49 51 56 72 89 92 77 80 81 86 93 92 83 82 82 84 80 85 94 84 82 70 77 79 81 84 83 82 85
30 28 28 23 19 18 13 16 16 16 17 13 14 18 16 27 40 43 45 48 51 54 54 59 72 84 88 96 83 85 88 87 72 77 82 77 73 76 88 82 82 72 81 81 88 86 83 78 75
35 38 32 26 19 17 16 20 18 15 17 16 14 15 22 28 40 43 45 47 49 53 53 53 60 75 77 83 94 89 90 88 76 68 76 70 71 82 80 90 75 69 74 76 78 76 74 72 73
44 38 29 17 15 18 19 21 19 22 21 18 18 16 22 28 35 38 40 42 46 52 53 52 57 62 73 83 91 92 92 90 82 69 76 69 59 65 73 78 66 70 71 72 72 72 72 70 67
41 40 24 22 30 28 26 23 23 25 28 18 18 17 21 26 29 33 34 33 39 46 52 53 56 58 61 74 86 84 86 79 75 63 64 59 57 65 65 68 67 70 68 75 73 75 67 62 56
43 33 29 28 32 38 40 30 29 25 26 18 18 21 23 24 23 28 31 29 29 36 46 54 54 59 60 70 72 76 78 78 78 66 59 60 57 54 58 60 63 67 65 65 70 62 60 54 48
44 39 29 31 34 37 38 38 35 31 26 22 22 24 27 26 23 23 24 29 29 31 39 48 53 56 69 70 66 61 74 75 69 67 60 58 59 60 60 60 61 62 66 65 61 57 53 46 41
36 38 36 34 35 35 40 36 33 29 24 24 24 25 24 26 24 24 24 25 28 30 34 40 49 53 61 74 88 72 64 74 66 69 65 61 61 60 62 64 68 65 68 64 55 49 45 40 34
46 52 40 35 35 36 35 42 39 28 25 25 23 21 20 20 22 22 23 25 25 24 30 32 40 48 55 64 88 90 66 69 71 72 65 64 67 76 71 69 70 66 56 48 46 41 36 29 29
49 43 45 30 33 30 36 42 22 21 23 25 22 21 20 20 18 19 21 23 26 25 24 25 27 40 49 57 76 94 70 65 76 74 66 70 76 77 73 71 67 55 49 44 39 34 31 30 27
42 43 38 31 29 33 40 40 24 26 28 25 23 22 20 20 18 18 19 20 24 26 27 27 28 32 38 52 62 73 65 61 76 73 70 75 81 81 70 65 62 47 42 38 30 33 29 27 26
39 42 36 33 30 35 37 36 28 26 27 28 27 25 24 22 22 21 19 18 19 22 25 25 28 33 35 42 57 61 58 62 73 75 73 79 82 73 67 65 46 41 38 33 32 31 30 28 28
43 42 40 33 29 34 34 32 27 22 22 23 22 22 21 20 20 21 22 24 24 23 24 27 26 30 37 45 54 57 59 68 78 82 81 82 73 64 63 54 41 36 32 30 28 29 29 32 29
45 47 42 34 30 37 35 33 27 25 23 22 21 21 20 18 18 17 19 23 25 26 29 29 28 31 40 48 54 56 65 86 91 89 79 72 65 57 52 48 37 32 30 28 28 29 30 31 31
49 48 44 42 35 34 37 37 25 20 21 21 20 19 18 18 17 14 14 17 24 26 27 30 29 33 43 49 56 60 81 90 92 84 72 68 70 66 54 40 33 31 31 33 33 34 31 30 30
54 37 42 46 51 54 40 56 31 22 19 19 18 17 17 17 16 16 15 14 16 24 28 30 32 37 47 56 61 69 80 79 78 75 69 63 56 50 43 36 34 33 32 34 31 31 27 29 28
52 45 48 49 57 66 53 63 34 18 16 15 15 15 15 15 15 15 16 18 17 17 27 34 36 40 53 59 64 73 70 74 74 72 66 57 51 39 34 32 32 32 33 32 33 31 28 27 29
49 53 55 55 63 87 47 46 32 16 12 13 11 14 15 14 14 15 16 18 20 21 26 38 41 48 56 65 65 67 67 66 68 66 63 52 46 37 35 33 33 33 34 34 33 34 34 32 35
59 68 78 85 89 65 26 31 31 16 16 16 16 15 14 14 16 16 18 20 21 24 26 41 47 52 60 63 62 64 68 65 65 64 63 50 42 34 32 32 32 35 36 35 36 38 40 41 39
65 66 64 68 49 37 27 41 25 14 17 18 17 17 16 16 18 22 22 22 23 29 30 42 51 53 58 61 62 66 63 63 66 58 48 41 39 36 31 30 31 33 33 33 39 41 40 42 39
68 89 53 70 53 60 35 21 16 15 16 16 17 18 20 21 23 28 28 24 24 30 33 45 53 53 57 61 64 63 63 60 52 42 36 33 32 32 30 30 30 30 30 31 32 34 30 31 32
51 43 79 87 81 60 32 29 28 22 20 19 20 20 21 23 28 31 28 26 22 31 36 50 52 54 58 62 60 57 48 42 38 36 34 34 35 31 30 30 31 30 30 30 30 29 31 30 30
67 73 66 52 61 59 57 37 20 24 22 22 21 19 26 27 31 38 30 25 26 35 44 51 53 56 58 57 50 45 42 36 34 32 31 31 31 30 30 29 28 28 28 27 26 26 28 31 34
43 56 59 85 65 70 71 58 26 25 24 24 24 26 26 24 36 44 38 34 38 45 54 54 55 56 53 48 46 41 35 33 33 33 31 30 29 27 27 26 26 27 27 26 25 25 28 33 36

GFSSGP_925_rhum_048.txt.gz
RH
38 42 30 28 47 41 39 30 15 15 15 12 15 19 22 22 33 61 44 45 69 82 92 81 82 76 74 80 87 91 89 93 96 96 97 95 91 80 80 80 80 77 90 97 99 99 93 98 98
41 47 29 40 47 46 34 22 19 13 17 18 17 17 20 24 37 42 49 46 63 78 90 86 79 74 72 84 95 93 94 93 96 95 96 93 83 79 79 82 79 78 85 89 95 89 88 89 87
41 43 41 45 43 43 34 20 17 14 16 17 18 16 19 30 33 40 44 46 58 75 82 82 76 72 71 87 93 91 86 84 89 88 95 85 78 75 78 84 71 65 74 80 87 88 82 81 78
41 36 34 40 38 30 26 20 14 18 15 16 18 22 22 27 27 40 45 46 53 65 76 78 75 71 70 72 85 88 86 83 83 80 80 75 74 77 85 70 53 62 72 75 77 78 76 71 66
34 42 43 38 33 27 20 16 14 17 16 17 18 22 31 32 36 43 44 45 50 67 74 74 73 74 69 70 80 87 87 81 81 81 79 83 85 86 89 78 65 73 81 81 76 67 59 56 74
44 38 45 45 33 22 18 14 16 18 18 16 16 20 32 32 36 42 43 44 49 71 82 75 75 75 69 71 77 84 85 82 82 82 83 87 89 93 94 85 72 72 80 87 88 82 75 68 70
46 42 42 34 30 22 18 14 18 19 19 19 15 18 29 32 39 43 43 43 47 69 84 87 79 77 71 73 75 83 86 78 81 84 86 86 82 86 95 87 77 70 74 74 72 72 69 69 71
38 42 44 34 30 26 17 14 17 19 20 14 15 19 30 40 41 43 42 44 48 54 74 81 90 86 81 82 77 79 83 77 70 79 84 80 76 83 92 83 76 69 72 72 75 72 71 70 69
33 50 49 40 31 25 16 17 17 16 19 17 14 16 28 34 41 43 43 47 50 53 60 74 84 82 88 86 84 82 84 81 64 75 74 72 76 78 88 83 72 64 68 69 70 69 67 70 72
49 62 53 32 23 25 23 19 20 21 22 21 20 16 25 28 38 44 45 48 50 53 52 59 75 73 75 83 87 87 89 87 72 62 70 64 75 80 85 85 72 65 67 67 68 69 70 74 73
47 59 37 27 22 33 35 32 21 26 29 24 22 19 25 27 31 38 40 42 46 51 52 51 62 72 72 82 84 90 89 84 80 66 62 62 67 75 81 65 61 64 63 70 70 74 66 63 58
49 39 37 36 30 35 40 33 37 28 29 24 23 22 24 27 30 32 34 34 41 46 50 51 54 61 70 67 74 82 84 84 73 66 65 61 58 58 58 63 64 69 65 73 68 63 61 57 46
42 37 33 31 32 34 37 43 43 39 30 26 25 25 27 27 29 25 28 30 30 39 46 52 52 56 65 69 71 75 79 81 70 68 61 60 59 55 58 62 64 66 66 68 65 60 54 46 42
36 39 39 36 34 35 38 39 40 34 28 30 28 29 28 29 30 27 25 24 26 29 42 49 52 54 59 67 71 71 73 73 71 66 64 60 58 61 61 61 65 62 64 62 58 51 47 40 37
46 55 48 44 40 40 36 46 44 34 30 31 28 26 25 26 25 28 26 25 24 25 31 41 49 51 61 67 70 70 75 66 68 64 66 58 61 62 62 64 66 64 67 59 49 48 39 33 28
56 56 68 37 36 35 39 54 35 29 32 32 30 27 25 25 23 21 22 23 24 25 25 32 42 49 54 66 76 72 76 71 67 66 66 61 65 66 67 67 67 60 48 46 43 36 32 29 25
53 57 55 43 34 32 39 47 34 27 28 32 29 27 25 23 22 19 19 20 21 24 26 26 32 42 48 57 69 77 78 78 62 67 68 65 69 76 73 67 66 53 46 42 39 32 28 25 24
50 56 45 40 39 39 44 44 34 29 27 32 34 31 28 27 24 19 18 18 20 21 26 26 27 28 38 52 70 78 77 78 58 62 71 68 75 80 73 67 60 47 44 39 31 28 24 23 22
43 45 50 36 30 35 38 37 32 28 27 27 26 27 26 27 24 21 19 20 19 19 21 27 27 28 29 35 57 75 75 73 70 67 73 76 80 80 70 63 47 45 38 32 30 28 29 24 18
43 51 52 40 31 36 40 40 33 29 27 25 24 24 23 23 24 22 20 22 22 23 23 22 26 31 32 34 44 62 67 74 73 77 77 83 82 75 64 53 44 37 33 28 26 29 28 30 19
52 55 50 47 40 39 43 46 37 27 27 26 25 23 22 23 22 21 21 20 21 24 25 26 26 28 35 37 47 61 72 81 87 86 85 83 72 66 56 49 45 35 28 28 29 26 29 30 28
58 42 43 47 54 68 49 81 41 30 27 24 25 26 26 23 22 22 21 20 18 22 24 26 28 29 31 39 54 61 79 92 90 81 75 68 65 64 56 49 38 31 30 29 27 26 22 28 29
51 46 48 51 62 70 58 77 55 26 26 19 20 23 23 22 22 22 23 20 16 17 25 25 27 31 32 42 56 69 79 85 88 80 74 71 72 62 54 42 36 31 30 26 25 24 24 24 28
49 52 56 58 68 90 66 65 56 28 22 19 17 18 18 18 17 18 18 18 20 19 17 22 30 33 34 50 61 74 77 82 84 76 72 65 60 46 39 36 31 31 29 28 27 24 24 24 25
55 59 91 98 99 91 35 57 48 26 21 21 19 16 17 15 16 20 24 28 24 20 22 21 28 37 40 57 70 73 76 74 79 74 70 57 50 36 35 34 32 31 30 27 28 28 23 25 32
69 71 94 85 86 68 45 55 35 22 18 19 18 18 19 20 21 21 30 37 33 29 23 25 31 44 52 66 71 71 73 73 76 76 70 56 47 40 37 36 34 31 28 28 26 26 29 26 31
68 86 56 76 61 84 52 28 21 17 18 18 19 21 24 24 23 27 34 35 31 31 28 26 39 49 60 68 65 69 70 70 74 73 61 53 46 38 35 33 31 28 28 29 32 28 31 29 32
58 49 84 94 94 85 53 40 36 26 27 24 23 22 23 23 26 32 41 40 32 28 30 30 46 52 61 63 68 67 68 68 67 56 55 49 38 33 32 32 29 28 28 27 29 28 28 28 30
72 78 68 67 80 90 86 52 29 32 32 34 32 29 27 27 30 39 47 44 37 30 35 36 53 56 60 68 64 61 57 55 48 45 42 39 33 31 31 32 30 28 27 26 27 26 27 29 32
55 62 66 89 82 85 97 71 32 33 29 30 34 30 30 29 30 48 48 51 45 39 43 50 56 62 61 51 49 45 43 39 37 36 35 34 33 31 29 28 28 28 26 25 24 25 27 31 34

GFSSGP_925_rhum_051.txt.gz
RH
34 32 45 37 49 57 53 45 30 24 16 20 19 21 22 26 34 54 54 53 67 76 82 86 87 76 71 77 96 91 92 91 92 98 97 93 87 86 84 81 80 90 96 98 83 89 98 98 99
34 32 42 49 58 60 55 35 34 23 21 19 19 18 21 45 44 56 73 67 70 75 85 88 84 73 71 84 94 94 97 96 95 95 96 85 83 83 82 79 79 88 96 99 100 95 93 91 88
38 47 52 56 59 60 53 30 24 18 19 18 19 18 21 39 46 51 59 76 74 79 89 88 79 73 74 94 92 89 91 96 96 94 92 86 81 79 83 82 80 80 92 98 97 85 83 79 82
51 49 48 51 56 43 36 29 24 20 17 18 20 24 32 38 42 45 66 74 71 84 87 84 77 72 69 81 78 74 81 90 89 96 88 80 76 82 85 79 81 81 75 86 83 82 81 76 68
45 59 60 57 47 36 32 27 20 19 18 20 19 23 41 44 43 45 61 67 78 86 79 79 74 70 63 64 68 74 83 85 83 85 78 76 81 90 81 63 71 80 81 86 86 88 75 72 78
52 57 69 66 50 32 28 23 20 19 19 18 18 20 41 45 45 45 52 64 71 82 78 77 72 72 61 64 68 77 80 83 82 79 85 88 89 95 83 66 63 76 88 89 88 81 70 62 64
54 59 63 49 48 38 30 22 22 22 20 20 16 20 40 42 46 44 49 55 69 76 76 75 75 74 66 67 69 70 73 82 83 83 87 89 92 91 88 78 69 73 70 65 60 59 59 64 64
53 60 56 52 43 39 26 18 19 23 23 16 17 23 54 47 45 44 47 64 72 77 75 76 80 76 73 74 74 73 67 79 82 85 88 82 83 91 84 82 69 68 65 64 64 64 65 66 67
38 65 72 58 48 37 26 27 19 18 19 18 17 27 41 42 46 45 50 75 85 85 76 76 80 78 78 80 81 80 73 65 76 81 80 77 77 89 90 80 65 64 63 66 66 65 67 71 69
56 72 62 42 38 34 32 35 30 22 21 20 19 32 34 42 45 48 53 57 73 88 82 72 75 78 79 84 85 85 83 72 63 73 73 72 80 82 88 81 69 61 63 64 66 69 73 71 74
51 70 50 44 37 33 39 38 35 29 29 24 23 23 35 38 45 52 51 51 53 64 80 78 76 76 76 85 83 88 87 82 64 58 65 69 82 88 80 83 74 63 64 66 72 73 70 60 59
62 49 46 42 40 39 42 43 45 39 31 32 27 24 27 36 44 48 51 50 52 55 58 75 79 76 78 78 84 83 84 81 76 59 51 67 75 85 81 66 58 63 63 72 74 72 63 57 45
52 48 42 40 41 36 35 44 46 46 40 36 34 31 26 31 31 31 35 40 49 54 54 58 71 73 75 80 80 78 77 74 75 72 62 61 73 72 69 61 66 68 70 74 67 62 60 49 42
46 44 46 44 45 43 42 42 40 40 36 37 33 33 33 34 33 30 29 28 35 48 53 52 61 67 72 74 74 70 73 71 70 71 64 61 62 58 56 62 68 71 72 68 62 60 51 48 44
48 60 58 53 50 49 40 50 50 41 40 42 38 35 31 32 28 32 27 28 27 28 47 52 52 61 66 71 70 70 73 68 71 66 64 61 60 58 58 66 65 68 65 63 57 49 46 42 34
59 60 79 51 45 48 46 57 43 38 41 41 38 35 36 31 29 23 22 24 26 26 29 51 54 54 61 65 71 72 77 73 70 65 63 61 60 62 65 63 66 66 67 59 50 46 38 32 26
60 75 77 63 39 44 50 53 41 35 37 40 38 37 33 30 28 24 21 20 21 22 24 38 53 54 56 62 68 74 78 78 74 67 63 62 61 64 64 65 68 63 53 48 46 39 34 26 22
67 75 56 54 42 39 46 53 44 38 35 38 39 43 39 32 28 24 22 20 20 19 21 24 36 52 53 59 63 66 70 80 73 68 62 64 62 69 67 69 65 57 50 47 44 34 25 23 19
60 53 54 48 38 38 48 50 41 36 35 32 31 37 32 32 31 26 23 21 19 19 19 21 28 42 57 72 82 86 80 73 85 74 60 66 65 68 71 71 65 53 50 45 38 28 26 21 17
62 58 58 48 37 41 47 46 38 35 34 31 30 32 30 27 29 28 22 21 23 21 20 22 27 28 47 59 66 81 83 79 84 82 67 68 69 73 76 72 61 50 47 40 29 27 27 26 16
56 58 58 55 48 45 53 52 45 36 34 30 28 26 26 26 28 28 27 21 20 23 23 23 25 31 31 39 70 76 87 85 91 90 74 74 74 79 80 68 54 47 45 35 28 27 27 27 24
64 51 50 54 62 76 53 83 63 39 29 28 35 33 29 27 28 27 25 23 18 18 19 21 24 27 32 33 41 67 82 94 91 89 81 81 83 84 76 62 48 38 34 28 27 26 27 26 26
60 51 57 59 68 76 70 77 60 48 31 26 20 27 34 32 28 26 29 23 19 18 17 18 22 24 30 35 38 50 82 88 87 89 84 82 75 73 60 58 49 41 37 32 28 24 23 25 23
51 55 58 64 76 97 76 71 58 39 29 20 23 22 25 24 23 24 22 23 24 23 22 19 21 28 28 35 45 59 75 85 93 86 79 69 68 64 61 53 44 41 36 32 26 24 21 21 21
56 70 93 90 95 92 60 76 64 40 31 27 26 22 20 20 20 21 36 39 31 28 26 25 24 22 31 35 55 68 72 79 88 83 79 76 65 61 48 49 40 40 36 31 28 22 21 20 22
72 71 92 94 98 82 56 78 48 29 29 25 22 18 21 20 23 21 38 39 35 31 29 28 27 25 26 51 67 72 75 86 89 85 79 76 62 55 45 42 38 38 34 29 26 22 22 21 22
74 87 65 82 74 92 69 46 30 25 28 24 25 23 26 27 27 30 38 40 36 32 33 33 30 28 37 73 76 80 82 83 86 87 79 71 57 46 41 40 40 38 35 30 23 23 22 25 28
62 59 86 94 88 92 71 54 41 34 38 35 36 35 32 31 32 37 47 44 37 32 38 36 32 31 64 80 77 80 81 82 83 82 69 61 47 42 39 40 40 34 32 28 28 26 27 26 29
74 84 71 76 88 92 96 65 37 34 34 34 36 37 35 33 33 36 52 47 42 34 38 42 39 50 80 79 77 77 79 80 78 72 62 50 41 39 40 40 40 34 29 28 26 26 27 26 29
66 73 65 91 76 94 94 83 40 35 36 42 39 46 44 46 35 42 56 51 49 49 46 49 65 79 74 72 73 76 74 69 67 59 48 42 40 39 36 31 32 29 28 26 30 38 27 29 32

GFSSGP_925_rhum_054.txt.gz
RH
42 34 36 39 48 60 60 53 36 34 23 21 20 22 24 33 36 44 63 71 78 84 84 85 84 84 86 89 92 89 89 90 90 94 94 91 92 88 82 86 89 88 86 84 79 89 99 97 98
41 36 42 55 61 62 59 42 36 32 24 22 19 20 25 48 48 86 81 83 69 76 85 86 83 83 82 90 97 88 86 91 96 97 95 89 89 86 85 79 87 89 94 88 87 99 100 99 94
43 50 51 57 68 66 56 38 30 22 22 20 19 19 33 44 53 72 67 83 76 78 84 86 79 77 82 96 94 94 95 94 93 97 91 88 87 84 82 82 85 94 94 93 100 99 96 92 79
50 53 57 61 68 51 45 32 27 26 20 19 20 28 37 42 52 53 71 78 76 85 86 86 82 77 81 96 97 98 97 97 96 97 91 88 81 84 81 82 83 96 99 99 93 83 83 90 90
50 64 68 65 58 47 39 33 29 28 23 20 20 26 44 46 46 65 76 78 76 86 84 86 80 79 88 95 90 90 95 94 95 96 89 80 84 87 82 81 80 85 94 96 94 96 83 76 67
56 66 79 64 52 38 34 29 26 24 23 21 22 42 45 51 62 82 79 80 68 78 84 83 80 75 74 75 66 67 85 91 92 90 80 81 91 93 84 88 86 86 91 93 93 82 59 48 51
60 68 77 64 56 49 36 27 25 25 25 22 19 33 47 51 61 77 82 79 74 76 78 80 75 70 58 59 62 61 73 79 82 82 85 88 90 86 80 75 86 92 93 83 69 65 58 59 61
57 64 64 58 55 48 32 21 20 24 25 19 19 49 55 50 50 67 77 87 88 86 78 77 76 73 64 65 65 59 73 77 78 85 85 89 86 81 81 66 71 73 66 60 58 60 64 65 67
48 72 82 60 53 41 31 33 23 20 21 18 20 39 46 44 52 67 92 99 99 96 84 80 80 76 68 70 72 66 71 80 82 84 81 82 90 92 84 72 61 63 60 63 64 68 69 70 68
62 80 69 50 44 40 34 35 34 29 23 22 31 40 50 49 53 71 93 99 100 99 94 82 81 77 73 76 79 76 68 78 81 82 84 81 81 88 89 78 60 62 63 65 70 71 73 74 68
61 76 54 48 46 39 42 42 40 36 30 26 28 44 42 56 58 62 78 91 93 92 91 88 82 77 75 80 82 84 78 68 75 77 77 77 78 85 93 82 72 65 66 69 74 74 74 63 69
65 54 47 45 44 44 44 40 45 42 36 39 37 33 29 39 50 59 64 73 85 89 84 84 80 76 77 78 81 83 85 79 66 66 71 74 81 87 91 82 80 63 65 70 75 75 65 57 54
58 52 46 45 47 42 40 47 48 48 43 40 36 34 33 34 38 43 56 60 65 78 82 80 77 76 76 79 82 82 83 81 72 58 61 72 76 81 85 81 64 62 65 72 76 75 61 51 43
49 50 47 46 47 46 46 46 43 42 39 40 39 38 36 34 34 33 34 44 57 62 71 78 77 76 81 81 79 82 79 80 75 68 52 61 70 74 83 79 64 68 70 72 76 64 58 48 42
52 58 56 53 48 50 42 51 55 41 40 43 43 43 38 36 30 32 28 31 30 45 62 66 78 79 85 85 77 81 80 78 76 71 66 56 64 71 74 67 66 69 73 75 67 58 50 47 42
61 64 73 53 46 45 47 58 46 42 45 46 45 41 40 37 34 27 24 24 24 30 36 64 69 81 83 88 80 81 78 75 75 73 68 65 62 64 61 59 64 71 74 68 60 52 47 43 35
65 77 73 64 47 47 57 60 44 37 44 46 44 43 41 37 36 30 26 24 22 22 24 34 68 65 73 81 83 80 77 76 73 74 70 67 62 62 60 59 68 70 67 61 57 51 46 37 26
79 78 67 64 43 51 55 64 50 42 45 46 43 41 44 42 36 31 28 24 22 22 21 23 47 65 61 70 82 85 82 75 71 74 69 65 63 61 61 64 68 68 66 58 51 48 40 28 22
62 62 63 52 42 43 47 48 47 42 40 37 36 38 36 34 32 31 28 25 23 22 20 21 23 56 72 80 88 95 92 80 80 80 70 65 62 61 63 68 68 66 61 54 48 44 30 24 20
70 75 75 54 43 43 50 54 44 38 36 34 30 29 31 32 31 33 27 25 25 23 22 21 21 24 61 74 70 83 88 83 78 79 76 67 63 62 69 68 68 64 55 48 46 42 27 24 19
67 65 61 59 52 47 56 42 39 38 35 33 30 30 29 29 28 29 31 26 22 22 22 23 22 24 35 68 78 72 88 89 92 89 80 73 67 66 70 70 70 64 54 50 46 33 27 27 21
68 51 53 57 62 74 57 72 60 44 44 33 34 39 33 30 30 28 28 27 22 21 20 19 22 27 32 55 80 77 74 90 86 71 83 79 77 71 76 75 72 64 54 49 39 29 28 29 25
62 53 56 59 71 74 69 77 56 44 36 26 20 24 28 35 33 33 33 26 21 20 19 18 18 19 28 37 57 81 79 80 75 81 87 88 85 82 82 80 71 62 49 42 33 30 33 28 26
53 60 68 75 80 93 71 73 57 42 32 21 22 26 25 28 31 33 30 25 24 23 22 21 22 26 26 35 42 54 83 80 85 94 96 93 88 86 83 72 62 52 44 38 36 30 28 26 22
60 72 93 90 97 80 65 82 65 45 38 33 32 31 24 26 26 31 39 41 33 30 28 25 23 20 21 31 48 65 65 70 72 82 93 92 86 84 77 66 54 44 44 44 32 28 26 23 19
67 71 89 79 98 88 63 78 48 37 32 27 26 31 32 32 30 28 38 41 34 30 27 26 27 29 24 24 36 54 71 79 84 82 89 90 82 72 66 61 52 50 46 37 34 31 25 22 22
73 84 65 87 78 94 73 54 32 35 37 35 38 40 42 38 36 33 38 42 40 34 29 29 28 28 27 28 41 66 78 81 84 87 89 86 81 70 62 56 50 45 39 37 34 29 23 23 23
62 63 86 92 75 84 70 66 48 34 36 36 45 47 46 47 44 39 43 46 39 35 28 29 34 36 30 36 59 76 80 83 85 90 90 82 74 68 58 55 45 40 39 34 30 28 25 26 27
80 84 81 78 87 91 96 58 43 36 36 44 47 45 53 58 53 48 46 41 42 38 32 28 36 44 53 72 78 86 94 95 92 92 86 78 69 64 56 45 44 40 36 32 29 33 29 26 29
67 76 71 90 73 95 88 74 43 44 42 45 41 54 55 60 58 58 50 54 55 52 52 49 53 60 80 83 85 92 95 96 93 89 82 69 62 53 51 44 39 37 41 37 30 28 34 50 45

GFSSGP_925_rhum_057.txt.gz
RH
54 41 35 40 49 64 63 51 39 36 28 20 23 26 26 32 33 41 71 85 78 83 85 83 84 86 86 88 90 88 84 82 88 92 94 95 91 90 91 94 95 86 74 79 83 95 97 96 98
47 41 43 58 58 62 59 47 39 33 26 26 22 23 34 43 56 94 94 92 77 81 87 84 85 82 88 86 86 87 86 89 92 95 92 94 93 89 84 88 87 83 76 80 85 92 94 99 87
44 49 53 59 72 62 51 41 35 25 25 24 21 24 35 42 58 83 69 93 85 85 84 86 82 86 88 90 90 90 92 94 97 98 92 92 91 90 81 84 87 86 83 82 89 98 99 89 76
48 57 59 67 70 55 45 33 30 33 26 23 22 39 40 43 61 61 76 88 86 88 84 85 80 83 85 86 88 90 91 91 96 97 90 92 89 85 84 85 94 94 86 93 98 92 84 74 74
53 68 75 74 65 54 44 36 32 33 29 26 25 31 44 51 53 63 88 88 88 92 85 83 80 79 87 89 90 92 97 93 93 97 94 88 85 84 84 84 93 96 99 98 91 80 74 71 75
68 71 81 71 61 44 39 33 28 28 27 26 23 47 49 61 69 91 94 91 85 85 89 83 80 79 90 98 94 94 96 94 95 97 92 84 89 82 74 82 81 95 98 96 88 85 84 70 67
66 80 83 64 49 46 39 31 29 29 29 26 22 49 51 63 84 93 90 87 87 87 88 83 78 79 84 94 79 80 90 90 91 93 84 86 88 75 75 87 87 91 96 97 89 74 64 66 66
62 66 69 67 59 49 33 29 22 24 25 21 30 56 67 57 86 93 91 89 90 89 85 80 79 77 70 67 63 66 80 88 89 84 79 82 77 75 69 70 87 95 93 79 74 68 68 68 68
54 76 86 59 58 46 33 34 28 25 25 22 22 45 45 54 84 93 99 100 100 97 87 82 81 76 62 63 65 63 73 74 83 83 80 80 77 78 77 61 67 71 68 67 68 69 70 73 73
63 83 73 54 47 42 37 38 39 34 35 24 34 48 60 69 90 98 98 95 98 100 100 91 82 76 64 65 66 63 72 73 80 88 87 88 89 89 84 73 62 62 62 69 72 72 74 75 73
66 77 56 51 46 43 46 45 39 41 38 32 36 38 42 68 85 93 97 96 98 100 100 98 82 79 71 71 70 66 65 78 80 83 84 82 87 90 92 84 66 68 70 73 77 76 76 75 75
68 59 52 50 44 46 46 41 46 44 42 37 40 37 32 38 60 79 92 98 99 99 99 90 83 83 78 74 74 73 66 70 78 81 84 85 83 83 94 90 73 64 69 74 76 76 75 64 73
65 58 51 46 48 49 43 47 52 51 43 42 40 37 36 36 35 49 69 87 100 100 98 88 84 84 81 81 77 77 77 70 62 71 78 81 81 82 89 92 85 71 69 72 77 78 66 55 52
55 55 51 47 46 47 48 49 46 44 45 45 43 40 41 38 35 34 42 54 77 92 94 90 87 83 82 82 78 78 78 77 72 63 60 71 76 80 86 87 85 78 68 71 77 80 63 51 41
53 60 57 56 52 52 47 54 61 43 41 45 42 45 43 41 34 34 29 34 49 67 83 92 87 83 84 82 80 80 78 78 77 75 67 54 70 75 79 82 84 69 70 72 79 80 60 47 41
66 64 78 54 55 50 46 58 44 46 45 49 47 44 41 44 39 30 26 27 27 33 58 68 86 91 84 88 83 84 83 83 79 77 73 64 52 67 73 80 83 69 73 76 79 69 54 44 41
67 88 81 64 50 49 58 63 45 40 47 50 49 47 45 40 38 34 28 27 26 25 26 47 73 87 90 92 87 83 84 89 82 78 73 70 61 56 69 73 75 70 73 77 75 61 51 44 39
87 76 69 67 44 52 63 71 55 49 46 52 48 46 44 41 37 31 32 28 26 27 25 25 46 67 78 91 96 97 98 94 89 80 74 70 70 64 64 68 64 67 74 74 65 55 46 44 31
67 68 66 56 44 45 50 54 45 41 44 48 47 43 41 38 32 29 27 27 27 27 28 26 25 37 78 96 100 100 100 99 96 87 78 72 72 69 64 65 62 70 71 68 59 49 46 38 25
71 75 74 60 49 46 53 57 45 39 38 37 34 33 34 34 34 33 28 26 25 25 26 26 28 27 55 85 91 95 93 95 84 86 81 80 74 72 66 64 64 68 70 64 56 50 43 27 23
76 77 67 62 53 51 61 51 43 34 35 35 34 32 32 32 30 29 33 27 24 25 24 23 24 28 31 67 86 92 94 93 100 100 90 80 78 72 68 64 63 68 69 64 55 49 47 29 23
78 53 56 58 62 75 59 69 57 41 42 39 36 35 39 37 32 33 32 31 26 23 21 21 21 22 29 40 86 90 86 88 92 73 69 77 80 75 71 68 68 70 69 62 57 49 43 30 25
64 54 59 63 75 69 70 77 54 41 34 28 28 27 31 31 38 37 36 30 25 24 22 21 21 24 29 36 72 85 87 81 74 78 75 82 85 83 79 75 76 74 65 60 58 50 38 30 30
57 60 70 80 76 89 68 66 48 40 31 29 32 33 33 33 32 34 35 31 29 26 23 21 20 20 21 26 50 77 85 85 83 88 93 87 89 88 87 83 83 76 68 62 58 47 36 33 32
60 69 89 80 94 77 71 76 61 45 42 37 37 37 41 41 39 36 35 46 38 33 29 26 25 23 22 28 33 50 79 88 79 76 85 93 96 94 90 89 90 81 69 63 51 42 35 33 30
65 66 83 66 94 85 69 84 53 38 34 31 38 41 48 52 46 40 36 43 40 36 34 32 29 26 25 25 28 38 54 68 80 79 80 86 90 93 92 90 88 77 64 54 47 38 32 28 24
76 83 64 88 80 94 74 57 33 34 39 45 47 47 52 58 58 49 43 40 41 37 32 31 31 27 22 22 26 33 46 66 73 80 85 90 87 91 92 88 79 66 53 49 38 31 31 25 25
61 64 83 93 77 75 60 66 42 37 40 47 51 50 53 59 60 61 52 44 43 40 35 36 28 29 27 27 27 30 41 62 77 86 91 92 92 91 89 83 69 54 54 40 36 32 30 26 28
82 89 84 80 85 84 89 42 47 37 41 48 49 49 56 66 68 66 64 56 55 53 50 45 42 40 35 37 42 48 64 83 90 93 94 94 90 83 80 70 60 55 43 40 36 30 29 27 32
67 74 74 86 78 97 91 73 42 45 47 42 47 51 55 63 69 68 67 61 60 62 74 77 74 73 75 64 69 81 92 98 98 98 94 89 83 77 69 64 56 46 42 36 30 32 40 39 45

GFSSGP_925_rhum_060.txt.gz
RH
59 45 38 40 50 64 61 49 42 35 29 22 24 26 29 29 37 45 77 83 77 80 84 82 88 84 84 85 88 88 84 78 82 92 98 95 96 95 96 97 96 85 80 82 93 93 95 95 96
52 42 41 59 59 61 58 49 41 37 27 29 27 27 31 37 62 96 92 88 75 79 85 82 84 80 84 86 89 86 83 79 80 88 91 92 92 90 92 90 88 76 79 82 89 95 91 97 76
46 45 54 62 71 63 52 40 40 29 30 26 24 24 29 39 62 87 75 81 77 82 85 82 82 85 83 83 83 87 80 80 82 85 89 91 92 88 86 86 82 75 75 80 90 93 97 82 68
50 56 62 68 71 59 40 33 34 36 26 25 26 32 41 46 58 66 72 85 82 87 86 84 84 85 82 80 82 83 82 81 85 94 89 91 93 82 84 89 85 78 73 82 99 95 91 70 69
53 69 76 78 71 57 47 40 35 34 33 29 24 27 43 56 63 65 83 95 88 91 87 88 84 87 82 81 79 82 84 94 82 97 94 93 88 87 87 92 88 90 83 92 92 86 77 72 72
76 72 81 75 68 48 43 38 32 30 29 28 25 38 50 70 81 98 99 97 96 99 91 87 82 78 80 83 84 84 88 87 94 98 96 91 89 86 86 89 92 97 98 97 92 85 79 73 79
75 86 82 63 53 47 41 36 32 31 29 28 26 41 48 75 95 100 100 93 98 100 91 86 84 77 82 92 87 89 94 90 88 94 94 88 88 83 85 87 89 98 98 92 84 75 62 72 83
68 74 79 72 58 50 33 33 26 29 26 22 28 35 43 61 100 100 98 100 99 99 91 86 86 80 81 92 91 90 91 90 89 87 89 84 75 64 74 73 84 96 96 87 66 68 76 88 81
57 78 87 66 60 45 34 34 30 28 27 25 23 36 51 68 100 100 100 99 98 99 92 88 84 81 76 75 70 70 82 87 88 88 84 80 77 72 62 65 84 87 81 71 68 75 83 80 78
65 85 75 54 49 43 39 39 40 36 38 28 28 44 75 99 100 97 96 95 100 100 99 92 84 80 76 65 64 61 71 77 84 85 81 80 78 81 77 61 69 76 76 73 77 82 81 77 74
68 77 54 53 46 44 48 46 40 42 39 32 35 40 56 96 98 93 91 91 93 96 98 98 88 84 79 68 66 62 61 69 74 82 82 81 84 89 91 82 70 71 74 81 86 84 81 76 73
71 64 54 47 45 47 48 43 46 44 41 34 40 39 35 67 81 98 95 95 94 96 98 98 91 83 80 70 69 63 59 67 69 80 87 88 90 93 93 93 78 68 72 78 82 81 80 71 75
71 61 56 50 49 49 45 50 50 52 46 43 42 39 37 36 36 52 84 98 97 97 98 98 97 84 81 76 73 68 66 63 66 74 82 86 85 84 85 91 87 66 71 74 79 80 80 66 75
61 59 56 51 49 47 51 52 50 47 44 46 46 45 42 40 36 32 39 69 97 100 98 100 99 88 84 83 77 72 71 64 60 68 75 80 85 82 79 87 91 85 70 73 77 81 73 57 50
58 65 59 58 54 53 52 60 65 48 43 46 46 48 43 42 38 35 29 32 52 76 88 92 96 89 88 88 83 79 74 72 69 63 64 71 75 79 78 83 89 85 82 74 79 83 74 54 43
71 64 83 59 59 53 47 59 45 48 50 49 48 50 49 43 39 33 31 28 27 41 77 80 89 92 92 89 87 84 80 77 76 74 70 65 63 70 75 83 86 84 84 75 78 84 73 52 44
74 93 87 69 56 52 60 65 45 42 47 53 52 51 49 48 42 34 28 30 28 27 33 65 85 88 92 94 89 87 88 88 81 80 78 77 72 62 70 74 77 86 83 77 79 82 69 50 43
81 72 78 76 50 55 65 73 56 51 54 52 53 54 51 47 41 33 32 28 26 26 26 28 50 69 86 94 98 100 100 98 93 86 84 82 80 73 58 66 72 83 87 76 81 81 60 50 44
74 74 73 60 47 47 54 58 50 41 44 48 50 47 47 43 38 34 30 28 26 26 30 29 28 38 90 100 100 100 100 100 100 91 86 85 83 78 65 58 68 78 82 73 78 69 55 47 38
64 73 73 60 52 48 56 60 48 41 42 40 38 37 39 38 37 35 29 26 26 24 25 29 29 28 62 90 91 98 98 99 100 99 92 88 85 83 75 69 64 74 74 72 76 67 51 42 33
79 78 72 66 54 54 62 54 45 34 35 35 36 37 37 38 35 32 34 30 26 26 25 26 27 28 32 65 84 100 100 99 100 99 100 88 91 88 82 77 72 72 66 68 73 63 55 43 32
100 64 59 59 64 77 59 74 56 42 37 36 39 35 34 35 36 39 37 33 30 26 24 24 28 27 30 56 89 97 96 96 99 99 76 76 82 80 88 81 80 74 67 70 72 65 56 52 37
70 56 61 65 75 68 66 73 50 38 33 32 40 38 42 43 38 38 40 36 31 29 27 25 24 24 24 30 80 89 98 97 92 93 93 96 74 82 89 85 82 78 71 75 74 70 56 55 48
61 64 72 77 73 86 65 63 42 39 37 39 37 44 51 53 50 45 37 39 37 34 31 28 26 24 24 26 36 73 87 94 94 87 92 89 91 91 93 91 84 79 79 75 76 72 63 55 48
58 69 87 74 89 78 72 76 58 46 44 40 39 49 55 60 56 51 48 47 41 38 35 32 32 29 29 28 29 40 62 82 85 86 85 94 98 98 95 87 88 85 84 80 79 70 65 54 47
69 65 81 61 88 73 71 84 52 41 39 41 42 49 54 62 66 61 54 50 46 43 40 38 35 31 31 32 32 37 50 74 85 86 86 88 88 90 89 97 98 93 88 82 74 70 60 49 38
72 86 62 87 80 92 75 60 38 38 41 47 47 52 55 61 67 68 64 51 49 48 44 44 42 39 35 38 34 31 32 40 46 58 80 89 89 90 95 100 98 97 93 86 74 62 53 38 32
62 65 80 90 81 71 54 58 37 41 43 47 49 53 54 59 66 70 69 59 54 56 53 50 52 49 43 40 48 51 43 41 42 52 69 88 96 99 100 100 100 98 91 78 63 53 37 30 28
79 89 82 78 85 78 78 37 44 44 46 46 51 51 58 67 71 73 72 62 62 62 71 71 72 73 67 65 59 58 62 62 68 82 91 98 99 100 99 99 95 87 74 60 49 36 33 30 32
66 76 72 85 83 97 92 62 39 46 46 46 47 50 63 73 74 74 72 67 67 78 76 67 67 70 75 79 82 82 89 97 100 100 100 100 99 98 96 89 78 65 56 47 38 35 33 34 40

GFSSGP_925_rhum_063.txt.gz
RH
66 47 38 38 42 47 49 40 39 34 30 22 24 25 28 30 38 37 78 91 74 75 88 92 83 84 83 85 88 89 87 81 87 92 99 98 98 98 98 98 97 93 90 86 94 90 91 94 87
62 44 40 51 47 48 42 42 39 35 27 27 26 28 36 34 55 82 89 90 80 86 96 98 85 81 82 86 88 83 79 75 80 86 93 98 96 96 98 96 85 79 80 82 92 95 96 96 67
52 44 46 52 54 47 42 36 34 30 29 26 24 25 28 37 56 76 78 86 87 96 88 95 82 81 82 86 84 81 73 74 76 81 86 87 92 92 90 86 79 74 77 79 93 92 92 85 58
52 51 50 54 62 51 34 32 34 32 26 26 25 23 32 50 58 70 80 94 100 96 94 88 82 81 78 76 81 82 75 75 77 79 84 87 91 86 87 87 78 74 78 77 87 99 88 75 66
51 55 62 68 57 51 44 36 36 34 32 29 25 23 29 58 68 74 89 97 98 91 87 90 86 81 77 72 77 74 78 79 79 81 88 91 91 86 90 86 80 76 80 97 98 87 89 75 67
62 58 66 63 60 49 44 36 34 34 30 25 25 28 37 75 94 98 100 94 96 99 93 97 86 82 82 78 76 75 79 78 83 94 95 94 90 89 90 88 91 86 83 98 89 84 82 63 64
66 68 61 59 48 46 42 36 34 32 29 25 24 30 36 69 93 99 98 99 98 99 94 95 93 84 75 76 78 81 85 86 89 92 92 92 90 88 90 88 94 97 98 91 85 83 71 71 70
64 61 72 63 48 46 34 34 29 30 26 22 26 26 26 61 98 99 99 99 99 99 91 88 84 78 78 83 82 86 87 86 90 83 89 88 80 74 86 75 92 96 97 91 82 74 84 89 69
57 70 69 57 56 42 36 34 31 28 26 26 24 31 48 70 98 99 100 99 98 98 94 87 84 84 80 81 86 88 92 88 88 87 88 84 77 80 79 74 83 91 95 83 76 86 93 79 76
62 73 66 52 48 42 39 37 38 35 37 31 29 41 89 97 98 94 93 95 100 99 99 98 91 88 86 86 89 85 88 92 90 90 90 81 76 69 60 69 78 78 72 74 80 88 82 78 75
67 68 55 52 44 42 47 45 41 41 41 35 33 39 77 92 94 88 89 89 94 96 100 100 99 91 89 83 80 74 75 79 85 88 84 79 78 82 79 65 77 87 76 90 92 86 82 78 74
73 63 53 46 48 49 52 45 46 45 39 34 41 39 42 82 90 86 84 86 91 93 96 96 97 93 87 79 72 66 68 72 72 79 81 78 82 84 88 83 68 70 70 78 85 83 80 79 75
71 62 56 49 48 49 47 50 47 48 42 41 41 41 38 40 62 79 90 90 88 91 94 97 99 98 88 83 71 67 64 65 59 70 77 79 81 86 90 92 88 68 72 77 80 81 79 71 74
62 59 55 53 50 48 52 52 52 46 43 42 44 41 41 39 35 35 56 86 94 92 93 95 98 98 91 88 78 70 66 62 58 65 71 81 83 82 85 90 94 82 70 74 78 79 80 66 73
60 70 64 54 54 52 52 56 62 44 43 42 41 39 41 38 38 35 31 35 63 83 93 97 99 99 98 90 84 77 72 68 62 64 68 74 78 84 82 81 88 92 79 73 79 83 80 63 54
71 68 81 60 53 52 46 52 45 44 47 45 44 42 44 40 36 33 31 30 29 36 73 89 96 98 99 93 88 86 82 77 72 67 65 69 74 77 83 82 82 89 89 81 78 83 84 63 50
80 89 84 66 57 54 48 58 47 45 48 46 45 44 44 43 40 39 33 32 29 28 28 45 78 94 96 93 96 90 90 85 79 77 72 69 68 67 76 79 77 86 92 90 78 82 84 68 50
86 82 83 68 55 61 66 67 57 44 46 48 47 44 43 44 39 35 32 30 28 27 27 28 45 69 88 100 100 100 100 96 94 84 82 80 77 73 70 70 74 83 94 94 83 83 81 68 51
68 68 76 69 50 49 57 59 49 42 42 41 40 39 38 38 37 35 31 30 30 30 29 28 30 35 85 100 99 100 100 100 100 96 91 85 83 81 82 75 66 75 85 92 82 85 78 60 47
64 71 74 60 51 50 56 54 45 40 42 38 36 36 37 36 32 32 33 30 30 29 28 28 30 29 55 92 98 99 100 99 99 100 99 96 89 87 86 84 69 65 80 92 88 82 75 54 46
72 70 74 65 55 54 58 52 43 34 35 35 35 34 34 34 34 31 32 33 30 30 28 26 26 28 31 68 96 100 99 99 98 99 99 100 92 87 86 86 80 62 73 84 87 79 76 54 44
94 66 63 60 66 75 58 62 51 39 38 42 44 45 44 45 42 38 40 38 34 31 30 29 28 29 31 36 95 98 94 92 93 98 100 100 100 94 92 89 89 80 71 78 81 77 74 65 50
94 81 60 64 72 66 63 63 45 36 38 42 43 47 50 52 50 45 43 47 40 34 32 29 28 28 32 35 71 89 91 90 89 94 100 100 100 100 98 97 92 87 82 76 78 77 73 67 61
65 63 66 71 70 78 64 60 39 39 39 41 41 48 53 58 56 51 49 48 44 41 38 37 32 29 28 30 35 86 95 96 100 94 99 100 100 100 100 100 100 96 89 84 78 77 76 68 63
60 70 82 75 84 66 72 74 47 41 43 40 45 48 52 61 61 59 55 54 54 51 45 41 40 37 34 33 34 45 98 100 96 96 98 100 100 100 100 100 100 100 98 93 86 82 82 73 65
67 68 78 58 71 62 70 76 45 42 40 40 42 47 54 60 62 64 62 58 54 54 54 51 44 39 38 36 37 40 46 68 94 96 92 92 96 93 98 100 100 100 100 97 92 87 86 80 68
68 77 59 86 80 82 66 57 39 42 45 44 46 50 54 59 64 66 65 64 58 59 59 65 60 52 48 44 39 39 39 38 48 69 90 96 96 96 98 100 100 100 100 100 98 92 88 80 68
61 63 77 86 75 65 49 51 42 50 45 44 47 49 53 64 69 69 68 68 61 66 73 68 64 64 70 67 59 54 51 51 49 49 58 70 84 98 100 100 100 100 100 100 96 90 82 67 53
76 84 78 73 75 61 56 33 41 46 46 47 48 49 60 76 75 74 70 73 74 79 70 66 67 68 70 77 80 72 70 71 72 74 77 86 97 100 100 100 100 100 100 98 90 78 65 49 35
63 74 68 82 82 90 86 48 36 43 50 51 47 48 74 77 77 69 72 81 89 80 71 68 67 70 76 82 87 95 96 98 99 99 98 99 99 100 100 100 100 98 94 84 74 59 41 34 38

GFSSGP_925_rhum_066.txt.gz
RH
70 59 43 32 31 28 26 24 21 24 23 17 17 19 19 21 22 28 65 68 60 63 77 89 83 81 81 83 86 88 87 85 85 94 96 98 98 97 97 96 96 85 90 95 90 88 92 92 81
66 48 36 30 31 33 26 20 25 19 19 18 19 19 20 23 30 48 58 77 64 70 75 81 81 77 84 84 86 87 86 82 83 88 96 96 98 97 94 96 87 86 89 90 91 95 97 85 83
64 47 31 32 32 31 25 22 19 20 19 20 19 18 21 25 37 47 67 74 66 72 74 83 80 81 84 85 86 84 81 75 79 84 86 88 96 96 94 87 78 80 82 86 89 92 80 80 87
47 36 32 38 36 28 22 19 21 21 20 19 18 19 20 40 40 55 71 70 68 70 72 89 82 81 83 82 85 82 78 76 78 77 81 88 92 91 87 77 75 72 79 86 93 96 74 78 87
47 34 40 43 34 27 25 19 21 22 22 19 17 18 18 44 64 68 72 71 69 69 73 94 82 80 82 79 79 80 76 73 75 77 81 87 88 88 87 83 79 72 77 83 99 92 80 75 78
44 35 41 43 35 27 27 22 21 22 20 18 16 18 20 57 65 73 74 72 75 73 80 87 86 81 81 78 78 77 75 73 78 78 82 90 88 89 81 83 82 72 92 99 98 89 83 71 75
42 42 40 31 31 30 29 22 24 19 19 19 15 19 20 44 73 82 74 71 76 80 78 83 90 88 81 78 76 74 74 78 81 77 89 92 90 90 86 85 85 85 91 98 94 95 82 78 70
34 38 37 31 33 32 24 26 21 21 20 15 16 17 18 45 80 95 92 71 76 93 74 80 82 82 81 79 74 73 78 85 85 82 82 88 81 79 85 88 90 90 94 93 88 83 80 76 65
37 37 33 35 36 28 24 27 21 18 17 18 17 19 33 53 89 96 95 77 86 92 73 72 73 73 71 70 82 83 84 80 91 87 82 87 69 75 79 75 88 90 92 91 83 85 80 67 67
39 37 28 22 26 29 30 23 22 23 20 20 19 26 53 56 89 87 87 85 92 93 90 78 75 72 73 75 75 78 75 78 75 88 86 75 65 64 62 74 84 91 93 80 81 87 78 74 70
42 40 28 39 34 30 33 28 26 24 28 19 20 25 52 70 82 84 82 82 86 88 96 96 88 77 75 75 71 70 70 68 67 71 73 70 68 75 68 74 81 82 78 76 81 91 78 72 66
56 40 36 35 42 40 40 30 30 27 21 22 27 29 34 59 74 81 78 79 82 86 92 96 90 97 77 75 75 65 67 68 66 69 71 71 69 74 69 62 67 72 71 71 73 72 74 76 67
61 46 40 33 40 40 41 38 29 31 26 29 29 32 29 37 60 76 79 77 78 80 87 93 96 99 80 78 76 66 65 69 64 68 71 69 68 70 74 74 69 67 68 69 73 73 71 73 66
51 49 46 38 38 41 44 40 40 31 26 29 29 29 28 29 31 54 71 78 82 83 84 91 96 99 97 80 79 72 68 69 68 67 70 70 68 70 75 81 83 72 70 69 72 72 68 68 59
51 60 49 45 42 42 38 44 42 29 27 26 26 25 26 28 29 28 33 50 63 70 76 82 91 96 100 88 84 81 75 71 69 69 69 73 76 78 78 76 81 87 70 70 72 75 69 61 56
60 56 67 44 42 45 38 32 29 28 26 25 22 21 21 23 26 26 27 29 30 44 61 71 80 94 100 99 91 88 83 79 73 71 70 73 74 78 79 77 76 79 83 74 72 74 67 60 52
60 55 52 48 42 38 44 33 25 26 30 29 27 26 25 24 24 24 25 28 28 28 32 47 63 77 92 100 99 98 90 88 78 75 72 74 75 76 77 74 74 77 87 81 76 72 68 63 54
58 54 49 46 51 44 43 39 40 37 38 33 27 26 26 26 24 23 24 26 26 27 28 28 40 62 74 99 100 99 99 99 86 84 79 76 76 78 80 74 74 74 85 89 84 74 70 66 60
34 49 51 46 40 52 48 45 39 33 33 31 27 24 23 23 22 26 28 28 30 31 30 29 30 40 60 88 100 100 100 100 99 100 91 86 85 80 82 78 76 74 77 88 88 79 71 65 58
47 50 48 54 45 43 45 45 38 35 33 30 28 26 24 25 24 22 22 24 26 28 29 32 30 31 38 58 91 88 94 99 100 100 98 98 96 90 88 84 80 77 78 79 88 81 73 67 56
53 44 45 49 48 43 44 43 39 31 28 27 26 27 28 29 27 26 25 24 28 30 30 30 33 34 34 44 56 74 82 93 97 99 99 98 100 98 94 93 90 86 82 80 84 84 74 68 58
87 52 50 51 52 55 45 37 38 31 37 34 34 35 35 34 30 30 33 32 34 34 37 36 35 35 36 41 52 64 72 76 84 85 92 98 100 99 100 100 95 96 92 82 85 86 79 72 62
94 50 51 53 56 54 51 47 36 31 39 40 39 41 42 40 37 36 38 40 42 47 46 41 36 36 36 38 48 62 69 67 72 77 82 86 97 98 100 100 100 100 98 93 89 88 84 77 71
78 61 52 51 54 75 48 49 33 29 31 39 40 42 44 44 41 38 42 44 46 49 48 48 40 36 36 41 43 57 63 68 74 75 78 82 91 97 99 100 100 100 100 100 94 94 89 84 77
84 83 94 84 79 57 54 56 33 33 32 36 42 45 47 47 46 45 44 43 48 52 54 48 45 40 41 41 40 43 56 68 73 74 78 81 90 98 98 99 99 100 99 100 100 99 95 89 82
68 60 59 60 59 43 58 50 34 33 30 34 38 41 48 50 49 50 50 50 47 52 56 59 58 50 45 44 44 44 50 54 71 82 80 80 83 97 100 98 100 100 100 99 100 100 100 96 90
60 72 46 68 62 52 37 42 33 36 36 36 38 41 50 54 54 54 53 53 50 54 61 64 60 61 64 66 61 52 51 54 58 70 82 86 89 96 100 99 99 100 100 100 99 100 100 100 96
54 47 63 76 67 51 37 35 36 45 41 40 40 39 45 55 56 53 51 57 60 65 64 61 61 65 72 75 73 72 75 75 75 74 72 77 82 94 100 100 100 100 100 100 100 100 100 100 97
61 64 61 50 54 40 30 23 25 36 37 36 37 39 48 56 56 52 54 59 69 65 63 61 62 66 72 78 84 93 92 90 92 91 91 94 96 100 99 98 97 100 100 100 100 100 99 91 81
52 54 47 66 73 66 60 32 27 32 33 37 34 38 50 59 53 58 65 68 64 62 62 63 64 66 74 81 86 92 90 89 91 92 94 97 98 98 98 100 100 100 100 100 98 88 82 83 71

GFSSGP_925_rhum_069.txt.gz
RH
62 56 37 28 32 25 27 22 16 17 17 14 14 16 14 15 15 31 50 51 44 59 77 90 81 82 85 85 86 86 85 84 82 83 94 97 96 95 90 91 90 92 93 89 85 90 93 86 85
56 46 34 27 33 32 26 18 20 16 15 15 15 16 17 17 20 39 47 60 49 58 74 79 81 81 85 86 87 87 85 83 82 84 96 94 91 92 89 93 92 92 90 88 94 96 88 86 85
66 44 32 32 34 30 25 16 16 15 16 16 17 15 17 19 31 37 52 54 50 58 65 78 77 79 84 83 86 86 84 80 78 81 89 94 92 96 92 86 82 80 89 87 92 90 74 81 83
53 38 33 37 33 26 20 16 15 14 16 15 16 18 18 32 32 44 56 51 53 55 60 75 77 82 84 82 84 85 82 75 76 76 79 84 94 93 85 82 80 78 84 82 93 83 71 76 81
40 33 42 40 34 24 18 15 16 15 15 15 15 17 18 39 47 52 54 51 51 52 78 89 79 83 83 83 85 81 77 77 75 77 82 86 90 88 89 83 74 73 77 88 96 80 73 86 83
47 35 42 44 32 25 19 17 17 15 15 15 15 15 22 46 49 53 54 52 52 54 80 90 85 80 81 80 79 80 79 74 75 77 81 88 88 88 82 86 72 77 82 96 98 87 77 83 76
41 40 42 30 28 25 21 18 19 17 16 17 13 16 23 39 56 56 54 56 55 58 79 86 85 86 82 80 78 81 78 74 80 78 81 86 85 73 84 91 77 88 95 94 94 83 77 69 65
35 34 38 31 27 25 19 18 19 17 15 11 13 15 18 45 65 64 56 55 58 62 64 79 79 78 83 79 78 74 76 76 80 77 78 86 75 66 81 83 83 84 89 93 90 84 74 65 60
28 38 38 33 28 24 17 22 19 16 16 14 13 12 30 49 73 76 72 54 63 70 57 66 76 74 69 66 78 75 77 82 88 86 77 83 70 71 64 82 82 82 88 88 83 77 75 66 59
45 41 30 23 22 22 22 22 21 20 18 15 14 15 32 43 71 75 73 55 72 83 59 56 57 57 56 56 76 75 79 84 85 92 83 73 57 59 56 74 84 86 88 88 80 76 67 65 72
45 39 27 19 27 23 26 24 18 19 19 14 15 14 27 34 53 70 76 75 80 83 78 63 55 56 55 58 59 63 61 64 63 70 79 65 55 61 62 73 83 90 90 89 84 87 83 71 59
47 36 28 24 32 34 30 23 18 20 16 14 14 19 26 40 44 60 71 70 70 80 84 85 64 57 56 58 59 55 57 59 56 58 62 61 58 63 55 60 66 70 72 65 72 72 67 65 61
50 34 32 31 36 33 29 30 21 21 20 20 24 27 23 29 41 56 66 70 58 67 80 88 82 72 60 59 62 55 54 56 55 56 59 59 59 60 58 54 56 61 60 58 64 62 62 65 61
51 42 39 34 33 36 41 31 28 23 20 22 23 24 24 23 27 45 62 69 65 65 63 84 92 88 81 61 64 62 57 56 56 55 60 60 58 58 60 63 60 58 57 58 60 62 62 61 60
49 57 47 40 34 37 36 42 39 26 23 23 23 20 20 21 24 26 42 55 60 64 67 71 82 88 93 76 68 66 63 60 60 58 59 61 59 60 60 63 71 71 61 58 60 61 61 59 57
61 54 60 48 39 36 38 38 25 26 26 24 20 18 19 19 21 23 26 30 41 49 57 61 67 80 92 96 73 69 69 66 63 61 60 62 60 62 66 66 65 74 73 62 60 62 64 59 56
61 76 51 40 35 39 43 34 20 23 24 23 19 17 16 16 16 18 21 25 28 30 38 50 60 69 81 90 93 77 72 68 67 64 63 62 64 64 68 68 66 64 70 70 64 63 64 59 56
61 55 38 39 40 38 42 40 27 26 26 24 20 18 18 18 18 16 18 20 23 27 27 28 37 53 66 76 90 94 89 75 72 68 66 64 64 66 68 68 66 65 67 74 71 66 65 61 59
32 36 35 31 39 41 38 33 32 26 31 29 23 20 19 18 16 17 19 20 23 24 25 25 26 29 46 56 92 96 100 95 90 75 69 70 68 68 71 71 68 68 67 77 78 72 68 66 62
40 33 33 32 33 44 36 36 29 30 29 28 25 20 18 17 16 18 21 22 22 24 26 27 26 26 28 41 64 90 94 97 99 99 90 85 76 75 74 74 74 70 70 69 82 79 76 68 65
68 40 34 38 42 42 37 39 35 30 28 26 26 24 22 23 23 20 20 22 23 24 24 25 26 27 27 28 37 70 74 76 89 96 97 99 97 85 84 78 79 76 73 72 74 81 79 73 66
64 33 30 37 49 46 39 29 29 28 30 28 26 26 26 27 26 27 29 29 32 31 32 32 31 30 31 31 32 37 56 64 70 78 86 93 96 97 95 91 86 87 83 78 75 78 83 76 70
78 46 38 43 44 46 50 49 33 29 35 31 30 33 33 32 30 33 36 36 40 46 46 42 36 34 32 33 35 37 45 52 60 61 67 72 84 91 98 99 95 95 88 89 85 81 83 80 72
51 50 51 50 53 78 41 41 38 33 31 33 33 34 36 36 33 33 38 39 44 48 46 44 37 34 33 34 36 38 45 52 60 60 63 64 69 81 90 97 99 96 99 94 96 91 92 87 80
76 83 98 98 92 58 40 49 30 27 26 31 34 36 40 39 38 38 39 39 45 48 51 47 43 38 38 37 37 37 42 50 56 60 64 66 70 77 80 92 97 96 94 97 97 97 96 94 90
96 97 98 72 62 46 45 53 33 26 25 32 35 38 42 42 42 44 45 45 44 48 53 54 52 51 49 45 42 39 41 41 44 55 64 66 68 73 82 88 93 94 97 98 100 100 99 100 99
95 89 47 51 42 41 36 32 31 31 30 35 35 38 45 47 47 47 46 48 48 52 56 55 53 55 59 61 57 51 46 48 50 54 61 67 72 75 83 91 97 99 99 100 100 99 100 100 100
66 53 66 78 61 47 33 30 31 35 37 34 37 38 42 47 48 46 45 49 55 57 57 55 55 58 63 65 67 69 72 72 72 70 67 68 69 74 86 94 94 97 95 100 100 100 100 100 100
59 60 55 50 51 42 32 24 25 32 33 37 36 36 41 48 49 48 49 54 58 56 55 55 56 59 64 67 74 79 78 78 79 79 79 80 82 85 88 92 98 92 97 100 100 100 100 100 100
46 48 42 66 65 58 61 36 25 29 32 31 35 37 42 51 50 53 57 56 55 55 56 56 56 60 66 71 72 75 74 74 74 76 80 83 87 88 93 95 98 100 100 99 99 100 99 99 98

GFSSGP_925_rhum_072.txt.gz
RH
29 36 49 44 55 43 42 32 19 18 16 15 15 16 20 19 40 65 44 44 67 85 94 80 74 81 81 82 83 83 85 85 86 85 85 93 97 92 86 79 81 97 88 86 91 92 88 86 85
35 48 45 50 53 47 37 24 24 17 20 16 15 17 18 21 42 51 52 47 65 83 92 84 78 81 81 85 86 85 83 78 74 76 81 85 88 91 89 90 85 87 87 91 96 82 78 80 81
35 58 63 52 50 46 36 23 21 18 17 15 16 16 17 36 38 46 55 48 62 77 82 87 79 84 84 85 85 83 81 75 76 74 74 78 90 97 86 84 80 90 87 92 88 71 74 69 78
58 64 54 59 46 37 30 21 16 18 17 15 16 19 28 39 40 51 54 48 59 67 76 75 79 83 84 85 84 85 83 72 70 73 79 82 91 89 84 83 78 78 82 92 87 74 75 72 74
59 91 86 66 49 32 25 20 16 17 19 17 16 19 45 44 49 53 49 49 55 71 76 71 78 80 83 83 85 85 76 72 75 79 82 87 94 88 78 77 74 76 78 94 87 77 72 80 70
75 65 92 85 52 33 25 20 18 16 16 17 17 18 51 46 50 51 50 50 60 78 82 68 79 83 80 84 85 76 73 75 75 79 82 86 91 93 84 78 73 76 84 96 92 84 78 81 64
67 65 74 65 49 35 27 20 20 18 17 18 14 17 50 54 52 51 49 49 72 79 81 78 85 83 81 79 80 79 73 72 73 78 82 82 83 85 90 77 80 82 88 94 97 82 77 76 56
51 54 64 59 47 34 22 21 20 21 20 13 13 18 63 60 54 52 53 53 70 78 80 79 85 82 82 79 78 75 69 71 72 74 78 77 61 67 84 82 79 92 91 94 88 79 73 61 53
41 59 62 53 41 32 20 22 20 19 21 16 16 20 49 64 67 63 53 54 59 74 74 76 75 81 77 75 78 74 73 74 76 72 75 82 62 47 79 78 80 81 85 85 84 77 66 50 50
55 57 51 35 30 29 24 22 23 23 22 21 16 34 46 70 70 72 64 63 63 69 71 73 72 70 72 75 73 72 74 72 77 76 76 78 69 58 54 79 83 84 84 87 82 71 51 53 53
56 63 40 32 28 33 27 26 22 24 27 21 19 24 35 59 64 71 68 69 75 73 73 66 70 62 64 67 71 74 71 74 79 83 78 74 63 60 57 68 82 85 89 88 78 61 54 70 72
57 48 44 30 33 33 30 25 25 22 22 19 17 18 39 38 58 70 71 72 75 77 78 69 58 54 54 56 66 67 73 71 69 80 73 69 58 59 62 64 60 78 79 80 70 66 55 66 66
65 46 37 34 33 35 29 30 26 23 19 20 28 29 25 38 42 55 68 70 73 78 79 75 68 58 54 58 58 56 58 61 59 59 67 64 59 61 58 61 63 69 72 68 68 73 68 68 65
55 51 41 32 35 36 39 35 30 25 21 24 28 26 25 23 29 52 60 67 66 71 76 75 73 71 64 57 60 57 54 55 56 56 59 60 61 60 61 55 58 63 64 60 64 65 64 65 65
51 67 58 40 38 40 38 46 41 28 27 26 27 26 25 26 24 27 58 63 66 63 73 78 76 77 70 68 62 64 58 56 57 55 57 60 60 59 60 62 59 57 58 59 59 63 63 63 63
64 64 81 50 42 39 41 55 39 30 31 31 27 26 26 23 21 23 25 48 62 63 66 71 77 80 82 76 75 66 65 62 60 60 57 60 61 59 60 61 67 66 66 60 59 61 62 61 60
78 87 77 57 45 41 46 50 31 27 32 32 29 26 22 22 21 21 22 24 28 40 58 65 70 79 84 89 79 74 68 68 65 63 61 61 62 61 61 63 66 71 70 71 62 60 63 64 60
75 78 61 56 50 44 52 51 30 26 26 30 27 25 22 20 19 16 17 20 22 26 29 36 59 69 76 84 85 82 81 71 68 68 64 64 62 63 62 67 69 67 70 74 69 63 63 66 62
64 57 50 44 34 50 49 52 42 31 33 34 32 27 23 22 19 18 18 17 19 21 26 28 28 35 63 82 89 85 84 84 78 74 71 67 64 64 65 66 69 68 66 67 71 70 66 66 62
61 54 50 38 40 46 45 46 36 33 32 35 32 29 25 21 20 19 21 21 22 23 25 25 26 27 29 43 72 83 83 84 89 84 79 74 71 67 67 67 70 71 69 68 73 72 73 68 66
61 69 64 41 44 42 40 46 40 31 30 30 30 29 28 27 28 26 25 24 24 23 24 26 27 27 27 28 35 76 81 81 85 89 91 86 83 80 77 72 73 75 73 71 72 77 76 76 69
76 53 58 40 53 71 48 60 40 35 37 35 31 28 28 28 28 32 35 34 35 37 31 30 29 30 30 29 29 49 84 85 88 85 82 84 89 92 85 95 83 78 79 75 79 78 86 82 78
85 78 51 59 55 54 58 64 40 36 37 36 32 33 35 33 36 41 39 40 46 48 46 40 33 31 31 33 33 34 36 43 67 72 76 81 80 83 85 87 82 91 83 82 79 79 84 88 84
88 91 80 63 61 92 57 60 48 40 35 34 37 40 40 39 41 44 41 45 50 51 47 43 37 36 34 33 33 34 35 40 49 58 62 62 64 68 80 89 94 94 93 88 86 86 86 92 89
94 100 99 98 98 86 48 61 46 32 31 34 42 45 46 44 46 47 47 47 49 52 54 52 50 45 41 39 38 37 38 40 47 55 62 65 66 68 73 81 80 82 85 86 88 90 94 93 95
97 97 98 89 90 69 47 67 43 31 32 34 39 48 48 51 53 54 53 49 49 52 57 55 53 56 58 57 52 44 41 42 43 44 51 62 68 70 74 78 79 82 87 92 90 91 97 100 98
99 100 85 74 50 74 59 42 36 30 42 44 45 47 54 56 57 54 51 52 53 57 56 55 55 60 64 65 63 60 63 60 61 55 55 62 71 76 82 89 89 80 94 98 100 99 99 100 100
94 68 89 97 82 71 51 49 49 45 45 44 45 49 56 55 55 54 55 55 58 57 55 55 57 61 64 69 73 74 73 71 70 73 75 72 74 76 80 84 87 96 88 89 87 96 99 100 100
96 100 62 59 64 80 65 43 33 39 39 42 44 45 53 58 56 58 59 59 57 56 56 56 58 62 68 71 76 77 77 77 79 81 82 83 85 84 88 91 92 97 100 96 95 92 99 99 100
52 60 56 91 76 81 83 53 30 36 40 43 43 42 52 58 58 62 63 56 56 57 56 56 59 64 68 72 74 72 72 70 70 71 76 80 80 81 88 89 89 89 92 98 100 100 100 100 100

GFSSGP_925_rhum_075.txt.gz
RH
40 40 37 48 60 62 61 47 27 20 19 19 17 20 21 25 51 60 54 56 72 80 91 82 76 80 82 81 80 81 81 84 85 83 89 94 96 86 81 94 97 95 86 90 90 89 86 83 79
45 55 44 62 70 69 57 35 33 23 20 17 17 18 24 60 56 56 80 80 78 77 90 80 78 79 80 80 80 81 83 83 75 72 75 77 85 85 83 92 94 86 95 96 87 82 81 78 56
56 58 75 73 76 72 53 32 29 21 18 18 18 18 27 47 55 54 69 84 78 83 88 85 79 83 81 83 82 81 79 72 74 72 76 76 92 91 83 85 92 85 91 84 71 70 75 62 46
56 59 62 86 84 56 44 37 26 23 19 18 18 22 49 50 51 54 69 81 74 82 81 86 83 85 84 82 80 78 77 70 73 73 75 77 88 88 85 67 73 83 92 86 73 68 69 55 49
64 82 87 91 75 53 42 33 28 20 21 18 18 30 60 57 55 54 68 73 79 83 80 84 85 83 83 82 83 79 77 72 73 76 82 89 92 83 68 75 76 78 91 90 80 70 69 54 52
93 82 89 77 71 50 40 35 22 18 20 20 19 41 61 56 53 51 61 71 71 80 75 81 85 82 80 83 86 78 74 72 74 79 87 95 92 77 82 70 76 78 94 90 94 75 70 56 58
84 92 76 70 66 55 46 31 21 19 19 20 16 45 72 64 52 52 60 72 78 76 72 75 82 83 81 85 84 76 69 74 75 79 82 73 80 82 72 76 75 84 93 91 88 76 71 56 56
81 84 76 70 66 68 44 36 25 20 20 15 16 54 82 63 53 56 75 82 79 77 70 76 84 83 80 81 77 73 69 69 74 79 82 72 66 82 80 83 78 82 88 96 82 75 68 50 52
73 82 80 72 64 53 38 42 28 20 19 18 20 62 68 64 61 63 78 86 84 82 77 76 78 82 78 74 75 71 72 70 73 73 75 81 58 81 80 83 85 86 87 87 82 76 67 47 47
79 83 64 48 47 45 36 42 44 45 24 23 58 79 68 64 65 72 65 80 90 89 85 74 71 78 71 72 72 72 74 72 73 72 74 74 58 49 78 78 80 83 82 84 83 76 61 44 44
73 69 49 41 38 35 42 58 31 39 30 23 51 86 81 75 76 79 73 70 80 80 77 71 69 69 71 74 72 72 74 72 72 74 76 73 66 62 56 78 82 83 84 87 84 73 46 50 56
74 57 50 40 36 38 36 31 32 37 24 30 26 47 78 84 83 79 79 79 74 76 78 78 70 70 73 76 75 72 73 71 75 75 76 73 76 64 62 64 74 81 83 87 82 65 45 67 69
82 60 49 43 45 44 39 34 29 26 21 32 30 39 52 70 82 65 71 76 71 69 74 78 77 73 71 72 71 66 70 72 74 78 77 66 74 61 60 61 62 63 69 70 67 58 48 64 70
63 63 58 47 54 42 42 36 32 27 23 30 31 28 28 38 63 76 71 71 77 63 63 70 72 68 62 60 62 64 70 71 70 68 70 66 68 59 60 59 61 62 66 64 66 67 70 68 67
61 80 73 63 46 46 40 46 44 32 31 34 34 31 27 26 40 64 70 69 72 75 64 60 66 68 70 61 59 56 57 60 60 58 64 67 65 60 60 58 59 60 65 66 64 67 68 70 68
64 68 90 67 46 42 45 60 43 34 33 35 34 32 30 26 27 28 56 63 60 69 75 72 62 65 68 71 70 64 59 56 55 56 56 59 61 62 61 62 58 58 62 61 61 64 64 66 65
77 94 82 67 52 46 47 52 37 35 35 40 37 32 29 28 26 24 24 44 59 62 66 77 74 66 62 68 72 76 71 61 61 59 58 57 59 62 61 60 62 65 61 62 60 60 61 64 64
77 86 82 80 57 56 56 54 41 29 34 39 38 33 30 29 25 21 20 23 25 42 64 67 75 76 74 65 66 76 78 66 65 64 63 63 60 60 62 60 61 63 70 70 68 64 61 62 65
67 77 76 67 51 58 61 57 48 40 33 38 37 32 30 28 22 19 20 21 23 22 32 60 58 74 81 83 81 73 79 71 69 68 68 66 64 63 62 62 62 65 69 71 73 73 64 64 66
71 73 70 51 48 57 62 59 50 42 41 36 36 35 32 27 29 27 25 24 24 24 26 28 28 43 76 77 81 80 72 75 74 72 80 73 69 65 64 64 63 65 70 70 70 75 71 66 67
79 84 74 58 50 47 56 60 56 44 38 37 34 33 30 28 30 31 33 31 27 25 24 25 27 27 28 52 81 86 86 82 75 73 73 81 84 83 72 68 66 66 69 70 70 70 75 76 73
87 61 62 64 63 93 50 79 53 45 41 36 36 36 31 28 32 41 42 41 36 36 33 28 27 30 30 30 35 78 82 88 78 69 58 52 65 79 83 82 83 76 72 73 73 72 73 83 84
82 80 78 71 84 60 62 65 55 42 44 36 41 35 32 36 44 46 47 46 47 45 42 37 31 29 29 31 33 36 67 86 81 79 77 80 76 74 67 69 74 87 94 84 83 85 87 91 92
79 85 85 81 90 99 74 69 58 55 41 39 34 42 45 48 50 48 47 50 53 52 48 48 38 39 36 32 30 32 35 36 38 49 82 84 78 80 77 79 81 84 89 92 91 94 98 94 92
84 94 99 99 99 92 67 70 50 39 36 35 45 50 48 48 52 51 57 58 56 57 56 54 54 55 50 46 44 39 37 38 40 46 55 69 71 72 70 74 81 82 78 72 76 83 87 92 96
95 96 97 92 96 80 57 80 56 39 36 42 44 52 53 60 61 62 59 58 59 60 56 55 59 60 58 57 57 55 47 48 51 52 53 63 74 77 76 83 89 93 96 87 96 95 91 90 90
95 99 94 89 62 78 66 47 37 43 55 54 56 54 64 67 66 64 62 62 64 59 58 57 60 63 65 66 63 63 65 64 65 66 64 71 78 82 83 90 94 89 84 80 88 96 99 100 100
94 74 98 99 95 84 68 60 58 45 62 60 61 60 66 66 64 64 66 65 60 57 57 58 62 66 69 75 76 77 76 76 76 75 76 75 78 80 82 84 84 87 91 83 82 80 80 88 86
99 100 92 81 98 86 78 55 40 40 53 56 55 60 64 66 65 68 72 62 59 58 58 60 64 68 72 77 76 75 77 80 79 78 81 80 80 81 81 81 78 82 94 97 97 95 97 99 98
75 90 73 91 93 84 90 60 33 42 51 48 51 56 65 65 69 74 68 63 61 59 57 60 63 68 75 74 73 72 71 70 70 71 74 75 74 77 84 85 85 86 88 94 98 98 98 98 99

GFSSGP_925_rhum_078.txt.gz
RH
51 40 57 44 52 67 66 52 33 29 21 19 18 21 28 39 44 45 67 82 73 84 83 84 82 82 82 82 81 83 85 85 86 90 92 95 96 95 91 97 94 89 89 90 89 83 81 77 74
43 51 54 63 72 76 64 43 35 33 23 20 21 21 42 66 59 95 88 90 70 85 88 84 83 83 82 83 82 82 83 81 80 77 78 79 82 90 89 90 91 94 92 93 87 73 62 57 71
52 63 65 64 82 78 63 37 28 24 22 20 20 22 45 59 62 76 74 92 84 92 87 85 85 85 82 82 83 82 79 81 74 71 72 79 87 81 79 86 84 97 80 82 67 48 39 49 73
64 57 65 75 86 68 54 43 39 34 22 19 21 52 55 56 55 67 91 88 87 93 85 85 84 84 80 81 82 80 79 77 74 73 75 73 83 84 74 71 80 92 83 72 64 53 40 58 70
67 78 80 82 75 64 49 44 42 38 27 19 20 52 66 60 60 78 88 88 84 88 78 85 83 82 83 82 80 79 79 74 74 76 78 80 87 75 64 67 79 91 88 80 67 60 42 47 66
87 83 80 80 62 43 38 40 42 38 27 20 33 66 67 63 76 91 88 83 76 81 84 86 85 84 84 80 79 81 72 73 75 78 86 91 88 79 71 75 77 88 92 86 70 66 49 49 63
86 92 82 67 57 48 38 37 44 38 25 21 24 74 74 65 64 86 85 83 78 76 84 88 86 85 84 82 80 75 72 73 75 74 91 93 78 80 67 73 75 86 91 86 74 74 59 45 51
86 83 79 72 57 55 35 41 38 42 36 18 51 83 87 67 71 79 83 86 85 81 78 87 88 85 86 87 79 75 70 73 74 78 82 71 76 74 77 77 83 87 90 85 80 75 62 39 52
71 93 77 73 61 53 39 40 33 41 41 24 38 70 68 68 86 94 99 100 99 96 85 82 84 82 82 83 77 71 70 71 74 72 73 54 74 78 84 81 80 84 92 91 82 75 66 40 52
86 93 78 57 51 50 55 58 67 52 47 43 83 82 78 77 90 98 99 99 99 99 87 86 83 80 80 74 71 70 71 73 74 74 74 72 44 77 84 86 86 86 88 89 85 81 70 46 47
81 81 55 48 46 41 72 74 56 54 58 41 76 85 86 87 85 87 95 95 92 79 87 84 80 81 77 72 72 71 73 72 74 74 74 70 54 62 79 76 82 86 86 84 89 86 72 47 46
88 66 55 48 47 61 69 51 72 58 51 35 39 80 87 90 87 83 87 90 90 85 82 80 73 79 78 72 73 73 73 73 75 75 76 77 64 54 71 68 75 79 83 82 84 82 67 49 55
87 72 58 51 48 47 53 54 46 52 37 31 34 82 85 88 88 83 80 85 86 86 85 82 78 79 77 72 73 74 73 75 74 75 76 79 70 65 65 61 65 71 74 71 78 77 59 52 68
67 70 65 51 53 45 44 43 36 40 44 30 35 58 85 84 83 85 85 82 80 81 81 78 78 78 78 75 74 73 73 71 71 73 75 78 71 70 62 62 62 62 63 59 62 61 58 48 68
67 76 71 67 56 52 44 51 47 32 33 31 32 40 37 58 78 79 73 73 70 73 76 78 78 78 76 77 76 73 65 68 72 71 71 75 69 69 61 62 61 58 59 63 62 66 69 71 70
74 76 85 62 56 48 44 56 45 37 34 33 33 34 33 32 73 70 65 63 69 70 72 72 73 77 69 72 74 71 67 65 70 69 67 70 69 67 63 62 62 57 60 63 68 65 67 70 70
82 94 87 72 58 49 51 57 40 37 39 36 35 36 33 29 26 45 69 64 66 70 65 69 72 73 74 70 66 63 62 61 62 62 59 60 68 68 64 62 62 62 59 63 66 68 66 70 71
85 74 83 84 63 57 55 54 41 34 40 41 39 39 37 34 29 22 29 42 47 60 69 66 67 67 66 72 72 72 71 68 59 58 58 58 59 61 63 63 62 63 64 61 64 63 62 63 64
73 77 76 73 58 63 65 56 48 41 38 38 40 41 38 31 26 23 20 26 32 33 58 70 75 68 69 76 77 78 77 77 68 64 64 62 63 60 60 62 63 62 63 65 65 67 66 64 65
65 78 82 62 57 66 65 61 53 46 43 39 37 37 35 28 28 30 27 26 27 27 43 63 74 77 80 77 75 71 70 77 75 70 69 68 66 65 63 63 63 63 63 64 68 73 75 74 69
80 79 77 62 55 60 64 70 61 53 47 42 37 35 34 34 31 34 36 32 30 29 30 32 35 40 73 88 88 87 85 79 78 77 76 75 76 73 68 66 65 65 65 64 66 71 76 81 77
90 76 69 74 70 90 57 90 64 53 52 47 43 40 39 33 34 41 42 40 37 35 31 29 30 31 31 37 66 88 91 94 80 71 67 69 69 78 87 84 74 70 71 73 71 71 74 81 86
81 73 70 79 89 64 64 74 63 44 56 49 41 37 40 36 46 50 49 46 46 42 38 33 29 29 31 33 34 45 95 95 91 85 83 76 72 71 73 79 77 75 79 84 86 84 83 83 90
82 82 83 87 96 99 79 79 75 50 41 41 40 38 39 48 52 54 52 52 54 51 50 40 41 43 37 33 33 34 37 51 64 59 56 62 72 77 76 74 72 76 75 76 91 94 95 91 96
83 95 97 99 99 94 75 74 60 44 40 40 41 44 52 57 59 63 66 64 62 58 56 56 54 55 54 50 44 39 37 38 39 40 42 54 74 85 84 73 77 82 81 81 85 77 88 92 96
92 80 92 90 96 83 69 85 60 39 41 39 42 49 53 59 62 63 65 64 65 60 57 59 60 60 60 59 59 58 52 52 53 54 58 65 76 79 75 76 86 94 90 95 92 82 80 93 99
96 100 88 87 69 88 78 63 43 52 58 62 62 61 63 65 71 71 68 68 64 60 58 60 61 64 66 66 67 67 68 65 65 67 71 78 88 90 95 95 96 98 92 76 79 78 84 83 88
85 82 99 99 96 89 74 65 61 60 71 66 68 75 75 70 73 76 77 68 63 60 60 62 65 69 75 76 75 75 75 76 76 77 75 77 82 85 86 86 89 90 87 82 83 86 84 82 90
99 98 91 83 95 93 87 65 44 50 61 69 74 76 77 71 69 76 76 66 62 61 61 64 67 72 78 76 76 77 78 79 78 76 80 80 83 85 84 84 81 77 76 85 96 95 95 99 99
78 82 82 93 98 92 87 68 41 42 59 62 68 73 74 69 71 80 73 67 64 61 62 64 68 74 76 75 74 72 72 72 71 71 72 73 74 79 82 82 78 80 85 92 99 98 98 94 97

GFSSGP_925_rhum_081.txt.gz
RH
67 49 54 51 52 68 65 52 41 34 23 21 20 22 26 42 46 52 79 85 76 91 88 83 84 84 84 85 88 90 89 89 88 91 93 95 95 92 95 95 90 88 90 90 83 82 78 80 84
68 52 55 65 60 73 58 49 41 33 29 23 24 38 54 61 67 99 98 97 76 91 88 85 83 83 84 84 85 84 83 84 87 89 94 94 95 90 94 95 93 91 92 88 78 79 82 86 89
68 67 63 63 78 69 56 43 36 41 35 23 22 39 52 63 87 90 82 100 88 89 87 86 83 82 82 83 84 83 83 83 78 75 79 94 96 88 81 89 98 82 70 60 47 51 78 92 87
66 65 59 71 78 65 50 43 49 46 34 25 28 63 60 61 74 67 94 97 93 93 87 85 84 83 82 80 81 82 82 77 76 77 88 89 89 83 74 79 96 78 64 62 45 44 69 77 78
68 81 83 84 71 61 54 46 43 47 43 36 28 61 70 70 64 81 99 99 99 93 84 84 86 83 80 80 81 82 82 80 78 79 81 80 86 78 57 73 92 88 69 68 57 40 65 71 73
85 83 86 84 64 50 42 41 41 44 42 39 38 70 72 90 99 100 100 99 100 99 86 86 86 84 82 82 80 83 84 78 76 79 82 85 86 66 59 70 86 92 81 74 70 45 49 68 71
85 90 83 69 63 52 40 38 43 44 49 42 27 76 78 77 100 100 97 97 99 98 90 88 87 86 84 81 82 86 78 74 74 76 82 92 72 77 76 72 83 96 91 82 73 61 45 58 68
90 87 78 74 64 56 39 39 40 42 49 36 38 82 86 75 99 97 98 98 95 96 94 89 86 86 86 84 83 80 75 72 71 61 78 85 83 80 75 71 78 92 92 84 74 72 53 55 62
75 96 80 75 64 53 41 40 34 47 47 46 38 76 76 80 93 97 100 100 100 100 100 91 87 87 85 84 80 76 73 71 70 63 59 51 74 74 79 78 85 90 92 89 80 78 66 46 61
88 87 84 60 54 53 62 50 42 54 60 50 47 84 97 100 99 98 94 98 100 100 100 100 90 85 84 87 81 76 76 73 74 74 68 42 69 76 82 82 84 87 92 91 82 80 76 57 53
85 78 59 54 61 62 67 62 61 59 65 51 48 57 95 100 98 92 91 93 98 98 100 100 91 84 83 87 79 78 75 73 76 75 73 69 55 80 86 84 85 83 86 86 84 83 76 60 42
86 74 59 50 66 66 66 55 73 65 61 51 49 43 66 97 98 98 95 99 100 97 92 95 85 84 86 84 71 74 74 75 76 76 76 73 61 65 78 82 79 85 85 84 83 83 79 58 45
79 72 66 56 62 65 56 60 57 65 53 55 50 39 75 96 95 96 100 99 92 91 84 85 87 85 86 81 72 73 74 75 74 77 78 78 75 48 57 66 65 72 80 78 77 79 79 59 48
67 65 66 60 54 52 55 53 54 49 73 63 62 42 84 94 94 97 95 94 92 86 82 80 82 83 86 79 73 74 74 75 75 76 78 78 79 68 61 60 60 69 70 71 68 67 72 60 50
72 82 76 70 62 55 46 52 55 46 80 70 63 41 56 89 90 90 87 89 88 84 82 85 81 78 84 80 75 75 75 75 76 75 77 79 79 74 69 64 64 64 63 65 63 65 67 68 53
70 73 90 70 68 57 49 62 48 58 76 81 68 51 38 52 79 86 85 84 84 84 86 84 84 82 78 80 77 75 76 76 74 72 72 76 79 74 71 68 62 63 61 61 62 66 67 70 72
84 95 90 70 67 53 56 58 44 42 56 57 51 42 34 33 34 66 75 71 72 76 81 83 84 84 80 79 77 77 78 76 70 70 71 70 75 76 71 70 63 64 62 60 63 68 70 67 67
82 92 87 80 73 58 63 55 44 44 43 40 36 35 37 36 31 27 62 71 71 72 75 75 76 78 82 74 79 82 77 71 65 65 68 65 66 68 72 71 67 64 65 63 62 66 69 71 68
78 73 84 76 60 65 67 57 51 42 41 42 41 44 38 37 30 25 24 38 66 71 69 71 74 77 80 84 82 80 82 79 70 62 64 61 60 60 65 69 67 65 66 66 64 64 67 68 70
68 80 82 67 63 66 71 72 54 47 45 40 36 39 39 38 30 28 26 24 27 46 67 69 69 79 81 78 78 80 78 76 74 69 63 62 62 62 62 63 62 64 66 67 67 69 68 70 72
78 71 84 67 64 64 63 73 63 51 51 46 41 36 38 40 35 36 36 34 29 30 38 61 74 73 74 70 83 86 86 84 78 79 78 75 74 69 67 67 65 65 67 68 67 71 75 82 81
86 66 67 70 73 87 65 94 67 52 52 52 46 47 43 40 36 39 42 42 39 35 34 35 40 46 53 74 87 88 88 89 80 80 78 75 75 77 80 78 75 70 70 71 69 72 75 80 90
82 71 73 81 82 71 70 81 74 49 60 50 46 43 44 40 39 44 46 45 46 41 35 32 30 31 33 34 44 77 93 92 88 87 87 83 82 82 83 84 83 82 84 81 79 80 82 86 95
80 81 88 86 92 95 79 84 84 62 47 45 47 48 45 40 46 50 52 54 54 52 43 43 40 39 34 32 33 35 46 68 90 93 92 84 79 78 78 78 80 81 84 83 85 86 94 97 99
81 89 98 98 99 92 77 86 67 54 41 39 37 45 46 48 58 65 70 69 63 57 54 54 53 56 54 47 40 36 36 39 44 52 52 48 54 63 73 85 83 78 76 79 77 85 84 84 100
85 82 92 90 92 91 77 92 68 51 46 42 42 43 54 64 67 74 74 70 65 61 61 60 60 62 62 61 61 57 51 45 43 44 45 48 54 59 72 80 89 88 81 82 82 96 92 89 92
98 94 80 86 75 90 82 72 50 45 52 50 56 63 67 69 73 75 75 72 65 62 63 62 63 67 67 67 68 69 69 68 66 67 71 82 90 96 98 94 94 95 99 100 98 82 82 76 88
81 84 91 98 98 91 75 73 66 50 56 65 69 68 72 76 79 79 81 72 66 63 64 65 66 69 74 74 74 74 75 76 77 78 77 84 89 92 96 99 100 100 97 91 87 84 82 89 94
94 97 91 85 95 93 91 64 53 48 55 69 74 80 82 82 82 85 79 69 65 64 65 67 69 75 76 75 78 78 78 78 78 77 79 82 86 87 87 87 86 85 85 90 94 93 96 98 99
73 81 86 94 97 89 89 70 43 47 54 72 80 81 83 78 83 85 77 71 67 66 66 67 73 75 76 76 74 74 74 73 73 73 74 76 79 83 84 82 77 76 79 83 88 92 94 98 98

GFSSGP_925_rhum_084.txt.gz
RH
89 66 52 48 49 65 55 47 45 35 26 25 25 24 25 39 50 55 88 85 72 90 85 86 87 90 82 86 87 84 80 88 91 92 96 96 96 94 96 90 89 90 89 84 82 81 83 87 89
83 61 54 65 58 66 56 49 44 36 34 38 27 36 56 56 79 97 98 95 79 95 88 86 87 86 85 86 87 90 88 88 90 91 93 94 94 96 97 92 90 93 87 81 81 85 88 89 83
72 67 65 63 68 64 50 45 38 43 40 27 27 43 56 66 94 92 88 96 91 93 87 87 86 84 85 88 88 86 83 86 86 87 88 92 95 95 92 97 86 74 61 54 79 89 93 83 79
70 67 62 70 73 58 43 42 49 44 39 34 32 50 63 68 86 80 94 98 97 91 86 85 84 86 86 84 83 83 84 82 76 79 85 94 91 96 85 97 73 65 63 47 60 72 80 78 76
66 78 81 82 76 58 54 45 44 44 43 41 36 44 73 76 75 90 97 97 93 94 84 86 85 86 86 81 79 83 83 75 78 79 88 90 86 82 82 94 86 68 67 55 54 69 74 78 78
85 80 88 83 78 60 44 42 41 44 46 44 42 72 77 98 98 99 99 99 92 90 84 84 85 87 84 80 82 83 82 77 81 82 89 95 91 69 72 88 93 79 71 72 51 63 72 76 74
86 88 84 73 67 65 49 40 41 46 46 42 39 69 80 91 94 96 99 98 98 97 83 84 86 88 83 82 84 84 82 76 77 81 84 85 82 69 65 83 93 90 81 79 69 49 60 71 73
89 82 81 75 74 65 42 41 45 43 48 40 39 58 60 79 97 99 100 98 95 99 93 90 88 86 85 85 89 86 79 76 74 74 76 71 86 86 88 82 91 94 92 82 79 67 52 63 70
80 93 76 77 72 60 40 41 40 47 48 45 43 58 71 80 98 100 100 99 99 100 100 93 90 88 88 86 90 84 78 74 71 53 58 57 72 66 76 74 86 94 93 88 82 79 67 60 66
86 88 82 60 57 53 48 45 40 45 52 50 44 45 76 99 99 95 94 98 97 96 99 100 92 88 86 88 89 81 76 74 72 64 52 52 74 72 71 73 83 84 90 88 80 76 69 50 58
84 92 66 57 54 57 60 59 56 60 57 52 47 56 50 69 92 93 90 93 92 95 96 99 99 88 86 87 86 81 75 75 73 74 67 46 73 81 82 89 88 89 93 92 85 79 75 66 47
92 74 60 55 61 68 62 64 67 60 40 56 55 51 47 52 72 89 91 91 90 100 96 98 98 90 88 86 83 80 76 75 74 76 75 69 51 75 84 83 84 85 84 84 83 81 81 74 50
81 74 68 59 63 65 58 62 58 64 51 60 57 59 56 51 60 88 92 93 98 99 100 98 100 94 90 90 85 78 76 74 74 76 77 76 69 51 68 76 80 77 83 83 79 78 81 78 58
76 73 68 65 58 60 59 60 54 50 58 59 59 59 62 53 85 97 100 100 96 100 99 99 99 90 89 89 86 76 74 74 76 77 78 78 78 75 47 53 62 60 68 74 76 72 73 77 70
71 76 69 72 64 58 49 58 69 56 72 58 59 60 65 53 72 94 80 80 67 75 84 82 80 86 88 87 83 78 75 76 78 78 78 79 80 80 73 58 61 59 66 71 76 75 71 68 65
82 77 84 72 71 59 52 72 56 77 75 72 48 58 64 57 46 84 80 65 63 74 80 81 85 88 86 87 84 78 76 76 77 78 78 79 79 80 80 70 67 63 66 67 69 68 69 68 70
77 94 86 75 71 61 60 65 50 78 76 80 52 63 64 44 34 54 79 79 82 64 70 84 85 81 81 82 85 80 78 78 78 77 77 77 77 77 81 75 71 68 65 68 64 66 69 70 68
89 95 71 74 79 64 69 60 50 80 74 82 73 75 65 38 34 34 54 76 76 86 89 88 88 88 88 83 84 86 83 80 81 78 74 74 76 75 78 78 73 72 67 67 68 66 67 69 72
72 86 82 73 64 67 73 64 58 60 75 74 82 85 71 41 32 28 25 36 74 74 80 83 88 89 88 88 85 88 86 85 82 81 74 70 71 72 72 71 72 73 73 67 67 68 68 69 72
63 75 82 74 66 66 78 73 62 53 56 49 62 64 51 38 38 32 26 23 29 63 72 82 85 84 84 85 80 79 80 82 77 71 68 66 71 70 66 67 69 71 74 70 69 72 72 72 73
69 68 84 75 74 65 71 77 73 59 52 48 44 41 40 37 37 36 32 27 26 33 58 70 80 87 87 86 87 88 86 87 85 86 83 78 71 69 66 67 68 69 70 70 70 72 77 79 78
86 57 63 74 78 91 66 88 74 68 62 59 52 46 38 38 38 37 39 38 34 33 37 42 64 83 90 92 92 90 89 90 82 79 80 82 85 84 79 72 71 71 71 72 71 72 75 81 89
83 61 70 72 85 76 75 84 76 56 68 54 49 49 47 42 39 39 45 42 44 42 38 38 43 46 51 57 82 98 100 97 93 89 85 84 85 88 90 91 88 82 79 81 81 81 81 83 90
82 80 85 88 85 97 80 85 81 71 53 46 49 45 45 43 41 41 45 54 54 48 41 36 34 33 33 33 34 37 47 66 85 93 95 94 92 87 84 83 82 82 82 85 91 95 96 95 99
88 88 99 99 99 87 78 89 72 59 47 43 43 46 50 46 43 49 67 71 65 54 53 51 47 47 43 38 34 34 35 38 47 65 76 79 73 69 71 79 86 87 87 89 89 88 91 94 90
92 81 90 90 92 91 86 95 69 54 51 50 41 40 40 50 49 56 68 72 66 65 62 58 57 59 59 57 54 50 46 44 45 46 47 49 53 55 57 68 83 97 96 95 97 96 97 100 100
97 98 68 86 79 90 82 69 53 49 51 50 52 51 55 62 70 74 80 74 68 69 67 65 65 67 66 64 66 66 64 64 65 69 75 81 85 94 99 98 100 100 100 99 100 100 99 96 88
88 83 91 88 94 92 74 69 63 45 46 49 58 66 70 77 86 88 86 75 69 67 66 66 67 70 72 71 71 71 73 74 75 77 79 87 93 98 99 99 100 100 100 100 99 93 88 89 84
88 98 87 84 91 91 91 64 55 48 43 49 61 70 80 85 88 90 86 73 70 69 69 69 71 73 74 74 76 76 76 77 77 76 77 81 87 91 92 92 93 94 93 93 92 92 93 86 89
77 83 83 92 94 89 91 77 41 50 52 57 70 80 82 84 89 89 83 76 74 72 71 73 75 74 75 75 75 74 74 74 74 73 74 76 80 83 84 83 81 80 79 81 84 90 93 94 96

GFSSGP_925_rhum_087.txt.gz
RH
86 68 50 47 44 47 44 40 44 36 30 26 30 23 23 32 43 44 86 88 73 92 98 95 81 89 91 93 84 74 75 78 89 94 97 96 95 93 91 90 90 89 86 84 83 88 90 91 90
84 60 51 54 46 47 42 43 43 36 34 37 29 42 50 43 75 89 95 92 79 97 99 98 88 88 88 89 89 79 82 84 84 89 93 95 96 96 91 92 93 86 83 82 87 89 89 86 81
75 64 56 54 52 44 37 43 38 38 37 30 31 38 54 59 85 86 90 97 96 99 99 96 89 87 85 85 86 85 86 86 87 88 87 90 96 98 95 95 87 73 76 87 92 94 94 84 76
72 66 60 60 52 47 36 41 45 40 37 37 36 37 60 81 84 91 95 100 100 100 98 92 86 83 86 87 88 86 84 86 86 85 85 92 93 92 98 75 68 61 50 80 92 90 77 73 89
66 76 78 79 61 51 48 42 42 42 41 38 38 47 68 89 87 96 97 100 100 99 97 92 85 84 84 89 83 84 86 77 81 79 90 94 89 83 96 83 68 68 54 60 77 78 74 73 74
86 77 74 76 63 56 46 42 40 40 43 37 39 46 76 94 93 96 100 99 100 99 97 96 85 86 84 83 84 83 76 80 78 81 84 96 87 75 86 94 76 72 69 60 73 74 75 74 76
75 82 82 60 61 58 52 40 40 42 40 41 38 59 60 85 95 96 94 100 100 97 88 97 90 86 85 84 84 84 80 86 81 81 82 82 86 65 76 94 89 80 83 74 64 74 74 74 74
81 79 72 69 64 59 45 40 39 36 42 39 39 48 46 78 95 99 95 90 89 94 94 86 88 94 96 87 87 82 80 75 76 78 78 74 63 67 72 94 86 90 86 84 74 62 69 74 73
77 91 76 66 66 53 42 42 42 43 45 43 48 66 69 94 99 99 100 97 94 96 98 90 88 91 87 90 88 84 78 76 77 76 72 66 55 67 65 86 90 91 91 82 81 68 52 58 67
86 79 69 59 55 52 43 42 48 45 48 49 46 50 51 90 99 99 99 99 100 96 95 99 93 89 90 90 91 84 79 76 72 56 52 50 70 70 72 74 87 85 92 91 85 82 71 52 61
79 78 61 57 53 47 51 56 47 47 51 43 42 50 50 54 61 97 95 97 97 93 95 96 100 92 97 97 89 84 78 74 73 65 49 50 71 72 72 78 86 85 91 91 87 82 80 72 53
85 70 62 58 59 61 60 56 55 51 43 44 48 48 48 51 58 63 89 93 90 90 90 92 99 95 96 88 88 82 76 75 73 73 67 44 64 76 81 87 88 88 89 91 87 84 82 80 71
88 70 63 56 65 62 60 61 53 56 55 54 55 56 53 52 54 65 69 93 87 93 89 90 91 99 97 91 87 82 77 75 73 75 74 70 50 61 78 82 83 83 83 83 81 78 77 79 79
74 68 67 64 59 62 59 59 54 48 48 54 51 53 57 52 52 62 91 96 93 91 94 96 93 96 98 93 89 83 78 75 75 76 75 76 74 68 56 73 76 75 68 75 79 75 70 73 78
71 73 76 74 65 59 52 66 65 49 64 56 56 51 54 54 46 46 84 96 89 94 98 98 99 99 98 93 91 86 79 76 75 77 78 78 79 78 77 55 54 58 60 68 72 74 72 68 68
79 72 89 67 67 58 54 70 53 50 62 53 56 52 52 53 49 42 48 82 73 72 72 87 73 96 95 92 89 88 82 79 77 77 79 79 80 80 80 77 62 61 64 69 71 73 72 69 66
79 88 81 78 69 63 59 68 50 55 68 53 59 48 51 53 46 39 40 77 69 59 60 61 69 71 80 87 88 88 82 81 80 80 80 79 79 80 81 81 74 71 70 68 71 68 70 69 70
79 80 78 75 79 64 68 62 53 63 68 54 66 56 53 53 51 42 32 76 82 61 62 69 73 73 72 75 83 92 90 86 84 82 81 78 77 78 80 79 78 76 76 73 69 70 69 71 72
63 80 77 69 70 66 64 66 57 68 75 69 71 68 62 53 49 43 33 35 76 78 85 65 61 65 69 85 92 96 95 88 84 82 81 81 77 78 79 77 78 80 79 74 71 70 72 73 72
64 79 79 73 67 70 70 67 60 57 74 70 67 68 58 52 48 41 33 28 27 60 64 63 83 84 76 96 94 92 89 88 84 81 83 82 79 76 78 82 80 78 82 80 77 74 74 76 75
74 78 84 74 72 66 74 76 68 60 53 57 58 62 52 43 44 40 35 32 28 26 54 69 71 85 92 96 96 91 88 89 88 88 85 76 75 71 70 74 74 72 75 79 79 76 74 84 79
84 61 65 78 76 78 69 78 70 65 62 55 50 50 55 48 42 38 35 32 28 27 30 49 69 83 86 91 94 92 90 90 84 81 78 78 81 86 77 72 71 71 73 75 74 75 76 82 91
97 54 61 72 79 76 79 79 66 63 65 59 54 51 44 42 40 38 36 34 34 34 35 40 48 74 90 98 98 96 96 95 94 93 90 87 86 89 92 92 88 82 77 78 78 79 80 82 88
93 73 74 82 79 93 76 79 68 64 54 52 47 48 45 41 38 36 35 40 44 41 42 41 44 51 57 64 77 91 97 98 99 100 99 97 96 94 91 92 95 95 95 91 88 88 90 89 91
100 75 94 93 94 86 77 86 62 58 53 45 43 44 46 45 41 39 46 60 54 51 47 47 43 42 40 37 36 36 37 38 41 51 62 73 79 83 86 90 93 92 90 92 95 99 99 96 96
81 74 85 91 90 87 84 92 59 51 50 44 45 40 42 52 47 44 50 59 60 53 56 54 54 52 50 47 45 45 43 41 40 42 45 49 57 62 63 66 77 86 95 99 99 97 98 100 99
98 92 64 84 80 82 77 66 47 49 49 49 47 48 48 45 50 50 57 65 67 66 64 60 58 60 59 55 55 55 55 57 59 61 64 66 67 69 73 79 83 94 99 100 100 99 100 100 100
97 78 88 89 91 84 71 66 48 41 40 43 46 52 53 61 64 72 74 74 73 71 70 70 67 66 68 66 65 65 67 68 70 74 78 86 90 98 98 95 95 98 99 99 100 99 100 100 95
98 100 88 80 82 78 75 53 48 44 41 42 45 54 60 73 81 83 78 77 76 74 72 73 71 69 70 70 71 72 73 74 75 75 76 79 85 91 96 94 93 99 100 98 99 98 95 94 91
86 84 76 86 94 87 83 58 40 44 50 53 52 66 73 79 84 81 78 80 80 80 80 79 76 73 73 72 72 72 72 72 72 72 73 75 80 83 85 86 87 87 88 91 96 96 98 96 98

GFSSGP_925_rhum_093.txt.gz
RH
84 66 41 34 35 26 25 18 11 14 15 12 13 14 18 22 33 48 44 40 54 64 76 92 88 84 73 77 86 89 88 89 92 95 93 90 89 90 91 90 89 88 88 88 86 85 84 82 82
62 55 37 31 36 30 24 14 18 17 14 14 16 15 16 27 37 54 46 51 56 62 73 81 83 85 84 89 90 88 87 87 86 91 94 89 89 90 88 86 87 88 89 90 91 93 96 95 88
72 52 34 36 37 30 22 15 18 18 20 18 14 15 16 34 42 47 52 50 54 64 66 79 84 83 86 87 84 82 84 84 84 85 88 90 93 94 88 84 88 92 91 93 94 94 94 95 86
58 47 42 36 34 24 18 14 14 24 21 17 13 16 39 55 47 50 55 52 52 64 63 80 84 85 86 83 76 80 81 85 85 87 88 91 96 97 83 73 87 86 90 94 95 89 89 91 86
56 48 46 43 32 22 17 16 16 24 20 20 18 24 43 69 65 58 56 51 50 60 80 85 84 84 85 79 80 86 83 82 80 84 85 96 98 77 68 54 72 91 94 95 94 91 90 81 81
80 49 54 45 32 22 17 19 18 20 22 22 20 24 62 77 70 58 55 50 49 59 85 83 87 84 86 85 85 85 83 78 72 77 88 89 99 80 71 68 59 85 94 94 92 82 91 77 79
76 53 49 35 28 24 22 19 19 19 23 28 24 27 58 72 80 70 69 70 55 63 78 79 88 90 87 91 84 84 78 76 76 75 63 62 87 98 77 75 69 64 78 73 71 69 72 72 70
64 67 47 32 29 26 22 21 19 18 23 26 32 39 51 69 88 78 77 81 71 75 75 72 77 86 89 97 82 82 78 74 74 72 72 70 57 97 91 80 77 67 56 63 68 69 70 72 74
57 94 62 37 28 22 21 22 20 19 25 26 38 38 47 55 88 85 88 83 57 72 77 72 74 78 82 82 92 84 84 80 76 80 78 67 68 78 84 92 78 76 70 58 54 58 66 67 67
64 78 54 30 22 22 23 25 26 28 27 32 36 52 53 62 79 92 87 74 60 66 73 74 75 77 80 84 90 90 92 85 79 81 80 62 53 55 80 88 80 81 82 80 74 60 50 64 67
52 56 41 30 25 42 32 29 26 29 28 25 31 49 62 75 80 86 85 68 67 73 78 70 76 75 80 84 79 84 76 67 64 62 62 51 56 64 78 88 83 83 85 95 88 76 79 63 52
54 39 33 33 62 44 40 38 28 28 26 21 22 33 51 61 77 83 89 79 65 75 79 74 79 80 74 76 75 81 68 60 60 55 48 53 57 60 56 68 86 82 87 88 80 70 68 73 65
43 36 30 32 49 54 42 38 32 27 24 22 22 31 37 46 57 69 78 92 84 85 74 76 75 81 74 71 73 76 64 62 62 60 50 47 54 55 52 57 66 69 70 75 70 66 65 68 66
34 38 36 32 53 48 44 36 29 29 23 27 27 32 29 36 40 47 62 76 88 91 88 79 77 73 71 75 74 72 66 64 64 65 62 52 49 53 59 61 63 64 66 65 65 63 62 62 63
49 49 41 40 34 50 37 40 35 27 28 32 29 28 30 31 34 41 48 59 72 81 88 88 88 84 75 74 74 71 69 64 66 65 67 67 60 57 60 58 62 63 62 60 63 64 64 58 56
60 56 51 40 36 32 41 45 29 26 27 34 28 26 31 31 28 38 52 58 66 66 77 83 87 86 79 76 73 75 72 69 70 66 67 73 70 70 70 67 59 59 62 64 65 64 63 60 60
75 93 46 39 42 34 44 41 22 25 29 32 29 26 26 28 27 30 48 62 64 62 66 74 83 85 84 82 82 77 74 72 66 65 66 71 71 72 73 70 66 59 64 67 69 66 64 63 65
85 70 39 36 44 40 42 39 25 27 29 29 27 25 26 26 26 27 38 52 62 64 64 72 79 88 91 91 92 86 80 77 68 66 71 71 70 73 75 72 71 68 67 69 70 70 69 69 65
73 46 34 27 33 40 43 37 29 31 32 31 26 24 24 25 24 26 33 54 62 65 64 68 78 82 91 94 99 94 87 85 80 76 80 77 73 74 77 75 72 73 73 71 71 72 73 74 76
95 68 40 25 36 41 42 40 30 31 32 30 26 23 23 24 24 25 30 39 61 67 70 70 65 75 92 98 99 96 93 95 92 88 90 90 86 82 79 79 78 75 76 77 75 74 75 76 72
91 63 44 32 45 44 45 44 36 30 28 28 26 23 22 21 24 25 29 34 59 67 71 71 61 62 79 93 86 94 91 91 99 98 96 78 82 89 91 88 84 82 81 81 82 81 80 76 74
86 42 44 36 53 54 42 53 35 32 32 29 29 26 26 23 25 25 30 35 37 42 69 72 71 79 73 83 92 90 79 68 65 59 56 78 77 80 97 99 95 87 89 90 88 86 84 87 83
94 74 41 47 48 44 49 48 29 27 34 32 29 26 25 25 28 28 30 38 40 38 45 49 54 72 81 72 70 80 61 61 61 56 80 84 84 68 64 68 96 94 89 92 91 92 92 91 88
86 71 75 52 56 84 43 41 26 33 29 27 25 24 24 25 29 27 33 34 38 43 48 50 51 64 79 91 58 57 53 54 65 74 68 58 54 93 94 100 83 99 96 91 91 93 94 92 88
98 86 96 94 93 54 31 45 29 25 25 23 25 24 23 24 28 29 30 36 36 45 49 52 46 48 58 70 74 84 78 58 57 63 69 57 70 82 88 90 99 100 98 98 98 98 95 94 92
100 98 84 73 70 47 42 43 31 21 21 25 24 23 21 24 25 26 27 32 36 44 43 42 48 52 54 58 62 67 77 84 81 70 68 66 63 64 77 85 90 96 99 99 99 100 98 97 97
100 95 58 58 34 42 40 30 28 27 28 29 28 27 28 27 26 26 26 26 30 50 49 43 47 53 54 56 58 60 61 59 55 56 48 54 60 68 72 76 83 90 93 99 99 96 96 99 99
97 95 75 79 64 54 39 27 30 32 30 28 28 29 27 25 25 26 27 28 33 40 48 52 49 54 58 61 60 62 66 65 69 71 75 75 74 75 83 86 87 89 89 84 100 99 100 100 100
99 100 81 57 64 43 51 33 27 30 29 28 26 26 25 26 27 26 26 29 35 44 52 54 55 63 66 64 64 65 66 67 68 69 73 75 77 80 85 87 89 92 95 99 98 98 98 99 100
66 74 54 68 64 60 62 41 27 31 32 31 29 36 35 35 34 32 30 39 46 54 56 57 62 62 63 64 62 65 67 66 65 67 68 69 72 74 76 81 86 88 91 97 98 100 100 100 100

GFSSGP_925_rhum_096.txt.gz
RH
84 77 66 42 63 45 42 28 18 16 18 15 15 17 26 51 69 78 44 53 78 89 92 87 89 90 88 85 88 89 89 87 88 90 89 89 90 92 93 92 90 90 88 84 82 82 81 83 81
73 68 49 49 63 49 37 23 20 16 15 17 16 18 22 60 56 52 50 63 73 88 92 87 83 85 74 84 88 85 87 83 85 86 87 88 89 89 90 89 89 89 90 90 92 92 91 92 77
70 72 57 56 54 49 34 22 16 17 20 18 17 15 27 55 50 49 48 61 68 82 88 90 81 75 83 87 86 83 83 79 83 79 85 90 90 86 87 89 92 92 92 95 96 96 94 89 81
65 68 63 58 49 38 33 18 18 24 20 17 17 32 59 66 48 52 50 58 66 73 83 83 85 85 87 87 85 85 84 81 81 85 84 90 94 85 91 94 88 88 94 94 92 90 89 85 80
62 78 78 65 47 34 27 19 20 27 24 20 18 40 75 70 60 52 50 58 63 67 75 81 81 85 85 80 79 81 81 82 83 91 91 95 88 71 83 85 85 86 92 93 91 90 91 81 78
89 79 75 68 47 31 23 19 20 25 22 20 20 40 81 72 61 53 51 54 62 75 76 82 87 84 81 77 85 84 82 78 78 80 96 91 74 66 49 67 85 92 95 89 90 85 71 76 77
98 85 76 55 44 33 25 18 21 23 24 26 33 32 80 78 66 53 49 51 68 67 82 85 87 87 82 83 84 85 80 78 74 74 75 95 89 74 65 51 71 82 70 71 71 74 70 67 63
94 94 70 50 46 34 25 21 19 22 26 29 35 53 89 84 68 65 63 70 82 82 81 87 89 87 88 93 82 82 75 76 73 64 62 88 99 84 75 71 60 62 63 66 66 67 69 66 61
63 98 84 63 41 30 21 24 21 20 28 30 42 56 73 82 74 74 77 70 78 78 74 81 86 85 90 91 86 80 80 76 73 77 73 65 88 93 85 83 72 57 51 52 58 62 63 63 62
76 91 72 48 35 28 34 23 24 27 32 41 58 53 72 81 84 84 78 72 72 79 73 76 75 83 89 90 84 84 83 78 78 80 68 64 57 89 82 83 80 79 71 64 54 47 51 64 64
65 75 56 47 36 54 52 39 22 30 37 39 58 63 66 82 85 83 77 70 68 73 74 74 75 79 84 86 87 89 81 78 79 76 59 65 53 72 89 78 79 80 80 79 71 63 64 62 59
68 51 46 46 64 72 59 61 50 32 29 28 45 60 73 81 84 84 81 67 74 76 74 75 78 78 80 80 81 78 71 74 67 62 57 55 62 64 86 79 78 80 83 78 79 76 73 71 63
57 44 37 39 56 63 54 52 51 56 34 25 40 54 62 78 84 76 78 70 69 67 71 74 78 81 80 74 79 71 67 61 60 55 48 54 59 60 62 81 76 75 79 76 74 76 68 70 69
55 48 39 37 52 63 60 55 52 49 37 30 34 42 51 56 77 78 90 79 75 75 71 71 78 77 78 78 73 67 58 60 61 60 50 47 54 56 53 59 71 73 78 76 73 67 65 65 65
68 65 46 52 59 72 62 60 72 53 35 31 31 36 36 48 52 69 78 86 72 82 78 74 75 74 78 77 74 71 62 60 60 65 64 52 51 53 58 61 63 64 66 65 65 63 61 59 57
88 64 80 58 50 57 67 79 49 42 39 36 32 34 37 39 40 44 53 76 76 79 82 80 77 75 79 78 74 70 64 64 62 65 67 67 62 57 60 60 61 64 63 62 62 65 65 61 58
97 90 77 52 40 39 59 60 37 30 30 39 37 33 37 38 35 37 48 56 72 78 78 79 76 78 75 80 79 75 73 65 66 66 67 72 71 70 70 70 63 59 61 65 66 66 65 64 63
90 96 60 49 39 46 42 43 32 26 31 35 35 33 31 36 35 34 46 58 67 69 74 78 80 83 84 75 81 82 78 71 69 67 65 69 71 72 74 72 70 62 61 67 69 69 67 66 67
75 62 56 40 35 42 50 46 37 29 29 34 35 34 31 30 27 31 37 58 65 64 68 76 82 80 81 84 85 85 80 79 75 71 67 65 71 72 74 75 73 71 67 69 70 71 72 73 70
99 94 56 45 38 44 50 51 36 31 35 35 32 31 29 28 30 30 39 50 62 66 65 70 76 84 85 86 88 91 84 76 77 77 73 78 75 74 74 76 76 74 74 74 72 72 74 74 75
92 91 67 75 45 50 44 55 44 31 34 34 33 30 26 28 28 32 38 47 60 65 67 71 75 76 81 84 81 91 89 83 81 78 74 75 74 74 76 80 80 78 78 77 77 76 75 76 76
85 63 65 52 63 100 65 88 76 54 37 37 36 34 30 27 26 29 38 44 61 66 71 71 68 73 79 77 76 75 74 75 72 73 76 69 69 71 71 71 71 71 73 78 84 83 84 81 81
80 81 72 79 62 55 65 66 63 46 39 35 34 34 32 30 30 32 41 40 44 59 77 72 65 71 82 82 77 79 75 66 63 63 64 71 66 59 60 60 62 61 61 76 81 77 76 90 86
82 77 74 82 85 98 74 55 40 36 35 35 31 31 32 31 31 32 40 42 42 42 50 55 82 77 68 59 58 58 62 62 70 67 64 65 76 77 70 61 65 69 61 57 66 64 75 69 89
98 99 99 98 98 88 58 56 40 28 27 28 29 31 30 30 34 41 47 47 47 46 47 46 59 80 84 71 68 58 51 52 53 56 54 52 55 56 68 75 74 55 58 82 89 86 92 94 92
99 100 98 86 90 62 46 89 44 27 28 26 27 28 30 31 37 41 46 44 44 47 47 42 44 50 65 74 73 77 61 60 60 59 55 57 61 58 48 48 68 86 96 96 88 97 100 99 98
100 100 90 99 52 74 49 30 27 33 35 29 29 29 29 30 35 39 38 42 46 48 49 45 46 43 51 57 63 63 68 74 80 75 73 66 67 70 70 68 62 65 69 77 92 95 93 86 94
97 94 97 99 96 91 50 42 40 38 35 35 33 34 31 28 27 29 36 36 46 46 47 48 53 53 50 53 58 61 64 64 63 60 58 60 60 59 58 64 73 77 80 79 87 98 96 99 98
98 93 95 79 77 83 70 50 33 40 36 34 31 31 33 32 32 32 32 33 44 48 50 51 54 58 60 58 54 52 58 60 60 60 64 67 68 71 77 80 86 88 90 91 99 97 96 100 100
65 71 73 96 73 93 88 57 38 39 36 36 39 37 37 37 37 36 36 46 50 52 53 55 64 65 64 62 54 48 50 55 59 61 61 63 65 64 69 72 80 84 87 93 98 96 99 100 100

GFSSGP_925_rhum_102.txt.gz
RH
59 56 72 88 80 82 80 59 36 28 24 18 20 47 48 60 54 64 95 92 84 88 89 87 88 90 88 89 88 88 83 83 91 100 99 97 94 94 97 92 90 87 85 82 80 82 88 93 95
65 64 78 94 90 87 60 48 32 29 19 23 51 62 65 76 77 98 98 90 83 88 90 88 89 86 86 86 85 85 84 82 86 98 89 95 97 94 92 90 87 84 85 86 84 89 87 81 84
78 75 94 97 93 68 43 40 29 24 21 22 40 63 67 75 89 88 98 99 88 90 88 88 84 86 88 84 82 81 83 84 86 88 93 91 93 91 90 90 90 91 93 94 94 89 80 78 77
78 83 84 92 89 64 45 32 25 23 22 21 48 93 81 76 68 79 100 98 93 90 87 89 86 85 88 82 83 77 83 88 93 91 89 90 91 91 92 94 91 86 89 98 95 80 79 73 70
79 93 92 90 80 58 49 32 26 28 24 21 60 88 90 74 75 93 100 97 97 90 90 90 81 84 84 80 82 76 83 90 95 91 90 90 90 92 94 82 82 88 86 90 92 77 73 69 71
92 88 99 95 75 58 44 33 27 28 26 23 82 90 84 78 94 98 100 100 92 93 92 81 85 84 86 83 80 82 79 86 88 90 91 92 93 94 94 92 89 85 92 90 80 76 74 67 68
96 91 92 88 74 59 49 32 38 33 27 34 67 89 86 84 94 96 96 97 94 89 86 84 86 86 86 84 80 84 85 89 83 74 83 91 91 92 92 87 88 88 90 81 75 74 72 64 67
85 83 90 85 83 65 42 31 31 32 29 34 73 97 97 88 90 92 96 90 89 87 87 92 88 87 84 83 79 80 86 95 91 73 57 54 81 89 90 79 75 84 73 65 67 65 56 62 66
72 97 88 79 72 61 38 36 28 29 39 56 66 82 80 88 84 91 100 100 96 95 93 92 90 82 84 85 82 80 76 80 98 88 70 58 48 56 62 62 63 64 67 62 57 53 50 53 67
84 86 73 62 66 61 63 39 31 56 71 81 95 82 86 88 89 95 96 98 98 99 99 92 86 86 90 90 86 82 74 73 86 94 83 75 66 54 46 51 56 59 57 58 56 56 53 49 62
82 80 60 68 63 67 70 62 51 58 72 82 89 91 90 92 87 91 93 95 95 100 100 93 87 90 92 88 85 78 67 59 62 65 81 83 82 77 71 60 54 49 46 43 48 48 57 59 58
78 71 60 75 78 83 80 72 67 56 60 66 80 75 85 93 92 89 90 95 98 100 100 95 90 94 86 84 77 74 70 75 79 70 69 89 87 87 81 78 74 69 64 58 48 53 61 59 57
86 72 60 60 88 83 76 75 66 57 60 62 81 81 86 88 89 91 93 93 96 98 98 94 91 93 85 80 77 75 74 77 74 64 62 67 88 86 81 76 73 73 70 71 71 72 73 71 65
71 74 67 57 87 88 91 79 80 67 70 70 76 93 90 84 90 91 94 96 92 95 97 90 86 86 83 80 77 75 75 74 73 63 67 68 61 72 83 81 76 74 74 73 76 80 79 74 73
65 82 68 61 80 87 86 91 80 76 74 76 72 76 92 93 92 87 87 92 88 89 92 87 82 81 80 74 73 69 74 77 71 63 58 60 62 65 70 76 76 74 75 76 77 80 75 75 72
85 82 86 74 79 85 91 92 74 84 79 78 78 77 84 92 90 88 85 93 92 87 85 82 77 80 80 73 68 63 72 74 66 56 52 59 61 60 59 68 72 75 77 79 80 79 72 66 62
92 98 94 78 72 86 80 88 80 77 85 80 81 79 66 92 90 90 87 78 76 70 69 75 76 81 79 73 66 62 69 71 61 60 54 48 54 59 61 61 65 79 76 76 71 71 68 66 65
96 99 96 84 72 82 83 75 84 83 82 85 90 88 78 74 77 76 81 75 64 67 69 72 77 81 82 78 72 66 66 69 62 64 65 60 50 54 59 65 68 70 70 68 66 64 66 67 67
100 94 86 65 61 79 79 65 86 87 86 86 88 81 73 59 55 60 72 78 70 66 71 72 80 74 83 84 78 71 70 74 71 67 67 66 66 58 58 56 61 63 63 63 64 66 69 70 70
100 88 98 76 54 68 76 74 73 88 85 84 84 84 71 52 49 55 64 73 76 74 68 70 73 72 79 80 81 78 70 68 67 71 73 69 69 70 69 69 69 70 70 62 63 66 70 73 73
100 88 87 85 70 72 70 80 77 71 71 77 86 86 59 41 46 53 73 77 77 78 77 76 68 71 76 73 91 79 79 76 78 70 73 75 73 76 74 74 76 75 74 71 68 72 78 76 81
95 87 80 78 94 99 82 96 85 85 60 53 66 78 54 40 38 49 65 80 80 78 74 70 70 72 76 79 82 72 79 90 76 76 79 80 80 79 78 79 85 82 86 88 81 86 87 90 92
100 89 82 75 86 78 93 81 70 63 60 46 39 45 40 39 39 50 58 72 74 74 70 72 74 77 78 79 80 76 82 82 79 79 84 88 87 84 89 88 88 91 85 82 86 80 78 75 79
88 95 84 86 88 96 91 79 61 63 53 43 40 43 40 39 38 47 55 64 77 79 77 73 75 76 80 81 70 73 78 80 87 97 90 81 77 78 75 74 74 78 93 85 77 74 75 74 70
99 99 98 98 98 95 95 96 72 49 44 38 40 41 40 38 39 49 61 74 83 84 82 82 83 86 73 72 73 79 77 72 73 79 77 75 87 77 80 72 67 63 67 76 74 75 65 65 68
100 100 97 95 96 96 74 90 58 39 37 40 38 38 40 42 40 53 64 68 76 81 82 83 80 78 78 74 75 81 73 70 69 69 69 64 62 69 74 73 75 76 81 80 79 81 65 65 65
100 99 95 90 72 90 91 61 39 39 41 41 41 40 41 41 41 59 65 60 65 72 77 82 82 87 88 86 75 73 69 66 64 66 70 68 63 64 66 69 73 77 77 80 88 90 89 93 88
95 90 95 94 85 92 74 50 47 40 41 43 43 43 43 43 42 63 65 58 55 53 54 64 77 85 86 80 68 61 63 66 68 70 62 62 67 69 74 78 78 74 73 72 74 75 76 76 78
92 95 94 86 90 87 83 60 47 55 38 42 40 37 37 41 45 62 68 57 55 50 48 49 58 72 86 86 82 81 75 73 70 68 66 68 70 72 71 68 65 65 69 73 74 76 80 83 82
70 73 88 90 89 98 88 70 42 52 48 50 51 50 51 42 44 54 63 61 62 60 55 53 54 55 60 65 67 68 68 70 72 70 68 65 60 58 62 69 72 72 75 76 80 83 88 91 98

GFSSGP_925_rhum_105.txt.gz
RH
66 58 53 83 95 90 84 69 46 32 28 26 21 42 54 54 51 62 98 94 81 92 90 90 88 89 92 94 95 79 92 95 94 94 94 97 99 98 96 93 89 87 85 86 90 93 95 96 96
79 62 81 94 98 98 73 54 47 38 23 38 56 57 59 69 94 97 98 94 79 92 92 90 90 87 90 96 95 91 95 94 92 96 97 95 95 95 92 90 86 85 83 86 95 96 92 95 76
77 68 91 99 98 84 47 51 29 25 23 27 53 68 69 84 91 90 89 97 88 95 92 91 90 85 88 92 88 85 89 98 95 89 86 92 96 94 91 88 89 89 89 97 97 89 89 79 75
74 80 94 99 82 72 45 38 29 26 21 24 55 79 81 82 87 92 99 100 96 94 89 92 87 86 84 84 84 83 92 95 90 86 89 90 94 92 91 93 94 87 91 90 92 84 74 74 72
78 91 94 95 81 58 52 36 27 25 22 24 72 82 87 76 82 100 100 100 99 96 90 86 86 86 79 81 83 86 90 95 97 92 94 94 92 92 94 94 77 79 91 94 90 78 71 72 69
90 93 96 96 89 61 55 42 32 30 28 39 75 92 89 91 100 99 100 96 90 88 88 86 85 86 81 77 80 82 88 92 92 90 92 91 92 94 95 84 84 86 93 91 78 72 71 70 68
86 96 85 71 87 74 58 38 40 31 28 29 76 92 95 97 99 98 99 99 89 86 89 85 86 84 82 82 74 85 85 86 86 87 88 88 88 93 86 86 85 91 96 83 76 72 70 70 68
83 94 82 72 80 84 54 44 35 33 29 46 77 95 95 97 99 100 100 100 94 90 90 89 87 87 84 86 78 85 88 76 76 85 86 91 88 91 91 84 87 88 82 75 74 72 68 72 70
66 90 86 74 67 75 53 46 35 28 41 47 68 79 79 100 100 100 100 98 100 99 85 93 90 88 84 86 86 89 93 78 63 57 81 89 85 79 84 80 82 66 68 71 70 63 63 71 74
80 89 75 60 54 67 77 62 39 41 59 75 91 93 94 98 97 95 96 97 98 100 99 92 90 87 87 88 90 93 99 89 71 54 48 64 70 69 65 64 65 65 62 59 56 54 55 68 71
77 82 76 59 59 76 89 85 58 51 48 74 87 96 93 97 90 90 87 87 94 95 100 95 92 86 90 92 90 89 88 95 87 70 59 47 52 59 60 62 64 64 64 62 62 58 54 57 67
88 69 70 67 68 64 86 90 76 61 63 61 71 89 91 92 88 85 84 86 78 98 100 100 90 92 93 89 88 78 79 83 91 86 76 70 66 59 54 51 53 52 52 53 54 51 60 59 62
96 64 60 62 60 86 81 91 80 61 67 76 77 89 91 88 89 84 86 91 92 97 100 99 87 98 92 86 84 78 66 68 73 85 88 81 78 75 72 65 62 60 59 55 47 54 61 60 59
88 70 58 57 72 76 90 89 89 78 68 76 84 81 85 88 87 88 93 94 98 94 99 100 90 91 91 85 81 73 68 76 76 70 74 87 82 79 76 74 72 74 70 71 71 70 74 76 73
86 94 76 63 70 86 85 89 96 84 68 82 82 81 86 90 89 91 91 95 96 96 100 100 100 90 87 81 76 74 70 79 73 60 56 61 69 77 79 79 79 74 75 77 79 82 82 80 77
98 83 83 63 66 80 87 99 87 85 72 84 88 88 79 81 94 93 94 91 91 94 100 100 100 94 82 80 77 76 74 76 69 63 65 66 62 63 70 78 76 75 77 80 80 81 82 76 73
100 96 96 73 70 91 84 97 86 89 77 83 90 89 79 76 83 100 97 80 73 88 87 92 97 96 87 81 77 74 72 74 70 66 61 61 60 63 66 68 68 74 78 80 81 82 81 72 68
98 92 93 79 82 82 89 84 86 88 87 86 88 88 80 74 69 86 99 88 72 94 71 88 99 93 85 80 81 81 75 77 76 68 57 56 58 61 64 64 64 66 79 82 82 79 75 71 68
100 98 91 76 74 85 90 77 83 83 81 90 87 84 81 76 60 51 93 82 69 69 71 82 82 98 96 85 92 88 82 80 74 68 55 52 51 52 56 61 65 70 78 72 73 69 70 68 70
100 98 95 81 68 77 84 81 75 84 79 94 88 85 83 81 62 53 68 100 81 81 68 69 70 81 81 91 88 90 78 75 70 64 64 66 58 59 55 56 62 66 67 68 68 68 66 68 73
99 90 98 82 86 83 80 92 91 93 85 84 85 80 82 80 75 54 67 91 96 93 83 68 68 67 74 78 95 82 86 83 78 72 68 70 69 68 65 66 70 73 74 71 66 67 72 73 80
96 78 79 85 89 99 91 99 95 90 89 86 87 85 84 81 68 53 58 81 83 66 65 70 65 67 70 64 72 81 76 82 71 81 76 78 76 71 73 75 76 79 79 78 75 73 81 88 92
100 79 80 92 99 96 98 86 73 84 86 87 78 83 81 76 67 52 53 69 69 72 73 66 71 68 78 67 68 72 75 71 65 68 85 84 82 86 85 83 91 91 94 87 82 91 100 91 95
96 93 83 96 100 95 90 80 69 84 63 62 58 73 75 78 59 40 43 53 74 80 82 82 74 74 69 82 84 69 80 74 82 84 92 90 91 88 90 87 85 90 86 84 86 86 82 90 87
100 84 97 98 97 93 86 77 58 57 48 46 48 44 59 51 41 40 65 81 79 83 84 85 81 80 87 70 80 84 85 80 76 83 98 99 93 88 83 82 80 80 85 94 94 92 81 80 86
100 100 92 95 97 97 90 82 56 43 40 41 38 36 37 38 40 43 59 74 76 74 84 89 85 82 71 69 70 77 79 76 77 76 72 76 76 75 79 85 88 82 79 85 87 79 79 78 83
100 98 96 85 78 91 89 71 42 40 43 39 46 43 42 43 44 43 57 67 75 78 78 78 78 76 65 60 68 74 81 79 73 72 70 73 72 72 75 80 76 71 73 79 80 80 85 91 91
97 93 96 93 82 94 83 60 53 54 48 47 48 47 43 40 42 44 59 62 66 70 72 84 85 78 70 73 77 77 82 81 76 73 72 70 69 64 62 65 70 77 80 83 84 83 79 81 83
90 95 93 84 89 87 85 60 45 58 53 45 49 44 42 42 43 49 60 58 65 72 77 83 85 82 84 90 89 84 78 76 74 75 76 69 63 67 73 76 78 78 78 75 71 71 74 78 82
69 74 87 90 90 94 89 75 48 54 55 51 56 56 56 52 50 56 65 62 66 65 62 62 69 82 91 95 88 83 80 79 76 74 72 73 76 77 75 73 69 66 67 69 71 73 78 84 87

GFSSGP_925_rhum_111.txt.gz
RH
77 71 52 68 78 89 72 64 55 38 31 30 39 49 48 47 49 50 96 96 92 93 97 98 94 94 92 91 82 78 79 83 84 88 92 94 95 94 93 87 85 78 81 92 95 94 90 96 98
82 74 66 91 95 86 68 58 54 42 29 30 34 52 52 41 74 87 94 99 95 96 98 99 90 84 77 59 79 79 79 82 86 87 88 90 96 94 91 86 84 76 79 93 96 96 93 91 91
72 70 81 88 87 87 66 53 49 38 32 32 32 52 61 58 82 84 89 99 98 98 99 100 86 83 64 68 89 83 79 81 86 89 92 91 92 93 89 84 85 80 82 86 89 94 86 72 66
82 83 80 96 80 62 66 40 41 37 30 24 34 38 61 70 80 83 95 100 100 100 100 94 87 82 58 90 91 91 86 89 92 93 90 88 93 91 88 84 79 82 83 90 92 71 66 52 47
74 84 88 84 73 59 58 47 41 35 30 23 41 36 45 94 84 86 94 99 98 100 100 99 87 85 63 94 92 92 93 92 92 89 85 93 92 91 92 82 82 85 85 80 93 73 60 40 40
83 78 92 86 69 51 52 51 51 46 40 26 52 51 43 94 82 94 95 99 96 100 100 100 86 87 64 88 93 94 94 92 90 83 88 95 94 93 93 82 86 87 79 84 90 70 64 44 42
81 88 81 70 66 56 55 55 57 54 49 41 42 59 69 95 90 96 97 98 94 99 100 100 97 87 75 69 96 94 94 92 84 79 89 92 89 91 93 88 86 87 86 79 79 71 69 60 53
77 83 73 71 72 68 44 40 49 56 53 36 61 51 57 81 100 94 92 100 98 100 100 100 99 98 97 81 86 95 93 88 77 85 93 88 89 94 90 87 84 84 81 73 73 71 70 71 70
69 84 76 68 77 64 44 44 46 47 48 41 40 67 65 82 98 98 97 100 99 100 100 99 98 99 98 95 84 88 92 89 88 91 90 90 94 96 90 93 84 87 84 73 71 70 70 71 74
83 84 67 48 48 56 51 49 49 51 57 61 56 55 73 92 94 92 94 98 95 100 100 100 97 97 97 95 89 93 93 96 96 95 93 96 94 96 95 92 90 89 85 78 72 72 72 73 75
82 82 53 52 47 58 64 57 45 68 71 66 59 68 64 92 87 85 92 98 96 99 100 100 96 98 95 92 88 92 89 89 87 85 88 96 97 94 94 96 95 92 85 84 69 71 72 73 72
93 75 67 53 52 56 62 62 64 56 59 50 61 64 63 87 91 82 88 98 98 98 99 100 100 98 98 99 95 94 86 88 90 86 84 97 98 93 91 89 88 80 77 71 62 61 67 71 71
84 72 66 63 66 60 56 66 65 66 62 48 51 61 66 65 84 88 82 89 98 97 100 100 98 97 96 100 99 96 95 83 84 88 82 87 92 87 82 74 70 66 62 58 58 59 59 64 68
75 79 71 70 69 67 62 57 70 69 62 68 62 63 68 67 72 87 91 95 85 88 99 100 97 99 98 100 100 100 94 73 72 82 81 72 68 65 64 64 62 59 58 57 55 53 61 64 66
86 100 92 74 74 70 62 69 66 62 67 76 71 64 66 67 66 95 81 86 87 91 98 100 97 86 87 92 97 99 98 78 66 58 61 64 59 57 57 54 52 47 47 50 53 53 65 76 80
94 89 86 60 70 66 67 74 59 59 71 76 69 70 76 78 63 91 91 88 88 92 99 100 100 84 86 82 82 88 90 92 86 71 65 60 53 49 48 48 51 60 68 72 74 77 82 83 79
85 89 74 62 66 64 72 68 69 75 84 75 75 79 82 80 65 71 79 98 97 92 95 99 85 83 88 88 88 83 82 86 88 90 84 79 77 73 69 68 69 75 78 79 78 80 83 82 81
93 96 84 79 70 64 79 66 85 85 78 78 88 81 79 82 66 64 72 93 90 88 98 99 88 95 93 97 98 90 83 77 74 77 80 82 86 84 84 79 80 84 83 83 84 84 85 85 80
91 95 94 73 62 75 83 64 67 87 87 87 87 85 77 82 73 89 78 80 82 94 97 99 100 100 100 100 100 100 95 75 76 78 75 72 71 77 80 81 84 85 84 83 85 88 88 87 80
90 97 87 71 64 73 68 68 69 89 84 87 89 84 78 79 73 84 96 90 97 85 91 99 100 100 100 100 100 100 99 88 75 80 74 64 68 71 71 69 72 78 81 84 87 89 88 80 75
91 97 93 85 77 74 76 98 96 87 84 86 86 84 82 84 73 79 96 87 93 90 94 97 100 100 100 100 100 98 99 96 94 86 81 74 70 70 70 68 70 76 82 79 80 89 84 76 78
97 94 100 79 99 99 96 99 95 91 88 90 87 88 89 80 68 67 91 97 96 84 87 90 98 96 99 100 100 99 97 95 94 92 85 83 81 69 71 74 77 77 85 89 86 81 80 77 86
100 100 98 88 100 100 97 84 100 85 92 87 85 88 90 73 65 62 74 91 99 99 97 100 98 91 96 100 100 100 100 96 86 93 90 85 82 70 73 74 80 85 83 80 92 90 88 88 85
97 96 95 84 91 97 98 75 87 93 83 77 78 91 88 72 68 59 51 53 83 98 100 98 91 89 87 96 99 98 85 81 88 82 83 84 82 83 94 92 90 86 82 85 85 98 99 94 100
100 85 91 89 94 96 95 74 64 69 69 66 74 93 80 70 67 53 59 75 88 100 99 86 99 97 82 80 81 92 96 94 80 75 90 75 90 99 92 93 100 99 89 84 100 99 99 100 99
100 86 92 87 92 92 71 86 62 48 46 54 59 81 82 67 58 50 47 64 85 100 100 85 93 94 85 86 98 100 98 89 90 89 75 88 94 99 88 99 100 97 88 88 92 98 97 94 89
99 92 96 85 76 81 84 56 45 44 47 49 51 80 84 70 47 43 43 60 71 86 98 91 82 97 87 85 91 85 81 90 85 86 98 99 100 100 100 96 92 94 93 89 91 91 89 88 90
90 88 91 90 85 91 73 71 72 61 62 58 54 62 84 72 54 48 42 55 75 83 90 97 98 98 98 98 97 99 98 100 100 100 99 94 89 90 94 96 91 86 81 82 87 90 90 85 78
91 93 85 83 84 82 78 93 52 63 65 68 66 56 71 78 52 48 42 59 75 88 95 98 100 97 96 97 94 94 96 99 94 91 91 89 86 86 86 82 81 82 84 84 81 77 73 72 75
75 86 90 86 88 90 84 88 52 58 67 66 69 64 62 77 72 68 60 60 71 84 96 99 100 91 88 91 96 95 94 92 88 87 85 80 77 78 76 80 80 80 74 66 62 61 63 66 72

GFSSGP_925_rhum_114.txt.gz
RH
74 63 55 54 54 46 41 34 27 25 26 20 22 26 29 27 36 43 68 62 59 65 79 93 88 98 85 68 56 79 81 80 83 89 91 94 95 85 78 83 76 78 87 89 91 90 98 98 99
71 60 53 48 58 42 37 28 34 29 20 21 20 25 37 33 37 65 74 74 67 66 80 85 91 95 90 76 61 69 81 82 85 89 89 92 93 82 80 82 73 88 92 91 92 97 95 99 99
69 62 43 44 52 43 31 26 31 27 23 24 22 21 24 30 49 54 74 75 71 68 81 87 90 93 92 79 61 72 82 84 87 89 89 91 86 87 84 78 80 80 87 88 90 93 94 96 95
63 59 49 64 41 31 29 23 31 32 23 20 22 25 23 37 55 62 75 78 75 72 78 92 90 93 81 71 72 76 81 85 89 92 94 91 85 87 80 79 80 78 85 86 93 92 75 65 66
65 56 57 51 38 26 22 23 27 30 26 22 20 24 22 58 69 78 81 78 79 75 83 98 91 84 81 84 82 79 81 86 91 92 92 84 86 84 81 79 79 82 85 83 92 69 49 39 37
60 48 57 53 38 28 23 22 33 30 24 26 23 21 22 52 74 67 86 85 85 80 88 95 92 79 87 88 83 81 85 88 91 92 85 86 87 84 79 81 82 85 86 89 90 65 47 40 42
58 53 51 41 37 32 29 23 33 32 32 32 26 25 20 62 64 72 61 83 92 85 88 94 91 86 92 92 93 85 88 91 90 85 85 90 88 82 79 86 86 80 86 86 76 57 49 47 47
54 60 58 45 42 38 26 27 25 30 39 28 28 34 28 38 69 67 56 80 94 90 86 90 81 78 90 99 95 95 94 90 88 83 90 90 88 77 85 89 87 78 86 82 76 67 61 56 56
45 66 62 46 38 35 28 30 26 24 33 34 33 36 31 36 76 84 89 94 94 97 89 82 77 70 70 95 99 96 94 91 86 80 90 88 77 88 95 90 85 75 78 77 73 70 68 68 68
56 58 48 33 29 31 28 40 36 37 28 35 42 34 40 52 69 89 91 87 98 98 92 82 72 69 66 76 98 98 98 92 88 88 90 65 67 73 80 91 83 77 75 73 71 69 70 77 77
51 60 36 33 31 33 36 39 36 44 49 35 37 38 44 50 69 79 89 84 94 98 92 84 77 81 67 66 89 94 95 85 87 88 69 62 65 76 88 89 86 92 84 82 80 76 72 70 67
59 43 40 40 36 38 42 37 40 41 40 32 33 34 44 47 54 71 79 90 98 99 94 87 78 75 64 67 64 74 89 88 74 70 69 80 88 73 80 88 93 88 77 75 70 67 69 70 67
54 44 39 39 46 47 44 44 43 41 36 39 36 42 44 45 49 62 79 83 78 75 98 92 86 71 67 68 64 65 67 70 70 69 80 93 95 82 86 88 86 77 75 72 65 62 65 66 64
41 49 51 48 50 51 54 48 42 41 38 48 50 49 47 43 46 60 78 89 90 85 99 98 94 71 77 76 68 64 66 67 70 70 76 94 81 75 74 76 77 76 73 66 63 60 60 62 63
50 64 55 48 51 58 51 62 54 33 35 49 55 50 42 41 44 59 76 95 98 97 98 98 93 80 77 96 85 73 68 70 72 73 76 81 79 79 76 72 74 71 67 66 63 61 62 66 73
57 57 70 31 38 47 59 70 41 32 32 45 53 51 44 39 42 57 80 85 81 92 100 95 95 91 78 100 99 99 79 68 71 74 76 78 77 78 74 71 69 67 66 63 61 60 66 74 77
68 76 45 36 30 42 60 62 41 40 37 40 49 49 55 42 44 60 84 81 90 55 82 98 98 95 92 100 99 99 98 76 65 64 68 74 71 73 70 66 65 70 75 79 81 82 78 80 80
58 71 56 51 41 56 56 55 48 58 61 64 57 56 57 52 52 55 91 85 98 83 89 98 97 96 95 98 100 100 96 89 85 74 67 68 65 70 69 70 76 82 84 83 85 83 86 82 79
69 78 75 50 42 51 80 55 48 67 70 65 66 63 64 57 50 54 76 73 99 85 90 95 98 98 98 100 100 99 91 86 85 86 85 85 82 86 85 82 85 89 87 85 87 88 88 88 84
67 72 72 52 43 51 60 64 43 52 64 64 67 64 64 57 53 53 66 98 92 94 91 93 96 100 100 98 95 96 93 87 84 87 87 87 88 92 91 90 90 91 89 91 91 90 90 82 77
70 84 73 75 74 56 61 69 56 75 71 66 61 57 69 62 55 61 64 94 91 93 87 94 99 98 99 99 100 99 98 96 94 96 92 90 88 82 93 94 97 95 98 98 93 88 86 75 86
91 85 99 98 98 97 56 85 83 79 85 75 68 68 71 62 58 64 62 88 93 98 98 91 100 99 98 99 100 99 97 93 88 92 96 74 73 76 76 79 80 88 93 89 85 89 87 82 90
97 99 100 99 99 100 87 86 100 93 91 76 65 64 60 67 70 66 61 84 87 98 95 99 95 100 100 100 100 100 97 90 93 96 99 92 86 84 75 79 93 86 77 74 74 78 76 79 94
97 100 100 100 100 96 85 71 99 95 71 65 59 63 68 77 77 62 69 95 98 99 90 93 99 100 100 100 100 99 98 100 100 100 97 98 95 90 83 80 79 79 84 89 80 79 83 84 99
92 93 82 93 93 95 94 62 74 54 64 66 64 69 83 89 77 53 63 93 97 96 97 95 88 92 89 91 95 100 99 97 90 98 77 99 100 96 86 85 88 91 89 91 92 100 97 92 96
99 93 89 90 91 93 73 86 82 45 42 41 63 79 86 90 68 50 55 79 99 99 99 100 99 95 94 91 96 95 100 97 98 92 88 93 90 84 86 90 92 100 100 99 96 99 99 99 99
92 89 95 80 63 70 92 65 47 45 49 46 73 84 90 90 80 50 54 69 95 100 100 100 100 96 99 100 92 95 80 100 96 88 87 92 93 92 98 85 99 100 100 99 100 100 100 100 100
88 95 90 77 75 88 85 89 90 62 63 56 82 88 94 86 53 40 52 66 79 98 100 89 98 98 90 94 90 86 86 98 83 81 94 86 94 86 93 100 100 99 96 91 98 99 95 99 96
85 83 76 66 66 66 76 93 58 64 65 61 72 91 96 90 76 48 46 65 84 91 100 100 100 100 98 99 98 91 93 86 88 92 97 98 93 100 100 99 100 93 90 90 87 87 87 87 80
67 77 75 78 71 72 62 91 44 51 61 59 63 86 93 89 82 59 50 56 77 92 99 100 100 99 100 100 99 100 100 100 100 100 100 100 100 100 98 94 89 86 83 81 84 80 77 80 83

GFSSGP_925_rhum_117.txt.gz
RH
66 48 38 43 50 38 34 28 19 19 17 13 15 20 23 21 28 67 50 45 45 57 75 90 86 79 75 90 81 78 78 82 87 87 96 97 96 96 93 93 94 86 87 86 96 96 99 95 95
53 44 38 32 44 39 28 19 21 18 18 15 16 18 23 26 27 51 46 50 47 57 74 79 85 72 66 78 88 84 83 82 83 87 92 91 84 80 92 86 87 83 82 94 95 93 88 88 95
56 47 37 34 41 41 26 16 16 15 18 18 19 16 19 24 22 40 58 57 52 61 79 80 87 83 70 61 84 89 86 82 85 89 88 87 83 76 82 79 89 89 83 83 94 92 93 96 99
43 41 40 42 30 23 25 18 14 17 20 19 18 20 14 14 18 36 63 56 53 73 79 86 88 96 78 63 67 84 88 84 90 91 88 86 81 78 77 79 88 86 87 80 95 97 97 81 82
42 40 48 37 31 22 17 14 16 17 23 22 20 21 17 16 45 52 63 63 54 74 81 86 86 94 88 69 66 80 84 86 90 91 89 85 80 79 77 84 78 82 85 86 89 78 57 57 49
46 39 46 42 31 21 16 14 13 16 18 20 20 19 17 14 44 62 64 63 61 75 88 90 88 90 89 82 65 78 83 88 90 91 89 84 81 81 78 81 78 81 76 71 65 61 39 35 38
46 42 42 32 27 22 19 15 17 16 18 20 16 22 18 14 39 66 58 56 74 76 84 89 93 95 81 80 74 81 85 88 89 90 88 82 82 82 79 79 81 85 83 69 56 46 39 41 45
39 41 43 35 33 31 20 18 16 19 19 15 15 22 26 17 38 56 66 74 62 81 83 86 85 86 85 97 83 88 88 89 89 89 86 87 81 81 80 79 83 84 83 65 51 44 46 49 50
35 53 57 45 36 28 19 21 18 16 20 18 17 20 21 30 41 60 70 82 81 83 83 88 82 72 72 91 94 87 90 91 91 88 84 87 82 87 90 88 83 85 76 71 62 56 55 58 56
49 50 41 28 26 26 22 21 19 21 23 21 20 23 28 32 40 53 71 72 91 83 81 86 77 62 63 83 98 94 94 95 92 87 88 72 69 81 88 86 82 85 84 86 75 67 66 69 70
48 58 37 31 26 25 28 27 22 26 32 31 23 20 30 34 40 67 67 70 70 59 80 91 70 57 58 77 96 98 98 96 94 89 78 52 63 79 87 76 81 89 83 91 80 71 75 64 60
49 37 34 32 30 32 36 30 29 27 28 23 27 25 22 33 36 52 74 83 75 71 70 81 66 56 53 70 91 95 93 90 91 82 58 50 58 77 88 82 79 79 77 76 75 68 62 61 58
37 34 31 29 29 31 31 37 36 32 24 21 24 31 36 36 41 46 62 75 90 80 78 71 77 58 50 59 79 92 91 87 79 77 50 52 58 65 80 79 80 71 65 64 62 58 60 58 56
34 34 33 29 34 35 38 38 36 33 27 25 26 30 32 38 51 56 48 61 84 92 83 75 96 64 50 51 66 80 86 76 61 61 63 74 67 63 80 82 83 69 64 63 58 56 57 56 55
34 42 35 33 30 34 34 47 44 33 27 27 27 29 32 38 41 48 44 56 81 91 99 94 92 62 52 53 51 54 68 68 60 60 78 81 70 65 71 69 66 65 65 59 56 54 53 54 57
48 46 58 31 24 23 33 69 39 30 33 31 27 32 34 36 39 39 42 56 78 86 98 84 95 67 62 55 54 53 58 58 60 61 71 77 66 67 67 66 66 66 60 58 56 54 57 62 70
47 65 42 31 19 21 31 67 40 32 31 32 28 25 31 38 37 40 42 60 87 92 97 94 95 74 77 70 64 57 56 60 61 63 66 67 66 69 68 64 62 62 59 57 56 57 62 71 72
54 58 45 39 28 36 60 58 41 32 32 31 28 26 31 39 45 40 47 77 94 97 88 96 96 85 88 90 86 73 61 60 64 65 69 68 68 68 63 60 59 61 66 70 73 73 74 70 69
49 55 60 40 30 34 36 46 62 37 40 40 35 39 37 44 40 42 52 81 98 92 90 100 98 89 90 100 100 93 75 59 60 61 62 66 61 62 60 58 64 69 73 73 75 75 79 82 79
46 52 50 39 34 40 44 44 35 37 49 55 51 47 52 46 44 41 52 77 97 92 78 99 91 95 95 95 98 91 85 80 76 69 61 59 58 63 66 70 70 74 76 77 79 80 83 79 80
54 63 61 60 53 59 66 54 41 39 42 44 50 48 45 45 45 41 49 72 98 94 84 80 96 95 95 94 92 91 82 81 83 82 78 76 76 78 75 75 78 80 80 82 84 86 86 78 75
93 55 89 89 94 88 48 74 56 42 48 54 48 50 50 47 43 43 52 66 96 91 83 96 90 99 98 94 94 90 90 86 82 86 87 86 83 87 87 86 89 88 86 92 91 85 85 87 93
89 83 100 100 100 98 72 95 71 43 68 65 59 59 52 50 45 51 54 63 94 92 81 98 97 98 99 94 94 93 91 84 86 89 89 92 86 90 95 92 86 88 92 94 95 93 95 95 92
92 100 100 100 100 91 68 90 99 99 89 66 66 61 63 66 61 61 57 61 91 89 86 93 100 99 96 91 85 94 92 88 87 92 90 94 92 96 91 86 91 93 89 82 84 88 86 96 93
86 98 97 97 97 81 94 92 100 88 72 76 77 82 82 73 70 61 56 79 94 98 98 95 99 100 99 97 99 100 99 99 94 94 95 96 100 100 98 86 81 77 76 79 71 80 86 88 98
98 94 97 95 92 80 52 87 99 72 55 68 70 83 82 76 67 52 61 88 92 99 97 91 96 98 98 95 97 100 98 98 100 100 83 99 99 97 88 82 79 82 82 80 80 87 92 91 96
86 88 83 96 94 77 94 97 85 62 69 79 83 89 89 81 69 64 59 90 93 97 98 97 98 97 98 94 85 95 92 87 96 97 98 98 94 96 97 92 93 94 91 92 90 96 98 96 96
94 86 89 87 93 91 91 89 96 90 89 87 87 96 92 88 72 66 75 88 89 90 92 95 98 96 89 100 90 95 90 89 89 90 88 98 89 91 95 93 86 95 91 76 95 98 98 96 97
92 81 70 65 60 93 83 94 94 77 76 89 88 96 97 93 87 74 85 90 99 99 100 100 99 100 100 100 99 95 98 99 97 90 92 94 92 94 95 96 89 96 93 98 100 99 97 99 96
68 70 66 93 67 69 61 96 59 59 71 80 87 92 94 92 82 71 81 86 94 100 100 99 100 99 100 100 99 100 100 99 100 100 91 80 79 79 70 93 100 100 99 99 97 92 90 87 86

GFSSGP_925_rhum_123.txt.gz
RH
28 53 61 47 79 85 84 73 49 42 27 22 19 18 21 24 32 52 64 61 68 75 72 75 76 84 86 90 84 92 90 88 84 88 93 98 95 96 95 96 90 90 97 94 88 96 97 96 98
61 55 46 59 86 87 76 47 43 34 26 22 21 20 21 23 64 69 66 75 68 75 66 75 75 84 85 85 80 88 88 88 88 85 89 92 94 95 93 97 89 96 97 93 88 95 95 94 86
52 51 63 67 76 77 65 36 36 25 22 19 21 17 20 23 63 63 56 73 73 77 75 70 77 84 82 81 78 81 88 87 89 85 87 88 89 93 92 88 84 92 92 93 88 92 74 81 68
54 53 62 76 65 50 43 37 27 24 18 18 24 22 18 18 36 48 56 76 75 77 76 78 75 79 85 83 80 80 86 85 89 87 87 84 86 90 86 83 83 89 86 87 84 75 74 72 57
48 66 82 81 66 50 38 30 26 24 20 18 17 25 22 52 51 47 52 71 74 82 76 75 74 74 84 82 79 80 83 84 89 88 86 80 84 92 85 77 84 84 83 82 88 84 56 43 59
68 64 86 92 69 47 37 28 25 22 19 18 17 22 26 52 41 44 62 70 72 72 70 71 77 72 82 87 82 80 84 84 86 87 83 80 80 88 85 84 82 79 83 90 97 84 58 45 59
69 77 80 63 55 45 35 25 24 24 25 23 15 21 20 26 68 55 60 63 75 75 73 72 72 76 72 87 88 84 85 88 84 85 84 90 78 80 87 85 78 64 66 61 57 46 35 51 60
60 68 70 67 65 56 33 30 26 25 25 20 17 24 22 53 33 50 64 61 65 70 76 74 73 73 74 68 84 85 86 88 88 86 86 89 78 78 89 87 84 70 57 42 36 34 36 54 62
42 74 80 68 60 50 34 34 26 23 23 22 20 19 18 18 22 28 43 63 64 65 66 83 80 81 82 74 74 79 82 85 88 87 87 86 79 84 87 84 78 56 46 36 35 40 43 54 60
58 80 67 51 45 44 38 39 36 32 31 30 28 24 21 24 36 48 51 61 56 66 72 72 87 88 86 79 72 80 88 88 89 89 91 84 79 86 85 81 68 53 44 40 42 44 44 56 59
56 70 56 51 47 44 46 42 34 41 43 35 33 30 27 26 31 51 68 58 50 54 73 86 83 78 86 96 79 78 95 89 88 90 90 81 82 88 86 88 77 55 48 48 48 50 44 56 59
70 54 52 50 45 46 47 40 39 37 36 33 31 31 30 30 33 39 50 62 65 65 75 86 95 86 83 90 82 99 97 92 92 93 88 80 88 87 85 86 81 61 54 53 56 62 65 59 62
54 47 43 39 43 43 37 42 41 37 31 29 28 28 32 32 33 40 46 57 68 60 66 74 80 98 88 87 76 97 96 99 93 92 86 79 86 82 82 84 82 68 65 59 66 70 70 66 61
47 44 41 36 38 37 39 39 37 35 36 35 31 30 30 30 32 31 45 62 63 68 56 52 62 83 98 93 91 95 98 99 96 91 80 73 83 86 81 79 83 74 65 58 63 67 64 60 57
50 60 54 48 43 45 39 48 43 32 30 30 30 30 32 31 29 31 33 45 55 60 59 54 63 80 87 95 68 97 100 94 98 87 71 72 89 87 75 76 77 71 71 59 66 66 61 59 57
66 65 79 48 44 41 46 61 39 32 34 34 32 32 31 29 29 28 28 31 44 54 63 57 49 66 80 93 76 74 100 99 99 83 67 65 81 82 73 73 71 74 76 67 65 59 59 57 58
77 96 79 60 42 42 43 50 35 34 34 41 34 33 31 31 29 27 28 27 30 49 56 66 52 50 63 91 80 89 99 100 98 80 67 69 74 77 67 72 64 75 72 63 58 56 55 58 60
88 90 75 68 46 48 52 48 37 33 34 38 40 39 38 38 32 28 27 26 33 45 47 56 48 50 58 100 99 93 99 100 93 77 68 66 73 71 68 67 66 73 64 60 57 55 56 64 72
70 79 88 66 49 46 47 45 40 38 44 39 39 34 43 48 37 29 27 29 46 41 53 63 56 48 62 100 100 100 99 88 84 74 67 71 69 69 72 69 73 67 62 58 57 55 60 69 74
65 71 64 48 39 47 52 60 50 48 51 51 44 46 42 42 40 32 32 46 53 55 56 56 63 67 52 96 93 100 98 81 79 70 62 65 70 66 72 72 67 65 61 58 56 56 76 79 77
66 75 66 63 51 55 66 77 66 52 48 45 48 45 48 48 39 34 38 67 56 65 82 68 69 68 48 100 90 89 85 74 78 76 70 64 70 69 66 65 65 63 59 59 64 73 74 80 81
77 57 64 71 92 96 71 88 59 55 61 55 50 50 65 71 56 63 58 73 71 55 58 73 90 69 61 97 85 81 81 77 71 80 75 76 72 69 66 64 63 61 62 71 75 77 78 82 80
85 78 91 96 98 98 83 97 79 89 74 58 59 68 61 54 61 63 59 59 68 55 69 100 92 82 80 79 94 78 75 70 73 75 76 71 71 67 64 61 60 62 71 77 78 83 84 86 76
72 83 89 97 99 98 72 92 91 98 96 91 82 72 63 64 71 56 50 60 68 56 79 100 100 99 85 72 98 80 73 74 76 76 78 75 71 66 61 61 62 73 78 78 82 85 85 87 82
91 100 96 95 98 92 95 98 90 98 97 83 83 84 87 82 77 65 65 72 71 81 99 100 100 100 96 70 97 87 74 76 76 79 77 84 78 76 72 72 73 80 81 83 87 86 88 85 81
99 99 98 96 96 97 100 97 99 96 94 85 83 94 86 88 75 71 81 79 74 89 98 94 98 100 99 83 90 88 89 74 83 85 79 87 83 74 72 78 77 82 86 87 86 90 85 83 82
91 100 98 100 96 97 96 93 96 90 94 87 91 90 92 90 88 81 77 77 76 95 99 92 96 88 84 84 93 86 99 92 76 89 90 87 91 91 86 84 85 88 88 86 88 87 80 77 90
98 95 97 99 96 96 92 97 97 98 99 94 93 96 91 89 88 91 92 76 76 99 98 94 83 78 100 96 100 99 95 90 81 70 87 99 95 92 94 92 89 84 86 84 86 89 82 86 92
98 100 98 98 97 100 96 97 100 100 100 97 94 89 95 96 93 93 94 79 93 99 96 92 99 100 98 94 100 96 100 100 85 85 88 88 92 87 98 93 90 92 87 90 87 87 85 94 94
70 84 78 95 93 96 98 98 95 97 96 96 96 93 92 96 98 97 86 97 96 98 99 100 98 98 100 100 97 100 88 94 91 100 99 100 92 89 100 99 93 89 92 92 76 80 92 97 82

GFSSGP_925_rhum_126.txt.gz
RH
35 60 59 48 68 89 90 75 57 50 32 27 23 23 23 22 29 45 71 73 70 86 95 86 79 85 84 84 87 95 85 90 89 87 96 95 95 95 95 91 89 87 88 97 95 88 94 95 95
63 55 45 66 84 90 67 62 49 40 30 25 20 21 22 24 64 69 72 73 66 83 93 85 82 88 87 80 86 88 85 85 90 90 89 91 96 94 95 90 96 97 88 93 90 97 95 93 86
52 55 61 70 87 81 64 46 40 29 23 21 21 22 21 24 57 70 61 76 80 84 83 81 84 87 88 81 85 86 85 80 88 85 86 87 90 92 94 91 96 96 86 86 91 96 82 68 74
57 56 68 82 76 63 50 38 36 29 22 18 17 19 21 37 52 54 71 84 86 85 84 79 81 88 86 84 84 86 86 86 84 85 85 88 88 88 92 86 92 91 86 85 85 79 68 66 71
54 72 83 87 81 58 44 38 29 29 25 21 17 18 21 52 66 57 73 85 80 91 84 80 81 85 87 83 82 87 84 88 84 86 86 86 88 90 86 82 88 89 84 80 71 77 64 63 66
72 70 92 92 72 53 48 40 32 29 26 25 21 20 19 46 55 72 81 75 73 82 87 82 79 82 84 80 79 84 87 86 86 87 87 85 90 89 82 83 85 88 87 74 69 59 56 63 68
75 82 85 76 66 57 45 29 27 30 29 26 22 24 18 46 30 21 55 74 81 82 83 85 85 82 82 84 79 80 84 84 87 88 86 86 90 88 77 82 84 83 80 53 52 46 61 64 71
69 75 78 73 71 66 38 38 29 28 30 21 19 26 24 46 32 24 33 65 68 70 76 75 89 87 88 83 83 82 83 84 88 90 86 84 87 87 82 82 76 82 71 43 48 40 60 65 69
46 79 91 73 63 57 38 42 31 28 27 30 22 24 24 25 22 24 40 38 62 64 69 71 76 89 94 91 88 86 85 85 89 89 89 88 86 86 87 80 65 51 44 41 32 35 61 65 69
60 85 73 56 50 52 51 50 45 37 39 37 34 30 28 28 26 31 60 67 54 53 69 73 73 72 91 99 93 92 89 88 91 92 93 94 85 90 88 83 76 48 34 31 34 40 59 62 67
60 78 59 53 50 50 54 51 40 40 42 38 40 36 31 31 31 35 31 37 58 58 55 69 70 78 75 93 94 95 89 89 89 91 95 91 88 92 90 86 71 49 34 37 41 44 56 61 62
70 58 56 53 52 55 56 48 48 42 40 33 34 33 34 30 33 32 34 33 55 52 65 74 85 76 81 80 90 100 100 99 93 91 94 91 91 93 89 82 64 44 40 42 43 44 57 59 60
57 50 46 43 45 45 43 47 48 44 37 34 34 32 34 32 31 31 32 34 48 55 50 70 80 81 73 82 77 97 100 100 96 95 92 90 88 96 94 81 63 43 44 44 47 44 58 62 63
51 54 52 46 48 46 46 44 42 37 33 31 31 34 35 35 34 35 33 33 37 57 50 43 61 74 84 79 86 81 100 100 99 100 94 88 80 87 85 82 66 47 45 51 62 68 67 64 64
55 63 58 49 48 50 45 51 47 38 35 34 32 29 29 29 29 32 34 31 28 38 53 46 45 59 76 80 93 86 100 97 100 100 97 84 78 84 83 81 72 55 55 61 70 70 69 65 60
67 68 78 47 44 45 53 63 43 36 36 36 34 33 30 28 28 27 28 30 28 28 53 52 46 49 72 73 83 100 100 93 80 99 92 87 76 82 82 79 78 63 60 58 66 68 69 63 59
77 96 83 67 47 49 51 63 42 37 40 38 34 37 36 32 29 28 29 28 28 29 38 61 53 44 46 69 80 85 89 98 99 98 87 91 89 85 79 76 74 62 64 59 66 67 64 60 61
85 94 79 76 53 52 61 60 49 43 41 38 32 30 30 32 31 28 29 31 30 27 30 50 56 50 43 42 73 84 93 87 100 100 85 89 93 85 85 76 68 64 74 69 71 63 61 58 61
76 83 89 68 55 62 63 57 45 39 42 41 36 33 32 34 33 31 32 34 34 30 31 61 69 58 52 50 61 100 100 84 86 100 90 81 92 92 82 75 63 70 77 73 66 59 57 64 73
83 91 86 63 46 50 53 56 47 46 47 48 48 45 40 34 32 39 40 39 40 38 40 67 71 63 59 53 51 63 86 90 93 94 98 87 91 89 82 73 63 75 79 74 61 57 64 72 76
82 87 80 69 54 64 70 80 72 56 55 50 49 46 45 40 38 41 42 41 42 59 59 77 65 61 60 56 58 71 89 96 98 96 100 94 91 90 79 68 61 70 75 64 59 57 58 74 80
90 61 65 70 96 97 70 91 61 54 77 65 69 62 54 50 43 43 46 45 52 58 53 63 65 69 74 64 88 94 94 95 97 91 99 97 91 86 76 72 68 68 71 62 59 56 59 77 85
81 69 83 82 98 98 86 97 80 86 86 83 81 78 74 54 57 65 62 44 53 63 70 69 60 57 68 73 91 98 91 95 90 90 96 98 90 85 74 68 70 73 67 65 59 58 61 76 78
68 83 89 93 98 98 80 91 84 92 96 92 89 73 75 77 64 64 59 57 66 67 61 59 59 66 71 76 99 96 93 93 100 98 94 94 90 78 69 64 70 68 66 63 59 64 75 78 77
95 99 98 91 98 91 91 98 85 95 95 95 95 81 77 88 80 75 68 75 71 71 69 63 61 87 83 88 92 97 93 98 98 98 94 89 86 83 77 68 67 66 64 61 66 76 81 84 81
98 99 97 100 97 93 95 94 90 91 92 91 85 79 80 92 90 87 78 80 75 74 67 61 79 96 98 88 94 95 93 99 94 93 89 85 82 80 75 69 66 64 63 66 76 82 87 87 86
96 100 94 99 96 98 93 82 84 74 88 91 94 88 90 88 92 91 86 89 77 72 62 69 82 96 100 95 86 85 86 100 98 94 88 83 82 80 72 66 65 63 66 77 83 85 89 90 86
98 91 97 99 97 94 88 96 97 96 97 95 95 95 88 85 91 93 91 82 73 69 68 92 94 99 95 93 88 75 68 86 100 92 85 86 82 82 72 73 66 70 77 85 85 91 93 89 82
98 99 98 99 98 97 96 96 99 100 99 99 95 95 90 92 92 92 93 84 73 79 98 100 100 89 96 100 96 71 75 89 91 87 88 91 86 82 79 76 80 82 81 85 92 95 92 87 88
76 98 87 98 92 93 98 98 93 96 97 99 96 94 91 95 95 93 92 88 93 98 100 100 99 100 100 100 100 98 100 96 100 98 92 99 99 96 84 89 92 86 85 93 97 95 89 92 98

GFSSGP_925_rhum_129.txt.gz
RH
44 56 51 51 57 88 87 68 64 50 35 28 27 23 24 22 24 39 72 83 83 88 95 83 84 86 90 78 76 75 91 90 93 92 87 82 87 95 96 97 89 90 96 97 97 90 85 95 97
56 52 43 71 64 63 42 68 55 42 28 26 23 22 24 23 54 68 81 82 83 92 95 83 86 87 88 89 94 82 90 88 92 94 90 94 94 94 92 93 88 97 98 93 84 87 91 94 98
50 53 56 67 82 65 39 55 39 31 26 21 18 19 23 40 64 68 69 75 88 93 88 80 83 87 87 89 91 82 91 88 90 88 89 88 90 92 92 89 86 90 86 85 87 93 87 82 88
49 57 71 75 74 66 49 43 34 31 24 21 19 19 19 61 82 83 77 77 86 97 93 82 81 87 87 86 87 87 82 88 85 86 86 88 88 87 96 94 92 81 83 85 89 87 78 75 86
51 74 84 87 78 63 47 40 31 32 27 24 23 20 21 47 42 45 95 88 91 99 97 87 84 87 87 83 86 89 84 87 82 87 84 86 90 87 90 93 90 81 82 90 93 76 72 69 73
76 76 88 82 72 56 54 43 36 30 29 28 24 24 24 38 28 42 47 78 74 91 93 87 84 87 87 83 87 86 86 87 82 86 83 87 89 87 81 91 90 79 69 85 82 69 68 66 66
80 82 85 79 69 58 48 31 31 33 32 28 23 25 22 32 25 26 62 79 64 69 80 90 85 88 86 82 85 88 84 88 81 87 84 88 89 87 82 89 91 81 70 70 74 62 66 68 69
76 78 86 75 66 64 43 37 32 31 32 26 22 28 28 32 24 20 37 48 73 64 73 75 84 89 88 89 84 87 87 86 84 88 89 90 89 89 89 87 86 82 64 62 53 62 68 70 70
54 86 94 78 72 59 45 53 41 34 32 34 29 26 31 28 25 23 23 37 44 73 73 73 75 79 81 84 83 83 85 84 86 89 89 92 94 91 86 85 84 80 48 44 40 63 67 69 70
66 88 82 62 56 53 52 52 48 41 43 40 34 31 29 29 27 30 33 33 28 32 53 75 76 77 78 88 87 82 85 86 91 96 89 92 94 86 82 83 81 78 50 39 37 63 68 69 71
63 80 63 54 50 51 57 58 46 46 53 42 40 35 33 32 32 29 29 29 30 36 44 56 77 75 78 76 79 83 88 88 93 96 93 90 94 92 87 80 68 57 44 33 36 62 67 69 70
74 62 56 56 52 57 61 52 56 51 48 37 36 36 37 37 37 32 30 26 28 29 44 45 57 80 75 80 78 86 99 100 91 96 96 95 95 94 91 84 74 50 38 34 39 57 63 68 67
59 53 49 48 49 48 45 50 48 46 39 36 36 38 40 40 37 32 28 26 26 27 29 48 51 64 77 79 78 88 100 99 98 96 98 98 99 99 92 86 73 48 35 39 42 51 62 64 65
58 58 57 50 50 51 52 49 47 41 36 36 34 33 32 31 32 35 34 32 28 27 24 29 50 40 64 74 78 79 94 100 100 100 100 99 94 98 96 85 70 45 35 43 42 53 60 63 68
59 64 62 54 48 53 48 57 56 41 39 39 37 34 32 31 29 34 32 33 30 27 26 24 43 47 41 60 78 80 80 92 100 99 100 99 96 93 100 82 68 44 38 45 45 50 61 68 69
71 68 77 47 45 46 49 55 42 39 40 39 36 36 34 33 32 29 28 28 26 27 27 26 30 46 46 44 64 77 84 86 98 98 100 100 99 88 96 81 68 45 42 50 54 60 72 69 63
79 94 83 69 49 50 60 63 49 40 43 44 41 41 38 34 32 30 29 28 27 27 26 27 26 41 52 47 64 78 86 99 99 100 100 100 100 91 80 82 70 47 45 56 69 74 72 68 63
84 98 82 85 54 53 64 62 50 45 46 47 43 39 34 30 26 24 26 27 28 28 26 26 28 42 54 46 54 70 85 87 100 97 99 99 99 98 84 85 77 54 54 62 72 72 75 67 63
67 80 90 75 59 69 71 65 51 44 45 46 43 39 36 32 27 25 25 29 29 29 28 27 35 41 56 64 92 99 100 86 78 100 95 98 100 98 90 87 81 66 60 61 66 71 72 67 66
84 94 91 72 59 59 59 60 52 52 52 50 49 44 42 39 34 29 28 34 43 32 31 31 37 55 54 63 65 76 64 95 79 90 100 97 100 100 97 90 85 78 70 71 66 74 71 66 71
88 96 86 81 63 66 75 81 65 53 54 52 56 55 54 51 44 40 34 36 43 51 37 36 40 53 60 71 74 80 70 88 100 100 100 100 100 100 98 94 84 76 76 74 71 74 64 68 78
97 69 74 80 91 97 67 94 70 69 77 69 68 68 77 76 64 46 40 40 46 51 45 40 43 50 63 63 74 88 87 89 97 96 97 99 92 99 100 94 87 77 78 80 75 73 62 62 84
77 66 71 84 98 98 87 98 80 76 84 76 85 74 76 78 77 57 46 42 44 40 45 55 59 61 66 78 76 82 87 88 81 96 100 99 93 99 94 93 84 79 75 76 77 72 63 60 73
62 83 93 99 98 99 79 92 85 94 92 80 88 90 83 79 78 79 50 48 56 47 50 71 78 69 79 65 79 86 90 89 98 100 98 100 100 100 100 95 91 90 76 76 76 66 60 60 66
94 98 98 94 96 89 87 97 82 88 73 89 95 92 84 84 87 91 74 72 70 69 70 81 82 76 63 55 71 80 91 94 93 94 97 99 99 98 100 100 97 95 77 72 74 66 61 60 75
99 97 96 98 97 96 92 86 79 81 67 72 76 80 83 84 89 92 90 84 73 70 75 81 81 72 64 64 68 67 70 93 97 95 92 93 98 98 100 100 100 94 78 71 72 67 63 60 70
97 100 95 97 95 98 93 78 63 65 79 79 85 87 86 87 78 90 89 88 80 74 73 82 79 74 74 68 76 80 82 100 99 97 94 94 90 95 98 93 98 91 78 72 72 71 64 66 78
98 96 98 98 96 95 86 94 96 95 96 94 94 95 89 83 84 89 92 91 84 78 74 78 74 72 78 85 94 87 89 96 92 99 99 100 100 100 100 97 98 90 76 70 70 70 70 78 85
99 100 98 90 93 98 97 92 98 99 98 98 95 94 89 90 93 92 90 90 82 74 70 58 69 74 79 78 100 100 99 84 79 77 100 100 98 97 98 98 97 93 76 71 71 72 77 84 90
81 94 90 95 88 85 98 94 77 95 96 98 95 94 92 96 94 90 89 89 82 88 89 86 88 90 88 100 100 97 93 83 77 95 100 100 97 95 97 95 93 80 80 74 78 82 87 91 95

GFSSGP_925_rhum_132.txt.gz
RH
56 51 47 47 51 74 71 60 69 51 38 32 26 26 24 23 24 35 79 88 91 82 88 86 87 87 89 91 94 97 92 94 85 89 93 91 93 96 97 93 91 96 97 96 96 88 86 93 96
54 45 42 66 47 40 25 66 65 45 28 29 23 22 26 25 57 74 80 90 94 86 88 84 85 85 86 88 92 94 94 92 83 82 90 91 94 96 96 92 94 96 95 93 85 82 89 98 96
51 44 54 57 68 38 25 57 43 32 26 21 20 19 30 75 79 87 89 84 96 100 92 84 82 86 88 86 87 91 93 91 90 83 83 88 91 95 96 88 93 91 87 86 84 88 95 95 85
50 54 72 66 48 55 43 47 35 31 26 24 22 19 40 40 45 50 85 100 96 100 100 85 85 82 88 86 88 90 90 88 89 87 86 84 86 89 81 88 89 86 87 83 81 79 78 86 78
53 69 84 76 64 59 51 42 34 33 28 26 26 22 35 38 26 32 92 98 100 99 99 88 85 87 84 85 87 85 87 86 85 85 85 85 76 90 90 82 86 84 84 80 72 72 79 85 80
75 73 74 60 61 58 53 44 38 30 31 30 25 25 40 27 26 24 53 86 100 100 99 88 83 87 86 86 87 80 84 86 85 87 86 87 88 89 92 88 82 83 82 85 72 67 69 72 66
73 74 64 66 57 53 48 36 35 35 33 29 25 26 26 30 26 23 25 52 92 88 80 79 82 84 86 85 88 86 81 87 82 87 85 86 91 86 90 89 82 80 88 89 74 65 65 67 68
80 73 81 73 57 51 46 38 34 34 35 29 25 29 27 32 26 23 20 25 41 75 83 81 79 79 84 84 86 88 85 86 84 87 85 86 88 85 92 88 82 73 89 81 71 64 65 68 69
58 83 91 69 67 47 47 49 42 36 38 34 32 27 30 29 26 23 23 21 23 34 48 79 79 81 79 78 79 83 85 83 82 90 89 88 90 92 91 88 84 77 67 76 66 64 67 68 66
71 87 78 64 59 54 52 51 48 46 42 44 38 32 29 27 29 29 29 29 24 23 27 45 77 80 82 80 77 76 78 81 86 93 94 96 91 86 86 88 83 73 60 65 63 65 68 68 67
67 81 66 55 53 55 60 60 49 48 58 49 43 36 34 31 32 31 30 28 26 24 22 34 44 79 80 80 82 78 78 81 87 93 95 96 98 94 88 88 87 80 54 52 63 68 69 69 68
74 64 58 59 54 52 59 55 53 55 48 41 39 38 37 40 41 38 32 28 26 24 22 21 37 51 76 81 81 80 78 80 83 91 96 100 99 98 91 87 85 82 56 47 55 68 70 70 69
62 57 54 51 54 52 50 54 52 49 43 40 39 39 43 45 40 32 28 26 26 27 24 22 22 43 54 80 84 79 83 82 85 87 98 100 99 100 92 83 72 62 52 36 49 67 70 70 68
60 60 61 53 52 52 55 52 50 46 36 41 40 42 40 40 36 34 34 29 26 26 24 22 22 22 43 46 74 85 82 86 93 100 95 99 97 99 95 86 75 59 44 35 40 63 67 69 66
59 65 63 56 50 55 48 55 55 42 42 43 40 38 37 38 33 35 30 30 26 24 23 22 20 20 31 44 51 78 88 88 100 100 100 100 100 98 97 90 84 67 44 38 45 60 66 66 68
70 68 76 45 50 44 41 44 38 33 39 40 38 38 36 34 34 32 29 28 26 25 24 22 20 20 23 36 48 51 90 88 90 100 100 98 100 100 100 96 85 72 47 45 48 56 66 66 69
79 86 77 66 49 53 56 64 50 45 44 41 37 38 37 34 32 31 30 28 27 26 25 24 22 22 22 23 45 53 66 97 89 91 99 99 100 100 100 98 84 73 50 49 51 56 63 71 72
76 90 76 86 55 55 66 64 52 48 49 50 46 43 42 40 37 31 29 26 24 24 23 22 23 24 24 25 40 66 80 95 93 99 100 99 100 100 100 96 82 76 53 53 57 53 67 74 66
66 77 89 78 64 72 75 72 60 49 49 49 48 46 44 41 34 32 31 29 27 27 27 24 25 26 27 34 66 96 100 99 98 98 100 100 100 100 100 98 88 78 59 46 57 66 78 76 70
84 95 89 77 64 72 66 68 56 57 62 59 59 58 53 48 45 43 40 35 31 31 29 26 25 28 30 39 76 87 83 77 80 90 88 100 100 100 100 100 97 84 74 56 62 74 82 77 72
91 97 93 88 72 70 78 81 64 49 60 57 59 65 69 68 71 67 65 52 38 36 36 31 25 29 33 43 66 84 71 80 90 100 99 97 94 99 97 96 100 91 81 64 62 77 76 80 75
95 75 81 86 91 99 70 94 73 59 76 72 67 63 69 76 73 73 72 62 46 42 36 34 30 29 35 44 73 82 81 91 90 96 98 98 94 100 92 98 100 94 92 75 67 71 76 75 79
77 65 72 82 97 98 87 96 79 67 82 79 70 66 68 69 72 79 74 67 55 43 42 35 36 35 37 50 73 82 83 85 71 76 95 100 100 100 100 100 100 99 93 86 67 72 72 74 75
58 84 88 96 99 94 80 90 84 82 91 78 71 68 68 69 75 79 75 77 63 48 48 48 46 45 45 62 81 80 84 87 90 95 98 97 100 100 100 100 100 99 98 90 82 75 68 75 73
95 96 96 98 97 93 90 96 81 67 74 74 76 72 72 76 76 84 89 90 72 61 54 56 61 66 62 77 79 86 83 88 89 91 95 89 97 99 98 100 100 100 92 90 83 82 72 76 73
99 96 96 97 97 92 86 96 77 78 64 70 73 79 76 77 75 80 82 92 86 76 69 70 78 83 80 88 82 88 79 89 87 88 90 93 91 92 96 100 100 99 91 88 93 86 77 80 76
97 97 94 98 92 98 93 78 62 65 73 80 81 83 87 82 76 81 80 89 86 82 78 78 84 89 87 88 85 82 61 72 94 92 82 97 93 84 93 100 100 100 94 88 81 86 87 82 79
99 97 98 99 93 96 88 92 95 92 96 93 94 94 92 81 81 80 87 90 83 79 76 75 80 86 78 68 65 65 64 72 83 80 88 88 94 91 87 98 100 100 98 91 96 91 90 86 83
98 100 99 98 90 96 92 89 86 98 98 98 96 95 90 91 91 90 92 87 84 83 80 80 82 82 82 80 76 71 75 69 80 82 82 90 96 92 93 91 97 100 100 99 98 94 94 91 90
82 91 84 91 83 92 96 88 66 81 96 97 96 95 89 91 94 93 89 92 89 92 86 84 85 84 81 65 64 65 71 94 98 71 72 77 96 93 99 100 100 100 99 89 100 100 100 93 89

GFSSGP_925_rhum_135.txt.gz
RH
56 49 47 38 42 43 42 42 64 52 46 34 24 24 26 24 25 39 80 97 99 98 97 87 84 84 89 93 91 92 86 84 86 93 96 93 90 92 93 94 89 90 92 96 96 98 95 98 96
55 45 42 48 33 26 16 53 62 43 28 25 23 22 24 40 66 77 84 84 100 98 98 93 84 82 87 86 89 92 89 89 86 86 85 90 96 97 92 95 94 91 90 93 92 83 96 92 89
47 41 47 44 41 22 18 49 49 35 26 23 20 20 47 46 50 47 60 96 100 97 98 88 84 83 83 84 84 88 90 86 82 88 86 84 90 94 93 90 88 91 89 89 80 83 89 80 92
47 45 55 40 32 38 35 46 34 30 25 23 23 26 46 35 34 35 75 99 99 96 96 83 85 86 82 84 84 85 88 85 77 82 86 83 87 91 82 93 89 89 88 83 82 92 85 70 87
48 53 58 49 42 49 49 40 34 31 28 26 24 23 54 33 26 26 49 98 100 97 92 84 86 88 85 83 85 85 85 86 82 74 78 82 84 87 85 91 87 86 84 80 76 91 80 72 75
64 53 46 33 41 53 49 42 38 30 30 28 24 25 40 27 27 24 24 72 100 100 96 90 84 83 86 82 85 87 85 84 86 84 84 83 82 74 86 88 84 87 85 72 70 92 82 74 67
63 48 41 48 43 45 43 37 32 33 32 28 25 25 26 30 26 24 22 24 46 88 99 99 88 83 84 84 86 86 86 84 83 86 88 80 81 89 85 80 83 85 81 68 67 74 74 63 60
65 57 69 64 40 38 46 38 36 34 34 28 25 27 25 30 27 24 21 20 24 35 67 90 87 84 80 82 80 83 85 88 84 88 87 88 79 87 90 82 83 83 78 67 66 66 67 68 63
59 66 64 50 57 42 47 47 41 39 39 34 31 27 28 29 26 24 23 20 20 23 28 53 82 85 83 81 80 78 79 84 84 91 88 87 92 91 89 87 80 73 83 70 67 66 67 69 67
64 59 60 58 59 54 51 51 48 46 42 40 38 33 30 29 30 35 34 30 24 22 21 23 46 79 86 83 82 79 78 77 84 92 93 92 95 97 98 88 80 71 72 73 67 65 70 68 66
67 64 65 56 54 54 59 58 49 49 52 45 39 36 34 34 34 40 36 30 26 23 22 22 22 41 77 86 85 82 80 79 81 86 92 96 96 93 95 97 94 90 77 88 71 70 71 67 63
70 65 58 57 52 52 52 49 50 51 43 37 37 36 38 37 38 37 36 29 25 23 21 21 21 22 47 73 87 84 81 80 82 82 93 100 100 96 95 97 92 85 75 74 66 66 71 68 67
65 58 53 50 55 54 50 53 50 47 40 38 40 41 41 38 36 36 30 28 26 25 21 19 20 21 22 42 68 88 86 82 81 82 88 100 99 99 94 93 91 87 65 59 63 67 70 70 69
59 59 57 52 51 51 53 49 54 46 39 39 40 39 38 38 37 37 34 33 27 21 19 17 17 18 20 24 42 66 92 85 84 83 90 99 100 99 94 85 88 88 80 57 53 68 70 70 70
58 62 59 52 50 53 50 43 58 44 42 41 38 37 37 37 37 37 35 32 24 20 19 19 18 17 18 19 26 45 72 93 86 85 95 99 99 98 100 94 88 82 76 59 51 68 71 72 70
65 60 54 42 49 43 35 37 35 39 40 39 36 34 34 32 31 32 30 29 26 25 25 22 21 20 18 16 18 34 46 92 96 89 93 99 100 98 99 94 90 81 64 56 49 64 71 71 70
68 65 64 55 49 51 53 53 50 45 41 41 38 37 36 34 33 34 33 32 30 27 24 23 22 22 20 19 18 20 39 56 99 96 99 100 100 99 99 99 89 85 73 54 48 56 68 72 70
65 72 70 72 52 56 63 63 52 48 48 49 45 41 40 39 36 36 37 35 32 29 27 24 22 21 23 21 21 26 34 58 88 100 99 100 100 98 100 100 99 88 86 66 56 59 66 77 72
67 77 87 75 60 72 72 67 59 51 51 52 50 46 44 43 37 38 38 37 34 32 31 28 25 24 21 25 39 49 66 60 95 100 99 100 100 100 100 100 100 94 89 71 52 63 71 79 78
81 92 84 70 65 67 66 67 57 57 58 56 56 55 55 55 56 59 57 53 50 48 38 33 28 26 24 27 42 46 60 80 98 99 99 100 100 100 100 100 100 95 93 86 57 64 80 82 78
86 95 91 81 73 68 77 69 57 50 56 58 60 61 61 65 65 61 63 66 69 66 53 42 33 28 27 27 31 56 69 86 100 100 100 100 100 100 100 100 100 100 95 87 64 64 70 79 86
98 73 79 84 92 96 65 91 68 57 57 58 64 62 63 61 56 56 58 66 72 75 63 51 41 32 28 35 55 68 73 83 89 90 98 100 97 100 100 99 100 100 97 90 78 60 69 78 84
78 68 73 77 96 96 83 95 74 60 70 70 61 61 59 57 59 61 62 66 73 76 67 58 47 41 34 39 59 70 76 76 86 88 86 94 99 100 100 100 100 100 100 92 85 77 77 82 80
61 82 89 92 97 97 77 89 84 69 79 69 62 66 65 64 64 64 66 71 78 81 77 64 58 46 40 42 60 67 73 76 84 90 94 96 94 100 100 100 100 100 97 96 90 88 70 82 83
86 94 95 95 97 87 86 96 80 64 69 67 73 75 73 72 72 69 69 72 77 86 77 62 57 60 49 51 65 76 74 76 76 70 85 93 86 96 99 99 100 100 98 99 100 94 86 66 86
97 90 93 98 93 88 85 94 77 65 63 64 69 76 78 80 79 76 71 72 78 83 82 72 64 55 57 53 57 71 75 80 79 76 74 83 85 86 89 99 100 100 100 100 100 95 88 86 79
95 99 76 96 85 94 86 77 64 64 71 81 84 84 89 82 80 79 72 76 78 83 81 78 74 68 60 66 73 77 87 83 85 82 88 88 90 86 85 97 100 100 100 100 100 100 95 87 82
95 87 98 97 96 92 77 87 94 93 96 94 94 95 95 84 84 84 77 80 83 85 78 80 80 78 75 80 88 90 92 88 83 83 82 80 92 88 89 86 94 100 100 100 100 100 91 90 92
93 95 96 99 89 92 87 82 94 98 98 99 96 96 93 89 88 90 89 86 85 81 85 82 83 90 90 84 92 94 95 92 88 88 78 60 79 91 86 90 86 86 100 100 100 99 98 98 96
82 93 98 95 81 89 92 84 66 74 95 97 96 95 85 83 85 86 88 90 94 94 91 89 92 94 90 87 91 93 90 81 80 64 63 60 66 85 88 89 90 92 99 100 100 99 97 98 97